[[{"header":{"parameterUnit":"m.s-1","parameterCategory":1,"la1":31.0,"la2":29.5877,"lo1":-88.7671,"lo2":-86.6584,"dy":0.0162,"dx":0.0185,"nx":115,"ny":88,"refTime":"2026-04-25T00:00:00:Z","depth":0,"parameterNumber":2,"parameterNumberName":"U-component_of_WINDS"},"data":[0.0,0.0,0.0,0.0,0.0,0.0,0.0,0.0,0.0,0.0,0.0,0.0,0.0,0.0,0.0,0.0,0.0,0.0,0.0,0.0,0.0,0.0,0.0,0.0,0.0,0.0,0.0,0.0,0.0,0.0,0.0,0.0,0.0,0.0,0.0,0.0,0.0,0.0,0.0,0.0,0.0,0.0,0.0,0.0,0.0,0.0,0.0,0.0,0.0,0.0,0.0,0.0,0.0,0.0,0.0,0.0,0.0,0.0,0.0,0.0,0.0,0.0,0.0,0.0,0.0,0.0,0.0,0.0,0.0,0.0,0.0,0.0,0.0,0.0,0.0,0.0,0.0,0.0,0.0,0.0,0.0,0.0,0.0,0.0,0.0,0.0,0.0,0.0,0.0,0.0,0.0,0.0,0.0,0.0,0.0,0.0,0.0,0.0,0.0,0.0,0.0,0.0,0.0,0.0,0.0,0.0,0.0,0.0,0.0,0.0,0.0,0.0,0.0,0.0,0.0,0.0,0.0,0.0,0.0,0.0,0.0,0.0,0.0,0.0,0.0,0.0,0.0,0.0,0.0,0.0,0.0,0.0,0.0,0.0,0.0,0.0,0.0,0.0,0.0,0.0,0.0,0.0,0.0,0.0,0.0,0.0,0.0,0.0,0.0,0.0,0.0,0.0,0.0,0.0,0.0,0.0,0.0,0.0,0.0,0.0,0.0,0.0,0.0,0.0,0.0,0.0,0.0,0.0,0.0,0.0,0.0,0.0,0.0,0.0,0.0,0.0,0.0,0.0,0.0,0.0,0.0,0.0,0.0,0.0,0.0,0.0,0.0,0.0,0.0,0.0,0.0,0.0,0.0,0.0,0.0,0.0,0.0,0.0,0.0,0.0,0.0,0.0,0.0,0.0,0.0,0.0,0.0,0.0,0.0,0.0,0.0,0.0,0.0,0.0,0.0,0.0,0.0,0.0,0.0,0.0,0.0,0.0,0.0,0.0,0.0,0.0,0.0,0.0,0.0,0.0,0.0,0.0,0.0,0.0,0.0,0.0,0.0,0.0,0.0,0.0,0.0,0.0,0.0,0.0,0.0,0.0,0.0,0.0,0.0,0.0,0.0,0.0,0.0,0.0,0.0,0.0,0.0,0.0,0.0,0.0,0.0,0.0,0.0,0.0,0.0,0.0,0.0,0.0,0.0,0.0,0.0,0.0,0.0,0.0,0.0,0.0,0.0,0.0,0.0,0.0,0.0,0.0,0.0,0.0,0.0,0.0,0.0,0.0,0.0,0.0,0.0,0.0,0.0,0.0,0.0,0.0,0.0,0.0,0.0,0.0,0.0,0.0,0.0,0.0,0.0,0.0,0.0,0.0,0.0,0.0,0.0,0.0,0.0,0.0,0.0,0.0,0.0,0.0,0.0,0.0,0.0,0.0,0.0,0.0,0.0,0.0,0.0,0.0,0.0,0.0,0.0,0.0,0.0,0.0,0.0,0.0,0.0,0.0,0.0,0.0,0.0,0.0,0.0,0.0,0.0,0.0,0.0,0.0,0.0,0.0,0.0,0.0,0.0,0.0,0.0,0.0,0.0,0.0,0.0,0.0,0.0,0.0,0.0,0.0,0.0,0.0,0.0,0.0,0.0,0.0,0.0,0.0,0.0,0.0,0.0,0.0,0.0,0.0,0.0,0.0,0.0,0.0,0.0,0.0,0.0,0.0,0.0,0.0,0.0,0.0,0.0,0.0,0.0,0.0,0.0,0.0,0.0,0.0,0.0,0.0,0.0,0.0,0.0,0.0,0.0,0.0,0.0,0.0,0.0,0.0,0.0,0.0,0.0,0.0,0.0,0.0,0.0,0.0,0.0,0.0,0.0,0.0,0.0,0.0,0.0,0.0,0.0,0.0,0.0,0.0,0.0,0.0,0.0,0.0,0.0,0.0,0.0,0.0,0.0,0.0,0.0,0.0,0.0,0.0,0.0,0.0,0.0,0.0,0.0,0.0,0.0,0.0,0.0,0.0,0.0,0.0,0.0,0.0,0.0,0.0,0.0,0.0,0.0,0.0,0.0,0.0,0.0,0.0,0.0,0.0,0.0,0.0,0.0,0.0,0.0,0.0,0.0,0.0,0.0,0.0,0.0,0.0,0.0,0.0,0.0,0.0,0.0,0.0,0.0,0.0,0.0,0.0,0.0,0.0,0.0,0.0,0.0,0.0,0.0,0.0,0.0,0.0,0.0,0.0,0.0,0.0,0.0,0.0,0.0,0.0,0.0,0.0,0.0,0.0,0.0,0.0,0.0,0.0,0.0,0.0,0.0,0.0,0.0,0.0,0.0,0.0,0.0,0.0,0.0,0.0,0.0,0.0,0.0,0.0,0.0,0.0,0.0,0.0,0.0,0.0,0.0,0.0,0.0,0.0,0.0,0.0,0.0,0.0,0.0,0.0,0.0,0.0,0.0,0.0,0.0,0.0,0.0,0.0,0.0,0.0,0.0,0.0,0.0,0.0,0.0,0.0,0.0,0.0,0.0,0.0,0.0,0.0,0.0,0.0,0.0,0.0,0.0,0.0,0.0,0.0,0.0,0.0,0.0,0.0,0.0,0.0,0.0,0.0,0.0,0.0,0.0,0.0,0.0,0.0,0.0,0.0,0.0,0.0,0.0,0.0,0.0,0.0,0.0,0.0,0.0,0.0,0.0,0.0,0.0,0.0,0.0,0.0,0.0,0.0,0.0,0.0,0.0,0.0,0.0,0.0,0.0,0.0,0.0,0.0,0.0,0.0,0.0,0.0,0.0,0.0,0.0,0.0,0.0,0.0,0.0,0.0,0.0,0.0,0.0,0.0,0.0,0.0,0.0,0.0,0.0,0.0,0.0,0.0,0.0,0.0,0.0,0.0,0.0,0.0,0.0,0.0,0.0,0.0,0.0,0.0,0.0,0.0,0.0,0.0,0.0,0.0,0.0,0.0,0.0,0.0,0.0,0.0,0.0,0.0,0.0,0.0,0.0,0.0,0.0,0.0,0.0,0.0,0.0,0.0,0.0,0.0,0.0,0.0,0.0,0.0,0.0,0.0,0.0,0.0,0.0,0.0,0.0,0.0,0.0,0.0,0.0,0.0,0.0,0.0,0.0,0.0,0.0,0.0,0.0,0.0,0.0,0.0,0.0,0.0,0.0,0.0,0.0,0.0,0.0,0.0,0.0,0.0,0.0,0.0,0.0,0.0,0.0,0.0,0.0,0.0,0.0,0.0,0.0,0.0,0.0,0.0,0.0,0.0,0.0,0.0,0.0,0.0,0.0,0.0,0.0,0.0,0.0,0.0,0.0,0.0,0.0,0.0,0.0,0.0,0.0,0.0,0.0,0.0,0.0,0.0,0.0,0.0,0.0,0.0,0.0,0.0,0.0,0.0,0.0,0.0,0.0,0.0,0.0,0.0,0.0,0.0,0.0,0.0,0.0,0.0,0.0,0.0,0.0,0.0,0.0,0.0,0.0,0.0,0.0,0.0,0.0,0.0,0.0,0.0,0.0,0.0,0.0,0.0,0.0,0.0,0.0,0.0,0.0,0.0,0.0,0.0,0.0,0.0,0.0,0.0,0.0,0.0,0.0,0.0,0.0,0.0,0.0,0.0,0.0,0.0,0.0,0.0,0.0,0.0,0.0,0.0,0.0,0.0,0.0,0.0,0.0,0.0,0.0,0.0,0.0,0.0,0.0,0.0,0.0,0.0,0.0,0.0,0.0,0.0,0.0,0.0,0.0,0.0,0.0,0.0,0.0,0.0,0.0,0.0,0.0,0.0,0.0,0.0,0.0,0.0,0.0,0.0,0.0,0.0,0.0,0.0,0.0,0.0,0.0,0.0,0.0,0.0,0.0,0.0,0.0,0.0,0.0,0.0,0.0,0.0,0.0,0.0,0.0,0.0,0.0,0.0,0.0,0.0,0.0,0.0,0.0,0.0,0.0,0.0,0.0,0.0,0.0,0.0,0.0,0.0,0.0,0.0,0.0,0.0,0.0,0.0,0.0,0.0,0.0,0.0,0.0,0.0,0.0,0.0,0.0,0.0,0.0,0.0,0.0,0.0,0.0,0.0,0.0,0.0,0.0,0.0,0.0,0.0,0.0,0.0,0.0,0.0,0.0,0.0,0.0,0.0,0.0,0.0,0.0,0.0,0.0,0.0,0.0,0.0,0.0,0.0,0.0,0.0,0.0,0.0,0.0,0.0,0.0,0.0,0.0,0.0,0.0,0.0,0.0,0.0,0.0,0.0,0.0,0.0,0.0,0.0,-4.6865,0.0,0.0,0.0,0.0,0.0,0.0,0.0,0.0,0.0,0.0,0.0,0.0,0.0,0.0,0.0,0.0,0.0,0.0,0.0,0.0,0.0,0.0,0.0,0.0,0.0,0.0,0.0,0.0,0.0,0.0,0.0,0.0,0.0,0.0,0.0,0.0,0.0,0.0,0.0,0.0,0.0,0.0,0.0,0.0,0.0,0.0,0.0,0.0,0.0,0.0,0.0,0.0,0.0,0.0,0.0,0.0,0.0,0.0,0.0,0.0,0.0,0.0,0.0,0.0,0.0,0.0,0.0,0.0,0.0,0.0,0.0,0.0,0.0,0.0,0.0,0.0,0.0,0.0,0.0,0.0,0.0,0.0,0.0,0.0,0.0,0.0,0.0,0.0,0.0,0.0,0.0,0.0,0.0,0.0,0.0,0.0,0.0,0.0,0.0,0.0,0.0,0.0,0.0,0.0,0.0,0.0,0.0,0.0,0.0,0.0,-4.836,-4.9477,-4.8248,-4.7558,-4.75,0.0,0.0,0.0,0.0,0.0,0.0,0.0,0.0,0.0,0.0,0.0,0.0,0.0,0.0,0.0,0.0,0.0,0.0,0.0,0.0,0.0,0.0,0.0,0.0,0.0,0.0,0.0,0.0,0.0,0.0,0.0,0.0,0.0,0.0,0.0,0.0,0.0,0.0,0.0,0.0,0.0,0.0,0.0,0.0,0.0,0.0,0.0,0.0,0.0,0.0,0.0,0.0,0.0,0.0,0.0,0.0,0.0,0.0,0.0,0.0,0.0,0.0,0.0,0.0,0.0,0.0,0.0,0.0,0.0,0.0,0.0,0.0,0.0,0.0,0.0,0.0,0.0,0.0,0.0,0.0,0.0,0.0,0.0,0.0,0.0,0.0,0.0,0.0,0.0,0.0,0.0,0.0,0.0,0.0,0.0,0.0,0.0,0.0,0.0,0.0,0.0,0.0,0.0,0.0,0.0,0.0,0.0,0.0,0.0,0.0,0.0,0.0,-4.9807,-4.8692,-4.8086,0.0,0.0,0.0,0.0,0.0,0.0,0.0,0.0,0.0,0.0,0.0,0.0,0.0,0.0,0.0,0.0,0.0,0.0,0.0,0.0,0.0,0.0,0.0,0.0,0.0,0.0,0.0,0.0,0.0,0.0,0.0,0.0,0.0,0.0,0.0,0.0,0.0,0.0,0.0,0.0,0.0,0.0,0.0,0.0,0.0,0.0,0.0,0.0,0.0,0.0,0.0,0.0,0.0,0.0,0.0,0.0,0.0,0.0,0.0,0.0,0.0,0.0,0.0,0.0,0.0,0.0,0.0,0.0,0.0,0.0,0.0,0.0,0.0,0.0,0.0,0.0,0.0,0.0,0.0,0.0,0.0,0.0,0.0,0.0,0.0,0.0,0.0,0.0,0.0,0.0,0.0,0.0,0.0,0.0,0.0,0.0,0.0,0.0,0.0,0.0,0.0,0.0,0.0,0.0,0.0,0.0,0.0,0.0,0.0,0.0,-4.9845,-5.3026,-5.2145,0.0,-4.8279,0.0,0.0,0.0,0.0,0.0,0.0,0.0,0.0,0.0,0.0,0.0,0.0,0.0,0.0,0.0,0.0,0.0,0.0,0.0,0.0,0.0,0.0,0.0,0.0,0.0,0.0,0.0,0.0,0.0,0.0,0.0,0.0,0.0,0.0,0.0,0.0,0.0,0.0,0.0,0.0,0.0,0.0,0.0,0.0,0.0,0.0,0.0,0.0,0.0,0.0,0.0,0.0,0.0,0.0,0.0,0.0,0.0,0.0,0.0,0.0,0.0,0.0,0.0,0.0,0.0,0.0,0.0,0.0,0.0,0.0,0.0,0.0,0.0,0.0,0.0,0.0,0.0,0.0,0.0,0.0,0.0,0.0,0.0,0.0,0.0,0.0,0.0,0.0,0.0,0.0,0.0,0.0,0.0,0.0,0.0,0.0,0.0,0.0,0.0,0.0,0.0,0.0,0.0,0.0,0.0,0.0,0.0,0.0,0.0,0.0,-5.0977,-5.3333,-5.199,-5.024,0.0,0.0,0.0,0.0,0.0,0.0,0.0,0.0,0.0,0.0,0.0,0.0,0.0,0.0,0.0,0.0,0.0,0.0,0.0,0.0,0.0,0.0,0.0,0.0,0.0,0.0,0.0,0.0,0.0,0.0,0.0,0.0,0.0,0.0,0.0,0.0,0.0,0.0,0.0,0.0,0.0,0.0,0.0,0.0,0.0,0.0,0.0,0.0,0.0,0.0,0.0,0.0,0.0,0.0,0.0,0.0,0.0,0.0,0.0,0.0,0.0,0.0,0.0,0.0,0.0,0.0,0.0,0.0,0.0,0.0,0.0,0.0,0.0,0.0,0.0,0.0,0.0,0.0,0.0,0.0,0.0,0.0,0.0,0.0,0.0,0.0,0.0,0.0,0.0,0.0,0.0,0.0,0.0,0.0,0.0,0.0,0.0,0.0,0.0,0.0,0.0,0.0,0.0,0.0,0.0,0.0,0.0,0.0,0.0,0.0,-5.0531,-5.1816,-5.3548,-5.2481,-5.0519,-4.7855,0.0,0.0,0.0,0.0,0.0,0.0,0.0,0.0,0.0,0.0,0.0,0.0,0.0,0.0,0.0,0.0,0.0,0.0,0.0,0.0,0.0,0.0,0.0,0.0,0.0,0.0,0.0,0.0,0.0,0.0,0.0,0.0,0.0,0.0,0.0,0.0,0.0,0.0,0.0,0.0,0.0,0.0,0.0,0.0,0.0,0.0,0.0,0.0,0.0,0.0,0.0,0.0,0.0,0.0,0.0,0.0,0.0,0.0,0.0,0.0,0.0,0.0,0.0,0.0,0.0,0.0,0.0,0.0,0.0,0.0,0.0,0.0,0.0,0.0,0.0,0.0,0.0,0.0,0.0,0.0,0.0,0.0,0.0,0.0,0.0,0.0,0.0,0.0,0.0,0.0,0.0,0.0,0.0,0.0,0.0,0.0,0.0,0.0,0.0,0.0,0.0,0.0,0.0,0.0,0.0,0.0,0.0,0.0,0.0,-5.1702,-5.2075,-5.4496,-5.4448,-5.2059,0.0,0.0,0.0,0.0,0.0,0.0,0.0,0.0,0.0,0.0,0.0,0.0,0.0,0.0,0.0,0.0,0.0,0.0,0.0,0.0,0.0,0.0,0.0,0.0,0.0,0.0,0.0,0.0,0.0,0.0,0.0,0.0,0.0,0.0,0.0,0.0,0.0,0.0,0.0,0.0,0.0,0.0,0.0,0.0,0.0,0.0,0.0,0.0,0.0,0.0,0.0,0.0,0.0,0.0,0.0,0.0,0.0,0.0,0.0,0.0,0.0,0.0,0.0,0.0,0.0,0.0,0.0,0.0,0.0,0.0,0.0,0.0,0.0,0.0,0.0,0.0,0.0,0.0,0.0,0.0,0.0,0.0,0.0,0.0,0.0,0.0,0.0,0.0,0.0,0.0,0.0,0.0,0.0,0.0,0.0,0.0,0.0,0.0,0.0,0.0,0.0,0.0,0.0,0.0,0.0,0.0,0.0,0.0,0.0,-4.9348,-5.0368,-5.2887,-5.6695,-5.2857,-4.9919,0.0,0.0,0.0,0.0,0.0,0.0,0.0,0.0,0.0,0.0,0.0,0.0,0.0,0.0,0.0,0.0,0.0,0.0,0.0,0.0,0.0,0.0,0.0,0.0,0.0,0.0,0.0,0.0,0.0,0.0,0.0,0.0,0.0,0.0,0.0,0.0,0.0,0.0,0.0,0.0,0.0,0.0,0.0,0.0,0.0,0.0,0.0,0.0,0.0,0.0,0.0,0.0,0.0,0.0,0.0,0.0,0.0,0.0,0.0,0.0,0.0,0.0,0.0,0.0,0.0,0.0,0.0,0.0,0.0,0.0,0.0,0.0,0.0,0.0,0.0,0.0,0.0,0.0,0.0,0.0,0.0,0.0,0.0,0.0,0.0,0.0,0.0,0.0,0.0,0.0,0.0,0.0,0.0,0.0,0.0,0.0,0.0,0.0,0.0,0.0,0.0,0.0,0.0,0.0,0.0,0.0,0.0,0.0,0.0,-4.9175,0.0,-5.4304,0.0,-5.2139,-4.8877,0.0,0.0,0.0,0.0,0.0,0.0,0.0,0.0,0.0,0.0,0.0,0.0,0.0,0.0,0.0,0.0,0.0,0.0,0.0,0.0,0.0,0.0,0.0,0.0,0.0,0.0,0.0,0.0,0.0,0.0,0.0,0.0,0.0,0.0,0.0,0.0,0.0,0.0,0.0,0.0,0.0,0.0,0.0,0.0,0.0,0.0,0.0,0.0,0.0,0.0,0.0,0.0,0.0,0.0,0.0,0.0,0.0,0.0,0.0,0.0,0.0,0.0,0.0,0.0,0.0,0.0,0.0,0.0,0.0,0.0,0.0,0.0,0.0,0.0,0.0,0.0,0.0,0.0,0.0,0.0,0.0,0.0,0.0,0.0,0.0,0.0,0.0,0.0,0.0,0.0,0.0,0.0,0.0,0.0,0.0,0.0,0.0,0.0,0.0,0.0,0.0,0.0,0.0,0.0,0.0,0.0,0.0,0.0,-4.8576,-5.3291,-5.5921,-5.5998,-5.3695,-5.255,-4.9267,0.0,0.0,0.0,0.0,0.0,0.0,0.0,0.0,0.0,0.0,0.0,0.0,0.0,0.0,0.0,0.0,0.0,0.0,0.0,0.0,0.0,0.0,0.0,0.0,0.0,0.0,0.0,0.0,0.0,0.0,0.0,0.0,0.0,0.0,0.0,0.0,0.0,0.0,0.0,0.0,0.0,0.0,0.0,0.0,0.0,0.0,0.0,0.0,0.0,0.0,0.0,0.0,0.0,0.0,0.0,0.0,0.0,0.0,0.0,0.0,0.0,0.0,0.0,0.0,0.0,0.0,0.0,0.0,0.0,0.0,0.0,0.0,0.0,0.0,0.0,0.0,0.0,0.0,0.0,0.0,0.0,0.0,0.0,0.0,0.0,0.0,0.0,0.0,0.0,0.0,0.0,0.0,0.0,0.0,0.0,0.0,0.0,0.0,0.0,0.0,0.0,0.0,0.0,0.0,0.0,0.0,0.0,0.0,0.0,-5.0989,-5.2405,-5.4195,-5.5972,-5.1338,-4.8335,0.0,0.0,0.0,0.0,0.0,0.0,0.0,0.0,0.0,0.0,0.0,0.0,0.0,0.0,0.0,0.0,0.0,0.0,0.0,0.0,0.0,0.0,0.0,0.0,0.0,0.0,0.0,0.0,0.0,0.0,0.0,0.0,0.0,0.0,0.0,0.0,0.0,0.0,0.0,0.0,0.0,0.0,0.0,0.0,0.0,0.0,0.0,0.0,0.0,0.0,0.0,0.0,0.0,0.0,0.0,0.0,0.0,0.0,0.0,0.0,0.0,0.0,0.0,0.0,0.0,0.0,0.0,0.0,0.0,0.0,0.0,0.0,0.0,0.0,0.0,0.0,0.0,0.0,0.0,0.0,0.0,0.0,0.0,0.0,0.0,0.0,0.0,0.0,0.0,0.0,0.0,0.0,0.0,0.0,0.0,0.0,0.0,0.0,0.0,0.0,0.0,0.0,0.0,0.0,0.0,0.0,0.0,0.0,0.0,-5.238,-5.4137,-5.5881,-5.7525,-5.2358,-4.9124,-4.8102,0.0,0.0,0.0,0.0,0.0,0.0,0.0,0.0,0.0,0.0,0.0,0.0,0.0,0.0,0.0,0.0,0.0,0.0,0.0,0.0,0.0,0.0,0.0,0.0,0.0,0.0,0.0,0.0,0.0,0.0,0.0,0.0,0.0,0.0,0.0,0.0,0.0,0.0,0.0,0.0,0.0,0.0,0.0,0.0,0.0,0.0,0.0,0.0,0.0,0.0,0.0,0.0,0.0,0.0,0.0,0.0,0.0,0.0,0.0,0.0,0.0,0.0,0.0,0.0,0.0,0.0,0.0,0.0,0.0,0.0,0.0,0.0,0.0,0.0,0.0,0.0,0.0,0.0,0.0,0.0,0.0,0.0,0.0,0.0,0.0,0.0,0.0,0.0,0.0,0.0,0.0,0.0,0.0,0.0,0.0,0.0,0.0,0.0,0.0,0.0,0.0,0.0,0.0,0.0,0.0,0.0,0.0,0.0,-5.6602,-6.0056,-6.0583,-5.8094,-5.5188,-5.1327,0.0,0.0,0.0,0.0,0.0,0.0,0.0,0.0,0.0,0.0,0.0,0.0,0.0,0.0,0.0,0.0,0.0,0.0,0.0,0.0,0.0,0.0,0.0,0.0,0.0,0.0,0.0,0.0,0.0,0.0,0.0,0.0,0.0,0.0,0.0,0.0,0.0,0.0,0.0,0.0,0.0,0.0,0.0,0.0,0.0,0.0,0.0,0.0,0.0,0.0,0.0,0.0,0.0,0.0,0.0,0.0,0.0,0.0,0.0,0.0,0.0,0.0,0.0,0.0,0.0,0.0,0.0,0.0,0.0,0.0,0.0,0.0,0.0,0.0,0.0,0.0,0.0,0.0,0.0,0.0,0.0,0.0,0.0,0.0,0.0,0.0,0.0,0.0,0.0,0.0,0.0,0.0,0.0,0.0,0.0,0.0,0.0,0.0,0.0,0.0,0.0,0.0,0.0,0.0,0.0,0.0,0.0,0.0,0.0,-5.8456,-6.1855,-6.2988,-6.154,-5.6528,-5.2499,0.0,0.0,0.0,0.0,0.0,0.0,0.0,0.0,0.0,0.0,0.0,0.0,0.0,0.0,0.0,0.0,0.0,0.0,0.0,0.0,0.0,0.0,0.0,0.0,0.0,0.0,0.0,0.0,0.0,0.0,0.0,0.0,0.0,0.0,0.0,0.0,0.0,0.0,0.0,0.0,0.0,0.0,0.0,0.0,0.0,0.0,0.0,0.0,0.0,0.0,0.0,0.0,0.0,0.0,0.0,0.0,0.0,0.0,0.0,0.0,0.0,0.0,0.0,0.0,0.0,0.0,0.0,0.0,0.0,0.0,0.0,0.0,0.0,0.0,0.0,0.0,0.0,0.0,0.0,0.0,0.0,0.0,0.0,0.0,0.0,0.0,0.0,0.0,0.0,0.0,0.0,0.0,0.0,0.0,0.0,0.0,0.0,0.0,0.0,0.0,0.0,0.0,0.0,0.0,0.0,0.0,0.0,0.0,-5.6406,-6.0195,-6.3262,-6.4785,-6.4648,-5.9377,-5.4992,0.0,0.0,0.0,0.0,0.0,0.0,0.0,0.0,0.0,0.0,0.0,0.0,0.0,0.0,0.0,0.0,0.0,0.0,0.0,0.0,0.0,0.0,0.0,0.0,0.0,0.0,0.0,0.0,0.0,0.0,0.0,0.0,0.0,0.0,0.0,0.0,0.0,0.0,0.0,0.0,0.0,0.0,0.0,0.0,0.0,0.0,0.0,0.0,0.0,0.0,0.0,0.0,0.0,0.0,0.0,0.0,0.0,0.0,0.0,0.0,0.0,0.0,0.0,0.0,0.0,0.0,0.0,0.0,0.0,0.0,0.0,0.0,0.0,0.0,0.0,0.0,0.0,0.0,0.0,0.0,0.0,0.0,0.0,0.0,0.0,0.0,0.0,0.0,0.0,0.0,0.0,0.0,0.0,0.0,0.0,0.0,0.0,0.0,0.0,0.0,0.0,0.0,0.0,0.0,0.0,0.0,0.0,0.0,-5.7598,-6.1758,-6.4394,-6.6152,-6.6875,-6.2587,-5.7782,0.0,0.0,0.0,0.0,0.0,0.0,0.0,0.0,0.0,0.0,0.0,0.0,0.0,0.0,0.0,0.0,0.0,0.0,0.0,0.0,0.0,0.0,0.0,0.0,0.0,0.0,0.0,0.0,0.0,0.0,0.0,0.0,0.0,0.0,0.0,0.0,0.0,0.0,0.0,0.0,0.0,0.0,0.0,0.0,0.0,0.0,0.0,0.0,0.0,0.0,0.0,0.0,0.0,0.0,0.0,0.0,0.0,0.0,0.0,0.0,0.0,0.0,0.0,0.0,0.0,0.0,0.0,0.0,0.0,0.0,0.0,0.0,0.0,0.0,0.0,0.0,0.0,0.0,0.0,0.0,0.0,0.0,0.0,0.0,0.0,0.0,0.0,0.0,0.0,0.0,0.0,0.0,0.0,0.0,0.0,0.0,0.0,0.0,0.0,0.0,0.0,0.0,0.0,0.0,0.0,0.0,0.0,0.0,-5.9101,-6.2656,-6.5273,-6.7031,-6.7871,-6.24,-5.7605,0.0,0.0,0.0,0.0,0.0,0.0,0.0,0.0,0.0,0.0,0.0,0.0,0.0,0.0,0.0,0.0,0.0,0.0,0.0,0.0,0.0,0.0,0.0,0.0,0.0,0.0,0.0,0.0,0.0,0.0,0.0,0.0,0.0,0.0,0.0,0.0,0.0,0.0,0.0,0.0,0.0,0.0,0.0,0.0,0.0,0.0,0.0,0.0,-4.2698,0.0,0.0,0.0,0.0,0.0,0.0,0.0,0.0,0.0,0.0,0.0,0.0,0.0,0.0,0.0,0.0,0.0,0.0,0.0,0.0,0.0,0.0,0.0,0.0,0.0,0.0,0.0,0.0,0.0,0.0,0.0,0.0,0.0,0.0,0.0,0.0,0.0,0.0,0.0,0.0,0.0,0.0,0.0,0.0,0.0,0.0,0.0,0.0,0.0,0.0,0.0,0.0,0.0,0.0,0.0,0.0,0.0,0.0,0.0,-5.9961,-6.293,-6.5547,-6.6914,-6.6836,-6.3086,-5.9117,0.0,0.0,0.0,0.0,0.0,0.0,0.0,0.0,0.0,0.0,0.0,0.0,0.0,0.0,0.0,0.0,0.0,0.0,0.0,0.0,0.0,0.0,0.0,0.0,0.0,0.0,0.0,0.0,0.0,0.0,0.0,0.0,0.0,0.0,0.0,0.0,0.0,0.0,0.0,0.0,0.0,0.0,0.0,0.0,0.0,0.0,0.0,0.0,0.0,0.0,0.0,0.0,0.0,0.0,0.0,0.0,0.0,0.0,0.0,0.0,0.0,0.0,0.0,0.0,0.0,0.0,0.0,0.0,0.0,0.0,0.0,0.0,0.0,0.0,0.0,0.0,0.0,0.0,0.0,0.0,0.0,0.0,0.0,0.0,0.0,0.0,0.0,0.0,0.0,0.0,0.0,0.0,0.0,0.0,0.0,0.0,0.0,0.0,0.0,0.0,0.0,0.0,0.0,0.0,0.0,0.0,0.0,-5.6152,-6.0234,-6.3125,-6.5508,-6.6348,-6.5605,-6.3769,-6.074,-5.6382,0.0,0.0,0.0,0.0,0.0,0.0,0.0,0.0,0.0,0.0,0.0,0.0,0.0,0.0,0.0,0.0,0.0,0.0,0.0,0.0,0.0,0.0,0.0,0.0,0.0,0.0,0.0,0.0,0.0,0.0,0.0,0.0,0.0,0.0,0.0,0.0,0.0,0.0,-4.1797,-4.3223,0.0,0.0,0.0,0.0,0.0,0.0,0.0,0.0,-4.3505,0.0,0.0,0.0,0.0,0.0,0.0,0.0,0.0,0.0,0.0,0.0,0.0,0.0,0.0,0.0,0.0,0.0,0.0,0.0,0.0,0.0,0.0,0.0,0.0,0.0,0.0,0.0,0.0,0.0,0.0,0.0,0.0,0.0,0.0,0.0,0.0,0.0,0.0,0.0,0.0,0.0,0.0,0.0,0.0,0.0,0.0,0.0,0.0,0.0,0.0,0.0,0.0,0.0,0.0,0.0,0.0,-5.4355,-5.6172,-5.9316,-6.3965,-6.5215,-6.5762,-6.5547,-6.3203,-5.9883,-5.5623,0.0,0.0,0.0,0.0,0.0,0.0,0.0,0.0,0.0,0.0,0.0,0.0,0.0,0.0,0.0,0.0,0.0,0.0,0.0,0.0,0.0,0.0,0.0,0.0,0.0,0.0,0.0,0.0,0.0,0.0,0.0,0.0,0.0,0.0,0.0,0.0,0.0,0.0,0.0,-4.5723,-4.623,0.0,0.0,0.0,0.0,0.0,0.0,0.0,0.0,-4.3973,0.0,0.0,0.0,0.0,0.0,0.0,0.0,0.0,0.0,0.0,0.0,0.0,0.0,0.0,0.0,0.0,0.0,0.0,0.0,0.0,0.0,0.0,0.0,0.0,0.0,0.0,0.0,0.0,0.0,0.0,0.0,0.0,0.0,0.0,0.0,0.0,0.0,0.0,0.0,0.0,0.0,0.0,0.0,0.0,0.0,0.0,0.0,0.0,0.0,0.0,0.0,0.0,0.0,0.0,0.0,-5.3105,-5.6758,-6.0215,-6.3515,-6.4492,-6.4707,-6.4199,-6.1328,-5.791,0.0,0.0,0.0,0.0,0.0,0.0,0.0,0.0,0.0,0.0,0.0,0.0,0.0,0.0,0.0,0.0,0.0,0.0,0.0,0.0,0.0,0.0,0.0,0.0,0.0,0.0,0.0,0.0,0.0,0.0,0.0,0.0,0.0,0.0,0.0,0.0,0.0,0.0,0.0,0.0,-4.6289,-4.6777,-4.8086,0.0,0.0,0.0,0.0,0.0,0.0,-4.4406,-4.3932,0.0,0.0,0.0,0.0,0.0,0.0,0.0,0.0,0.0,0.0,0.0,0.0,0.0,0.0,0.0,0.0,0.0,0.0,0.0,0.0,0.0,0.0,0.0,0.0,0.0,0.0,0.0,0.0,0.0,0.0,0.0,0.0,0.0,0.0,0.0,0.0,0.0,0.0,0.0,0.0,0.0,0.0,0.0,0.0,0.0,0.0,0.0,0.0,0.0,0.0,0.0,0.0,0.0,0.0,0.0,-5.1426,-5.6836,-6.0723,-6.289,-6.3691,-6.3613,-6.2734,-5.959,-5.6191,0.0,0.0,0.0,0.0,0.0,0.0,0.0,0.0,0.0,0.0,0.0,0.0,0.0,0.0,0.0,0.0,0.0,0.0,0.0,0.0,0.0,0.0,0.0,0.0,0.0,0.0,0.0,0.0,0.0,0.0,0.0,0.0,0.0,0.0,0.0,0.0,0.0,0.0,0.0,0.0,0.0,-4.791,-4.8769,-4.7871,0.0,0.0,0.0,0.0,-4.5604,-4.5349,0.0,0.0,0.0,0.0,0.0,0.0,0.0,0.0,0.0,0.0,0.0,0.0,0.0,0.0,0.0,0.0,0.0,0.0,0.0,0.0,0.0,0.0,0.0,0.0,0.0,0.0,0.0,0.0,0.0,0.0,0.0,0.0,0.0,0.0,0.0,0.0,0.0,0.0,0.0,0.0,0.0,0.0,0.0,0.0,0.0,0.0,0.0,0.0,0.0,0.0,0.0,0.0,0.0,0.0,0.0,0.0,-5.1289,-5.5117,-5.8984,-6.2773,-6.3086,-6.2734,-6.1855,-5.9297,-5.5898,0.0,0.0,0.0,0.0,0.0,0.0,0.0,0.0,0.0,0.0,0.0,0.0,0.0,0.0,0.0,0.0,0.0,0.0,0.0,0.0,0.0,0.0,0.0,0.0,0.0,0.0,0.0,0.0,0.0,0.0,0.0,0.0,0.0,0.0,0.0,0.0,0.0,0.0,0.0,0.0,0.0,-5.121,-4.918,-4.9335,-4.9335,0.0,0.0,-4.832,-4.8437,-4.9589,0.0,0.0,0.0,0.0,0.0,0.0,0.0,0.0,0.0,0.0,0.0,0.0,0.0,0.0,0.0,0.0,0.0,0.0,0.0,0.0,0.0,0.0,0.0,0.0,0.0,0.0,0.0,0.0,0.0,0.0,0.0,0.0,0.0,0.0,0.0,0.0,0.0,0.0,0.0,0.0,0.0,0.0,0.0,0.0,0.0,0.0,0.0,0.0,0.0,0.0,0.0,0.0,0.0,0.0,0.0,-4.6112,-5.0624,-5.5058,-5.8691,-6.1406,-6.1523,-6.1348,-6.0957,-5.6582,-5.2871,0.0,0.0,0.0,0.0,0.0,0.0,0.0,0.0,0.0,0.0,0.0,0.0,0.0,0.0,0.0,0.0,0.0,0.0,0.0,0.0,0.0,0.0,0.0,0.0,0.0,0.0,0.0,0.0,0.0,0.0,0.0,0.0,0.0,0.0,0.0,0.0,0.0,0.0,0.0,0.0,0.0,0.0,-5.0936,-5.0936,0.0,0.0,0.0,-4.9473,-4.8965,0.0,0.0,0.0,0.0,0.0,0.0,0.0,0.0,0.0,0.0,0.0,0.0,0.0,0.0,0.0,0.0,0.0,0.0,0.0,0.0,0.0,0.0,0.0,0.0,0.0,0.0,0.0,0.0,0.0,0.0,0.0,0.0,0.0,0.0,0.0,0.0,0.0,0.0,0.0,0.0,0.0,0.0,0.0,0.0,0.0,0.0,0.0,0.0,0.0,0.0,0.0,0.0,0.0,0.0,0.0,0.0,0.0,-4.9821,-5.4919,-5.8395,-5.9997,-6.0077,-5.9902,-5.9394,-5.4844,0.0,0.0,0.0,0.0,0.0,0.0,0.0,0.0,0.0,0.0,0.0,0.0,0.0,0.0,0.0,0.0,0.0,0.0,0.0,0.0,0.0,0.0,0.0,0.0,0.0,0.0,0.0,-3.5527,0.0,0.0,0.0,0.0,0.0,0.0,0.0,0.0,0.0,0.0,0.0,0.0,0.0,0.0,-4.9074,-5.1422,-5.1909,-5.1889,0.0,0.0,-5.0605,-4.9941,-5.0215,-4.9179,0.0,0.0,0.0,0.0,0.0,0.0,0.0,0.0,0.0,0.0,0.0,0.0,0.0,0.0,0.0,0.0,0.0,0.0,0.0,0.0,0.0,0.0,0.0,0.0,0.0,0.0,0.0,0.0,0.0,0.0,0.0,0.0,0.0,0.0,0.0,0.0,0.0,0.0,0.0,0.0,0.0,0.0,0.0,0.0,0.0,0.0,0.0,0.0,0.0,0.0,0.0,0.0,0.0,0.0,0.0,-4.9037,-5.4056,-5.7513,-5.9113,-5.9235,-5.8514,-5.6893,-5.5664,-5.2305,0.0,0.0,0.0,0.0,0.0,0.0,0.0,0.0,0.0,0.0,0.0,0.0,0.0,0.0,0.0,0.0,0.0,0.0,0.0,0.0,0.0,0.0,0.0,0.0,0.0,0.0,0.0,0.0,0.0,0.0,0.0,0.0,0.0,0.0,0.0,0.0,0.0,0.0,0.0,0.0,0.0,-4.9733,-4.923,-5.1842,-5.4086,0.0,0.0,-5.2514,-5.2458,-5.3787,-5.2362,-4.498,0.0,0.0,0.0,0.0,0.0,0.0,0.0,0.0,0.0,0.0,0.0,0.0,0.0,0.0,0.0,0.0,0.0,0.0,0.0,0.0,0.0,0.0,0.0,0.0,0.0,0.0,0.0,0.0,0.0,0.0,0.0,0.0,0.0,0.0,0.0,0.0,0.0,0.0,0.0,0.0,0.0,0.0,0.0,0.0,0.0,0.0,0.0,0.0,0.0,0.0,0.0,0.0,0.0,-4.5496,-4.8093,-5.3171,-5.6607,-5.8228,-5.8351,-5.7826,-5.6616,-5.4176,-5.0818,0.0,0.0,0.0,0.0,0.0,0.0,0.0,0.0,0.0,0.0,0.0,0.0,0.0,0.0,0.0,0.0,0.0,0.0,0.0,0.0,0.0,0.0,0.0,0.0,0.0,0.0,0.0,0.0,-3.8396,-3.8103,-3.7381,0.0,0.0,0.0,0.0,0.0,0.0,0.0,0.0,0.0,0.0,-4.9393,-5.1704,-5.3614,0.0,0.0,-5.4734,-5.4113,-5.3588,-5.275,-5.0428,-4.5311,-4.3007,0.0,0.0,0.0,0.0,0.0,0.0,0.0,0.0,0.0,0.0,0.0,0.0,0.0,0.0,0.0,0.0,0.0,0.0,0.0,0.0,0.0,0.0,0.0,0.0,0.0,0.0,0.0,0.0,0.0,0.0,0.0,0.0,0.0,0.0,0.0,0.0,0.0,0.0,0.0,0.0,0.0,0.0,0.0,0.0,0.0,0.0,0.0,0.0,0.0,0.0,0.0,0.0,-4.4473,-4.6796,-5.1639,-5.4958,-5.6618,-5.6704,-5.6317,-5.5419,-5.2823,-4.9798,0.0,0.0,0.0,0.0,0.0,0.0,0.0,0.0,0.0,0.0,0.0,0.0,0.0,0.0,0.0,0.0,0.0,0.0,0.0,0.0,0.0,0.0,0.0,0.0,0.0,0.0,0.0,0.0,-3.8744,-3.8256,-3.7044,0.0,0.0,0.0,0.0,0.0,0.0,0.0,0.0,0.0,0.0,-4.9522,-5.277,-5.4195,-5.482,-5.4547,-5.4319,-5.3815,-5.2978,-5.134,-4.8999,-4.5563,0.0,0.0,0.0,0.0,0.0,0.0,0.0,0.0,0.0,0.0,0.0,0.0,0.0,0.0,0.0,0.0,0.0,0.0,0.0,0.0,0.0,0.0,0.0,0.0,0.0,0.0,0.0,0.0,0.0,0.0,-3.8027,0.0,0.0,0.0,0.0,0.0,0.0,0.0,0.0,0.0,0.0,0.0,0.0,0.0,0.0,0.0,0.0,0.0,0.0,0.0,0.0,0.0,0.0,-4.3333,-4.509,-4.9403,-5.239,-5.4068,-5.4078,-5.3751,-5.2853,-5.1883,-4.9757,-4.63,0.0,0.0,0.0,0.0,0.0,0.0,0.0,0.0,0.0,0.0,0.0,0.0,0.0,0.0,0.0,0.0,0.0,0.0,0.0,0.0,0.0,0.0,0.0,0.0,0.0,0.0,-3.6381,-3.6108,-3.6106,0.0,0.0,0.0,0.0,0.0,0.0,0.0,0.0,0.0,0.0,-4.7373,-5.0358,-5.1336,-5.2917,-5.37,-5.2919,-5.2079,-5.1222,-5.043,-5.014,-4.8951,0.0,0.0,0.0,0.0,0.0,0.0,0.0,0.0,0.0,0.0,0.0,0.0,0.0,0.0,0.0,0.0,0.0,0.0,0.0,0.0,0.0,0.0,0.0,0.0,0.0,0.0,0.0,-4.3583,-4.1797,0.0,0.0,0.0,0.0,0.0,0.0,0.0,0.0,0.0,0.0,0.0,-4.4442,-4.507,0.0,0.0,0.0,0.0,0.0,0.0,0.0,0.0,0.0,0.0,0.0,0.0,-4.3548,-4.589,-4.952,-5.2253,-5.3932,-5.3994,-5.3586,-5.2708,-5.1285,-4.8106,-4.3014,0.0,0.0,0.0,0.0,0.0,0.0,0.0,0.0,0.0,0.0,0.0,0.0,0.0,0.0,0.0,0.0,0.0,0.0,0.0,0.0,0.0,0.0,0.0,0.0,0.0,-3.8152,0.0,0.0,0.0,0.0,0.0,0.0,0.0,0.0,0.0,0.0,0.0,-4.1635,-4.4231,-4.6807,-4.8953,-5.0338,-5.1529,-5.237,0.0,0.0,0.0,0.0,0.0,0.0,0.0,0.0,0.0,0.0,0.0,0.0,0.0,0.0,-4.4892,-4.0561,-3.8809,-3.8088,-3.8333,0.0,0.0,0.0,0.0,0.0,0.0,0.0,0.0,0.0,0.0,0.0,0.0,0.0,0.0,-4.5563,0.0,-4.3693,0.0,0.0,0.0,0.0,0.0,0.0,0.0,0.0,-4.5454,-4.6559,-4.7356,-4.7981,-4.756,0.0,-4.5662,-4.3254,0.0,0.0,0.0,0.0,0.0,0.0,0.0,0.0,-4.3235,-4.5851,-4.8915,-5.1199,-5.2565,-5.2644,-5.2234,-5.1355,-4.9969,-4.6963,-4.2147,-4.1509,-3.9892,0.0,0.0,0.0,0.0,0.0,0.0,0.0,0.0,0.0,0.0,0.0,0.0,0.0,0.0,0.0,0.0,0.0,0.0,0.0,0.0,0.0,0.0,0.0,-3.7931,0.0,0.0,0.0,0.0,0.0,0.0,0.0,0.0,0.0,-3.9352,-4.1205,-4.3411,-4.5987,-4.7822,-4.9208,-4.9987,0.0,0.0,0.0,0.0,0.0,0.0,0.0,-4.7517,-4.6129,-4.5198,-4.442,-4.3854,-4.5677,-4.7008,-4.6403,0.0,0.0,-4.3687,-4.1747,-4.0876,-4.1404,-4.1046,-4.0825,-4.1332,-4.1659,-4.1824,0.0,0.0,0.0,0.0,0.0,0.0,0.0,0.0,-4.8255,-4.7738,0.0,-4.6827,0.0,0.0,0.0,0.0,0.0,-4.348,0.0,0.0,-4.9728,-5.1341,-5.068,-5.0673,-5.0279,-4.949,-4.9336,-4.7221,-4.3313,-4.0912,0.0,0.0,0.0,0.0,0.0,0.0,-4.2412,-4.4987,-4.7504,-4.9202,-5.0042,-5.0081,-4.9651,-4.8794,-4.8031,-4.6392,-4.3876,-4.3668,-4.215,-3.881,-3.702,0.0,0.0,0.0,0.0,0.0,0.0,0.0,0.0,0.0,0.0,0.0,0.0,0.0,0.0,0.0,0.0,0.0,0.0,0.0,0.0,-3.6792,0.0,0.0,0.0,0.0,0.0,0.0,0.0,0.0,0.0,0.0,-4.1147,-4.3391,-4.5909,-4.833,0.0,0.0,0.0,0.0,-5.0672,-4.9091,-4.8818,-4.8584,-4.7859,-4.833,-4.8505,-4.7742,0.0,0.0,-4.6698,-4.7839,-4.8429,-4.6768,-4.7882,-4.8921,-4.8769,-4.65,-4.4926,-4.4887,-4.3636,-4.2589,-4.2517,-4.3179,-4.3656,-5.5746,0.0,0.0,0.0,0.0,-5.2088,-5.2794,-5.4176,-5.3513,-5.2441,-5.1044,-4.9877,0.0,0.0,0.0,0.0,0.0,0.0,-4.7077,-4.9052,-5.0319,-5.1384,-5.2286,-5.1713,-5.1291,-5.1003,-4.9813,-4.8624,-4.7376,-4.4979,-4.1889,-3.8276,0.0,0.0,0.0,0.0,-4.2813,-4.4744,-4.6694,-4.8076,-4.8957,-4.8957,-4.8548,-4.7687,-4.7449,-4.6374,-4.4424,-4.4446,-4.3203,-4.0452,-3.8649,0.0,0.0,0.0,0.0,0.0,0.0,0.0,0.0,0.0,0.0,0.0,0.0,0.0,0.0,0.0,0.0,0.0,0.0,0.0,-3.5875,-3.6773,-3.7067,0.0,0.0,0.0,0.0,0.0,0.0,0.0,0.0,0.0,-4.3762,-4.4524,-4.5498,0.0,0.0,-4.7666,-4.7432,-4.8135,-4.872,-4.8798,-4.8798,0.0,0.0,-4.9052,-4.872,-4.8486,-4.9167,-4.956,-4.9093,-4.9921,-5.0317,-4.9185,-4.9423,-4.9583,-4.8941,-4.7811,-4.6855,-4.6757,-4.5937,-4.5214,-4.5175,-4.5329,-4.5437,-5.9423,-5.6218,-5.4611,-5.4259,-5.47,-5.452,-5.5281,-5.6601,-5.6104,-5.5301,-5.4287,-5.2975,-5.0711,-4.7741,-4.5772,0.0,0.0,0.0,-4.9343,-5.1419,-5.1805,-5.2326,-5.2901,-5.2444,-5.2053,-5.1689,-5.0366,-4.9531,-4.9177,-4.7376,-4.4475,-4.0634,0.0,0.0,-3.9869,-4.1675,-4.3466,-4.5147,-4.6507,-4.7459,-4.7969,-4.7639,-4.7212,-4.6701,-4.6682,-4.6191,-4.5156,-4.52,-4.4214,-4.2031,-4.0331,-3.8288,0.0,0.0,0.0,0.0,0.0,0.0,0.0,0.0,0.0,0.0,0.0,-3.1153,-3.0157,0.0,0.0,0.0,-3.3221,-3.4997,-3.6402,-3.7906,0.0,0.0,0.0,0.0,0.0,0.0,0.0,-4.0678,-4.2825,-4.4406,-4.4933,-4.5304,-4.6066,-4.7588,-4.7822,-4.7803,-4.7803,0.0,-4.8777,-4.9267,-4.9325,-4.9501,-5.0007,-4.995,-4.9716,-4.9364,-4.9423,-4.9577,-4.9599,-5.0033,-5.0173,-4.9744,-4.9571,-4.9439,-4.8931,-4.8168,-4.7603,-4.7588,-4.6907,-4.6321,-4.6301,-4.6268,-4.623,-6.2395,-6.1268,-5.7409,-5.5804,-5.588,-5.6587,-5.6912,-5.6906,-5.6912,-5.6797,-5.6658,-5.5861,-5.4085,-5.1582,-4.9315,0.0,-5.1748,-5.1021,-5.1476,-5.2951,-5.3795,-5.3762,-5.2996,-5.2909,-5.2502,-5.1754,-5.0892,-5.0068,-4.9271,-4.84,-4.6809,-4.4499,-4.2927,-4.2151,-4.2103,-4.2992,-4.4225,-4.5731,-4.661,-4.7057,-4.7057,-4.6222,-4.5775,-4.5789,-4.5717,-4.5653,-4.5653,-4.5684,-4.4932,-4.3335,-4.1805,-3.9813,-3.7193,0.0,0.0,0.0,0.0,0.0,0.0,0.0,0.0,0.0,0.0,0.0,0.0,0.0,0.0,0.0,-3.4666,0.0,-3.7321,-3.9509,0.0,0.0,0.0,-3.9605,-3.906,-4.0367,-4.1635,-4.2494,0.0,0.0,-4.509,-4.5851,-4.7256,-4.9597,-4.9831,-4.9792,-4.9792,-4.9714,-4.9889,-4.9733,-4.9928,-4.9987,-4.9909,-5.0477,-5.0633,-4.993,-4.9325,-4.8876,-4.8857,-4.8857,-4.8818,-4.872,-4.8701,-4.8642,-4.8603,-4.7881,-4.7496,-4.7451,-4.6847,-4.6301,-4.63,-4.6301,-4.6301,-6.2395,-6.1459,-5.9873,-5.9205,-5.9224,-5.9428,-5.9491,-5.9505,-5.9491,-5.8765,-5.7523,-5.6683,-5.4887,-5.248,-5.19,-5.1969,-5.2561,-5.302,-5.3428,-5.3798,-5.4014,-5.4014,-5.3765,-5.2516,-5.184,-5.1591,-5.0769,-5.0252,-4.9985,-4.8603,-4.761,-4.6959,-4.5381,-4.3628,-4.1854,-4.3247,-4.4215,-4.4661,-4.5445,-4.5849,-4.5863,-4.5112,-4.4688,-4.4669,-4.3981,-4.3607,-4.3627,-4.3779,-4.3344,-4.2306,-4.1308,-3.9941,-3.8073,-3.5306,0.0,0.0,0.0,0.0,0.0,0.0,0.0,0.0,0.0,-3.291,-3.0937,0.0,-3.4081,0.0,-3.6463,-3.8063,-3.8279,-3.8845,0.0,0.0,-3.9956,-4.0522,-4.2279,-4.2827,-4.3411,-4.4289,-4.5324,-4.5987,-4.5968,-4.6749,-4.751,-4.8113,-4.7627,-4.7198,-4.7217,-4.7783,-4.8191,-4.8308,-4.8779,-4.9111,-4.915,-4.9267,-4.9384,-4.915,-4.8935,-4.8798,-4.8798,-4.8798,-4.8603,-4.8035,-4.7879,-4.7627,-4.7061,-4.6729,-4.6633,-4.6599,-4.6424,-4.6306,-4.6287,-4.6287,-4.6287,-6.2051,-6.1535,-6.0733,-6.0403,-6.0403,-6.0403,-6.0403,-6.0365,-5.9988,-5.909,-5.781,-5.6606,-5.5288,-5.3989,-5.397,-5.397,-5.3989,-5.4467,-5.4486,-5.4104,-5.4104,-5.3722,-5.2957,-5.2028,-5.141,-5.1009,-5.0531,-5.0302,-5.0206,-4.8643,-4.7862,-4.7805,-4.6172,-4.4642,-4.335,-4.4241,-4.4748,-4.4795,-4.5189,-4.5247,-4.4929,-4.4479,-4.4066,-4.3682,-4.3175,-4.2725,-4.2389,-4.2478,-4.1956,-4.0742,-4.0294,-3.9296,-3.7628,-3.5819,-3.4336,0.0,0.0,0.0,0.0,0.0,0.0,0.0,0.0,0.0,0.0,0.0,-3.5447,-3.5837,-3.7537,-3.8903,-3.9645,-4.0426,-4.1246,-4.2163,-4.2162,-4.2708,-4.4133,-4.4289,-4.4602,-4.548,-4.6007,-4.6302,-4.6321,-4.671,-4.7022,-4.7022,-4.6612,-4.6573,-4.7276,-4.7842,-4.8152,-4.8172,-4.8505,-4.8798,-4.8798,-4.8486,-4.8271,-4.8232,-4.7939,-4.7705,-4.7705,-4.7686,-4.753,-4.712,-4.7022,-4.6885,-4.6397,-4.6302,-4.6302,-4.6302,-4.6302,-4.6302,-4.6302,-4.6302,-4.6302,-6.1535,-6.1382,-6.0676,-6.0403,-6.0403,-6.0403,-6.0403,-6.0346,-5.9472,-5.8593,-5.7638,-5.6071,-5.539,-5.539,-5.539,-5.539,-5.539,-5.5288,-5.483,-5.4104,-5.3874,-5.3015,-5.162,-5.1505,-5.1047,-5.0321,-5.0187,-5.0149,-5.0092,-4.8449,-4.7635,-4.7559,-4.6061,-4.5277,-4.5307,-4.5361,-4.5381,-4.539,-4.54,-4.5017,-4.4202,-4.4068,-4.3608,-4.2793,-4.2515,-4.2074,-4.1393,-4.124,-4.052,-3.9051,-3.9056,-3.8416,-3.6853,-3.5938,-3.4808,0.0,-3.2305,0.0,0.0,0.0,0.0,0.0,0.0,0.0,0.0,-3.5856,-3.6792,-3.7555,-3.8415,-3.9567,-4.1109,-4.2632,-4.3627,-4.3881,-4.4543,-4.5031,-4.5129,-4.5168,-4.5441,-4.6223,-4.6302,-4.6302,-4.6302,-4.6302,-4.6302,-4.6339,-4.6339,-4.6749,-4.8057,-4.831,-4.8291,-4.8486,-4.8486,-4.8271,-4.8271,-4.7842,-4.743,-4.7352,-4.6905,-4.6302,-4.6399,-4.638,-4.6341,-4.6321,-4.6241,-4.6163,-4.6262,-4.6105,-4.5968,-4.6027,-4.5929,-4.5892,-4.6046,-4.6223,-4.6262,-6.123,-6.0618,-6.0479,-6.0403,-6.0403,-6.0403,-6.0403,-6.0346,-5.9472,-5.8249,-5.6797,-5.5823,-5.539,-5.539,-5.539,-5.539,-5.5365,-5.4658,-5.4256,-5.4046,-5.2709,-5.1926,-5.1551,-5.0875,-5.0455,-5.0264,-4.9652,-4.9308,-4.9301,-4.757,-4.6748,-4.6699,-4.5755,-4.5277,-4.5288,0.0,0.0,0.0,-4.538,-4.4998,-4.4145,-4.3427,-4.268,-4.1866,-4.0461,0.0,-3.9506,-3.8891,-3.8391,-3.8084,-3.8139,0.0,0.0,0.0,0.0,0.0,0.0,0.0,0.0,0.0,0.0,0.0,-3.5251,-3.5215,-3.5763,-3.7785,-3.9156,-3.9331,-4.0114,-4.103,-4.2064,-4.2435,-4.3216,-4.4582,-4.4894,-4.5265,-4.5948,-4.6046,-4.6124,-4.6262,-4.6302,-4.63,-4.63,-4.6302,-4.6302,-4.6302,-4.6302,-4.6417,-4.6749,-4.6866,-4.6807,-4.6788,-4.6905,-4.6807,-4.6768,-4.669,-4.6632,-4.6495,-4.6456,-4.6302,-4.6302,-4.6302,-4.6302,-4.6282,-4.5734,-4.5519,-4.6105,-4.5187,-4.4484,-4.5109,-4.4699,-4.4406,-4.5109,-4.5812,-4.6085,-6.0662,0.0,-6.0366,-6.0361,0.0,-5.9931,-5.9759,-5.9701,-5.8861,-5.7562,-5.5995,-5.5575,-5.539,-5.539,-5.539,-5.5174,-5.4734,-5.4295,-5.3664,-5.2843,-5.199,-5.136,-5.0951,-5.0512,-5.0111,-4.9691,-4.9301,-4.8869,-4.8411,-4.7131,-4.6519,-4.6481,-4.5698,-4.5277,-4.5277,-4.5277,-4.5277,-4.5277,-4.4919,-4.4316,-4.3464,-4.2604,-4.1781,-4.0959,0.0,0.0,0.0,0.0,0.0,0.0,0.0,0.0,0.0,0.0,0.0,-3.5314,-3.4527,-3.4248,-3.4693,-3.4794,-3.5377,-3.6639,-3.7218,-3.7611,-3.7849,-3.9466,-4.0448,-4.0467,-4.123,-4.2089,-4.2947,-4.3377,-4.4157,-4.5386,-4.5601,-4.5777,-4.6167,-4.6245,-4.6245,-4.6247,-4.6271,-4.6294,-4.6292,-4.6298,-4.63,-4.6302,-4.6302,-4.63,-4.6302,-4.6302,-4.6302,-4.6302,-4.6302,-4.6302,-4.6302,-4.6302,-4.6302,-4.6302,-4.6302,-4.6302,-4.6302,-4.6302,-4.6302,-4.6243,-4.5578,-4.5187,-4.5421,-4.4582,-4.3842,-4.4211,-4.4016,-4.3626,-4.3801,-4.4406,-4.4914,-6.0226,-6.038,-6.0342,-6.0227,-6.0088,-5.9382,-5.8937,-5.8612,0.0,0.0,0.0,-5.539,-5.539,-5.539,-5.525,-5.4772,-5.4104,-5.3779,-5.2919,-5.1601,-5.1436,-5.099,-5.0321,-5.0149,-4.9748,-4.911,-4.8793,-4.8277,-4.754,-4.671,-4.629,-4.6233,-4.5621,-4.5277,-4.5277,-4.5277,-4.5231,-4.5048,-4.435,-4.3615,-4.2832,-4.1953,-4.1113,-4.032,-3.9461,-3.8667,-3.796,-3.7139,-3.6328,-3.5488,-3.5439,-3.5354,-3.5201,-3.5182,-3.5286,-3.5411,-3.5439,-3.5821,-3.6642,-3.6796,-3.725,-3.8081,-3.9058,-3.9688,-3.9968,-4.0641,-4.1142,-4.1306,-4.1971,-4.2812,-4.3807,-4.4487,-4.5248,-4.6108,-4.6206,-4.6206,-4.6206,-4.6206,-4.6209,-4.6209,-4.6255,-4.6282,-4.6282,-4.6269,-4.6294,-4.6275,-4.6275,-4.6296,-4.6298,-4.6298,-4.6302,-4.6302,-4.6302,-4.6302,-4.6302,-4.6302,-4.6302,-4.6302,-4.6302,-4.6302,-4.6282,-4.6163,-4.6066,-4.5987,-4.5265,-4.468,-4.466,-4.386,-4.3354,-4.343,-4.3333,-4.304,-4.2454,-4.2728,-4.3256,-6.0182,-6.0327,-6.0313,-5.9874,-5.9202,-5.9139,-5.8288,-5.695,-5.6836,-5.6262,-5.539,-5.539,-5.539,-5.5365,-5.4619,-5.4218,-5.4008,-5.2614,-5.1811,0.0,-5.0837,-5.0417,-5.0264,-4.9595,-4.9205,-4.8995,-4.7589,-4.6806,-4.6596,-4.5851,-4.5449,-4.5449,-4.5364,-4.5277,-4.5277,-4.5277,-4.4934,-4.4197,-4.4064,-4.3634,-4.2813,-4.1953,-4.1132,-4.0301,-3.9441,-3.8954,-3.882,-3.798,-3.7158,-3.6366,-3.6309,-3.5984,-3.5239,-3.522,-3.5526,-3.6233,-3.6309,-3.6672,-3.7464,-3.7555,-3.7986,-3.8954,-3.9842,-4.043,-4.066,-4.0832,-4.1266,-4.2028,-4.2337,-4.3046,-4.4487,-4.4858,-4.5287,-4.6069,-4.6206,-4.6206,-4.6206,-4.6206,-4.6206,-4.6206,-4.6209,-4.6211,-4.6231,-4.6233,-4.6216,-4.6214,-4.6216,-4.6238,-4.6267,-4.6294,-4.63,-4.6302,-4.6302,-4.6302,-4.6302,-4.6302,-4.6302,-4.6302,-4.6302,-4.6262,-4.6184,-4.5695,-4.5304,-4.5187,-4.3977,-4.3294,-4.3684,-4.2552,-4.2084,-4.2396,-4.2103,-4.1578,-4.14,-4.1539,-4.1812,-6.0076,-6.0125,-5.968,-5.9306,-5.894,-5.8066,-5.6973,-5.5866,-5.5828,-5.5682,-5.5409,-5.539,-5.5135,-5.4677,-5.4276,-5.3607,-5.2709,-5.1933,-5.1353,-5.0875,-5.0493,-5.0302,-5.0225,-4.948,-4.885,-4.8334,-4.7111,-4.629,-4.5831,-4.5468,-4.5277,-4.5277,-4.5277,-4.5067,-4.4628,-4.459,-4.4188,-4.3376,-4.3348,-4.2947,-4.2106,-4.1285,-4.0664,-4.0282,-3.947,-3.9011,-3.8992,-3.8171,-3.7521,-3.7158,-3.6729,-3.6519,-3.6547,-3.6146,-3.6271,-3.7073,-3.7158,-3.754,-3.8362,-3.8858,-3.9306,-3.975,-4.014,-4.0652,-4.1259,-4.1457,-4.1736,-4.219,-4.3107,-4.4046,-4.4854,-4.5322,-4.5771,-4.6144,-4.6203,-4.6203,-4.6203,-4.6203,-4.6203,-4.6203,-4.6209,-4.6195,-4.6215,-4.6203,-4.6206,-4.6206,-4.6206,-4.6211,-4.6255,-4.626,-4.6269,-4.6298,-4.6302,-4.6302,-4.6302,-4.6302,-4.6302,-4.6302,-4.6302,-4.6085,-4.5734,-4.5187,-4.4836,-4.4328,-4.3235,-4.2669,-4.2962,-4.1986,-4.1461,-4.1461,-4.1439,-4.1129,-4.1109,-4.1109,-4.1265,-5.9716,-5.973,-5.8867,-5.849,-5.8292,-5.6815,-5.5786,-5.5222,-5.5189,-5.5254,-5.532,-5.5199,-5.4734,-5.4104,-5.3702,-5.2824,-5.1697,-5.1398,-5.0932,-5.034,-5.0302,-5.0206,-4.9958,-4.9194,-4.8353,-4.7483,-4.6634,-4.5908,-4.5335,-4.5277,-4.5277,-4.5277,-4.5277,-4.4857,-4.4025,-4.4006,-4.351,-4.2565,-4.2507,-4.2183,-4.1523,-4.0731,-4.032,-4.0263,-3.9642,-3.9298,-3.926,-3.8648,-3.819,-3.798,-3.7406,-3.7264,-3.7636,-3.712,-3.7139,-3.7865,-3.7999,-3.8381,-3.924,-3.9928,-4.032,-4.032,-4.032,-4.0682,-4.1554,-4.2063,-4.2429,-4.2772,-4.397,-4.4912,-4.5234,-4.5771,-4.6199,-4.6199,-4.6199,-4.6199,-4.6199,-4.6199,-4.6199,-4.6199,-4.6209,-4.62,-4.6203,-4.6209,-4.6195,-4.6195,-4.6198,-4.6198,-4.6201,-4.6203,-4.6233,-4.6249,-4.6277,-4.6298,-4.63,-4.6302,-4.6302,-4.6302,-4.6105,-4.5714,-4.5148,-4.4777,-4.4192,-4.345,-4.2708,-4.2142,-4.2025,-4.1597,-4.1187,-4.1187,-4.1129,-4.1109,-4.1109,-4.1109,-4.1109,-5.8869,-5.8779,-5.7981,-5.7272,-5.6657,-5.5617,-5.5175,-5.5189,-5.5116,-5.5149,-5.5121,-5.4518,-5.4161,-5.3894,-5.2556,-5.1773,-5.1505,-5.0779,-5.0378,-5.0321,-5.0302,-4.992,-4.9213,-4.8334,-4.7455,-4.6653,-4.5831,-4.543,-4.5297,-4.5277,-4.5277,-4.5277,-4.5277,-4.4838,-4.4083,-4.3968,-4.3195,-4.1667,-4.1628,-4.1571,-4.1476,-4.0711,-4.032,-4.032,-4.0225,-4.0167,-4.0129,-4.0091,-3.969,-3.8973,-3.8782,-3.8438,-3.7827,-3.7636,-3.798,-3.8801,-3.8877,-3.9279,-4.0053,-4.0253,-4.032,-4.032,-4.032,-4.0654,-4.1514,-4.2387,-4.3351,-4.4137,-4.4572,-4.5143,-4.5948,-4.6146,-4.6192,-4.6196,-4.6199,-4.6199,-4.6199,-4.6199,-4.6199,-4.6199,-4.6199,-4.6199,-4.6203,-4.6206,-4.6206,-4.6209,-4.6209,-4.6213,-4.6203,-4.6206,-4.6212,-4.6228,-4.626,-4.629,-4.6296,-4.63,-4.6241,-4.6222,-4.5636,-4.5109,-4.4639,-4.3645,-4.2591,-4.2572,-4.1908,-4.14,-4.1322,-4.1129,-4.1129,-4.1109,-4.1109,-4.1109,-4.1109,-4.1109,-4.1109,-5.842,-5.7901,-5.707,-5.632,-5.5654,-5.5176,-5.5038,-5.5097,-5.4552,-5.4348,-5.4199,-5.3105,-5.2844,-5.3225,-5.2117,-5.1334,-5.0818,-5.0455,-5.0302,-5.0245,-4.9805,-4.9415,-4.8984,-4.7665,-4.6825,-4.6462,-4.5679,-4.5277,-4.5277,-4.5277,-4.5277,-4.522,-4.4819,-4.4112,-4.331,-4.2794,-4.1953,-4.0845,-4.0788,-4.0788,-4.075,-4.0473,-4.032,-4.032,-4.032,-4.032,-4.032,-4.032,-4.0129,-3.9775,-3.9298,-3.9088,-3.9221,-3.8744,-3.8858,-3.9671,-3.9766,-3.9919,-4.0282,-4.032,-4.032,-4.032,-4.032,-4.0826,-4.2125,-4.2671,-4.349,-4.4858,-4.5225,-4.5517,-4.5954,-4.6051,-4.6117,-4.6193,-4.6212,-4.6196,-4.6199,-4.6199,-4.6199,-4.6199,-4.6199,-4.6199,-4.6199,-4.6199,-4.6199,-4.6199,-4.6199,-4.6203,-4.6209,-4.6209,-4.6196,-4.6212,-4.622,-4.6253,-4.6267,-4.6292,-4.608,-4.5634,-4.5265,-4.4855,-4.3604,-4.304,-4.2279,-4.1771,-4.1363,-4.1129,-4.1148,-4.1109,-4.1109,-4.1109,-4.1109,-4.1109,-4.1109,-4.1109,-4.1109,-5.7668,-5.6986,-5.619,-5.554,-5.5094,-5.5014,-5.4895,-5.4699,-5.4073,-5.367,-5.3304,-5.2082,-5.1833,-5.2264,-5.1608,-5.0894,-5.0359,-5.0302,-5.0168,-4.9939,-4.9358,-4.888,-4.8296,-4.7131,-4.6385,-4.6118,-4.5583,-4.5277,-4.5277,-4.5277,-4.5182,-4.4876,-4.4293,-4.3491,-4.2488,-4.1791,-4.1094,-4.0396,-4.032,-4.032,-4.032,-4.032,-4.032,-4.032,-4.032,-4.032,-4.032,-4.032,-4.032,-4.0301,-3.968,-3.9632,-4.0225,-3.9699,-3.9642,-4.0225,-4.032,-4.032,-4.032,-4.032,-4.032,-4.032,-4.032,-4.0989,-4.2393,-4.2794,-4.3599,-4.5141,-4.5528,-4.5627,-4.5822,-4.5896,-4.5991,-4.6099,-4.6134,-4.615,-4.6204,-4.6212,-4.6199,-4.6199,-4.6199,-4.6199,-4.6199,-4.6199,-4.6199,-4.6199,-4.6199,-4.6199,-4.6199,-4.6199,-4.6203,-4.6174,-4.6021,-4.5841,-4.5904,-4.5833,-4.5525,-4.4868,-4.444,-4.372,-4.257,-4.2318,-4.1986,-4.1382,-4.1187,-4.1109,-4.1109,-4.1109,-4.1109,-4.1109,-4.1109,-4.1109,-4.1109,-4.1109,-4.1109,-5.6285,-5.6133,-5.5337,-5.5047,-5.5061,-5.4937,-5.4548,-5.4028,-5.3774,-5.329,-5.2506,-5.1783,-5.1503,-5.1516,-5.0775,-5.0359,-5.0302,-5.0264,-4.9862,-4.9251,-4.9052,-4.8181,-4.6672,-4.65,-4.6099,-4.5488,-4.5373,-4.5277,-4.5277,-4.5277,-4.4857,-4.4102,-4.3987,-4.3157,-4.182,-4.1504,-4.1094,-4.0377,-4.032,-4.032,-4.032,-4.032,-4.032,-4.032,-4.032,-4.032,-4.032,-4.032,-4.032,-4.032,-4.0234,-4.0244,-4.0301,-4.0244,-4.0225,-4.0301,-4.032,-4.032,-4.032,-4.032,-4.032,-4.032,-4.0377,-4.1008,-4.2584,-4.287,-4.3625,-4.5165,-4.5339,-4.5448,-4.5658,-4.5708,-4.5783,-4.5925,-4.5977,-4.6066,-4.6185,-4.6208,-4.6196,-4.6199,-4.6199,-4.6199,-4.6199,-4.6199,-4.6199,-4.6199,-4.6199,-4.6199,-4.6199,-4.6199,-4.6199,-4.6063,-4.5618,-4.5004,-4.4972,-4.498,-4.4614,-4.3979,-4.3301,-4.2602,-4.2197,-4.181,-4.14,-4.1129,-4.1109,-4.1109,-4.1109,-4.1109,-4.1109,-4.1109,-4.1109,-4.1109,-4.1109,-4.1109,-4.1109,-5.5868,-5.5356,-5.5034,-5.4941,-5.4971,-5.4396,-5.4031,-5.3731,-5.2603,-5.1968,-5.1597,-5.0919,-5.0602,-5.0602,-5.0407,-5.0302,-5.0245,-4.9767,-4.9377,-4.8976,-4.7971,-4.7092,-4.6538,-4.5984,-4.5602,-4.5335,-4.5277,-4.5277,-4.5277,-4.5277,-4.4857,-4.4025,-4.3472,-4.2641,-4.1609,-4.0998,-4.0559,-4.0339,-4.032,-4.032,-4.032,-4.032,-4.032,-4.032,-4.032,-4.032,-4.032,-4.032,-4.032,-4.032,-4.032,-4.032,-4.032,-4.032,-4.032,-4.032,-4.032,-4.032,-4.032,-4.032,-4.032,-4.0358,-4.0807,-4.1495,-4.2622,-4.3271,-4.4055,-4.4991,-4.5277,-4.5351,-4.5429,-4.5507,-4.5676,-4.586,-4.595,-4.6047,-4.6154,-4.6204,-4.6199,-4.6199,-4.6199,-4.6199,-4.6199,-4.6199,-4.6199,-4.6199,-4.6199,-4.6199,-4.6199,-4.6199,-4.6199,-4.6176,-4.5907,-4.5326,-4.4104,-4.4083,-4.3819,-4.3166,-4.2529,-4.2104,-4.17,-4.149,-4.1138,-4.1126,-4.1108,-4.1109,-4.1109,-4.1109,-4.1109,-4.1109,-4.1109,-4.1109,-4.1109,-4.1109,-4.1109,-5.5325,-5.4913,-5.4886,-5.4946,-5.4871,-5.4059,-5.3561,-5.3238,-5.184,-5.1054,-5.074,-5.0291,-5.0108,-5.0139,-5.0224,-5.0302,-5.0206,-4.9461,-4.8945,-4.8544,-4.7169,-4.6366,-4.6061,-4.5564,-4.5277,-4.5277,-4.5277,-4.5277,-4.5239,-4.501,-4.4437,-4.3596,-4.2794,-4.1953,-4.1151,-4.0559,-4.032,-4.032,-4.032,-4.032,-4.032,-4.032,-4.032,-4.032,-4.032,-4.032,-4.032,-4.032,-4.032,-4.032,-4.032,-4.032,-4.032,-4.032,-4.032,-4.032,-4.032,-4.032,-4.032,-4.032,-4.032,-4.032,-4.0788,-4.1552,-4.2641,-4.331,-4.4131,-4.4953,-4.5277,-4.5277,-4.5309,-4.5381,-4.5518,-4.5718,-4.5828,-4.5916,-4.6081,-4.6117,-4.615,-4.6192,-4.6199,-4.6199,-4.6199,-4.6199,-4.6199,-4.6199,-4.6199,-4.6199,-4.6199,-4.6199,-4.6199,-4.6137,-4.5553,-4.4793,-4.3744,-4.3247,-4.2791,-4.2159,-4.2027,-4.1622,-4.1417,-4.1207,-4.1115,-4.1103,-4.1106,-4.1108,-4.1109,-4.1109,-4.1109,-4.1109,-4.1109,-4.1109,-4.1109,-4.1109,-4.1109,-5.4522,-5.4799,-5.489,-5.4889,-5.4762,-5.3959,-5.3201,-5.2408,-5.1518,-5.0689,-5.0115,-5.0044,-5.0095,-5.0133,-5.0231,-5.029,-5.0149,-4.9366,-4.8582,-4.7845,-4.6863,-4.6023,-4.543,-4.5335,-4.5277,-4.5277,-4.5277,-4.5277,-4.5258,-4.4609,-4.3815,-4.287,-4.2144,-4.1361,-4.0339,-4.0339,-4.032,-4.032,-4.032,-4.032,-4.032,-4.032,-4.032,-4.032,-4.032,-4.0282,-4.0244,-4.0225,-4.0225,-4.0282,-4.0244,-4.0263,-4.0282,-4.032,-4.032,-4.032,-4.032,-4.032,-4.032,-4.032,-4.032,-4.0339,-4.0377,-4.1208,-4.2526,-4.2985,-4.3673,-4.4953,-4.5277,-4.5277,-4.5277,-4.5298,-4.539,-4.5485,-4.5571,-4.5654,-4.5835,-4.5944,-4.6037,-4.6146,-4.6185,-4.6196,-4.6196,-4.6199,-4.6199,-4.6199,-4.6199,-4.6199,-4.6199,-4.6199,-4.6199,-4.5926,-4.5241,-4.4325,-4.3309,-4.2338,-4.1704,-4.1187,-4.129,-4.1198,-4.1228,-4.1098,-4.1107,-4.1115,-4.1106,-4.1108,-4.1109,-4.1109,-4.1109,-4.1109,-4.1109,-4.1109,-4.1109,-4.1109,-4.1109,-5.4503,-5.4799,-5.4856,-5.4594,-5.4035,-5.3215,-5.2399,-5.157,-5.073,-5.0204,-4.9944,-4.9973,-5.0057,-5.0101,-5.0175,-5.0248,-5.0168,-4.8888,-4.8048,-4.7627,-4.6347,-4.5583,-4.5335,-4.5277,-4.5277,-4.5277,-4.5277,-4.5277,-4.5239,-4.4991,-4.4227,-4.2985,-4.2526,-4.1648,-4.0406,-4.032,-4.032,-4.032,-4.032,-4.032,-4.032,-4.032,-4.032,-4.032,-4.0301,-4.0034,-3.9451,-3.9412,-3.9718,-4.0225,-3.9737,-3.9671,-4.0167,-4.032,-4.032,-4.032,-4.032,-4.032,-4.032,-4.032,-4.032,-4.0396,-4.0788,-4.1609,-4.2679,-4.33,-4.4074,-4.5125,-4.5277,-4.5277,-4.5277,-4.5277,-4.535,-4.5466,-4.5502,-4.5549,-4.5733,-4.579,-4.5859,-4.5982,-4.6037,-4.6108,-4.6189,-4.6204,-4.6196,-4.6199,-4.6199,-4.6199,-4.6199,-4.6199,-4.6199,-4.6063,-4.5046,-4.4111,-4.3367,-4.2491,-4.1659,-4.1198,-4.1103,-4.1106,-4.1117,-4.1108,-4.1098,-4.1111,-4.1103,-4.1108,-4.1109,-4.1109,-4.1109,-4.1109,-4.1109,-4.1109,-4.1109,-4.1109,-4.1109,-5.4265,-5.4587,-5.478,-5.4417,-5.3631,-5.2836,-5.1987,-5.1149,-5.0331,-4.9939,-4.9906,-4.9978,-5.0025,-5.0108,-5.0182,-5.0224,-5.0149,-4.8869,-4.8105,-4.7578,-4.6039,-4.5295,-4.5297,-4.5277,-4.5277,-4.5277,-4.5277,-4.5277,-4.5258,-4.4934,-4.4265,-4.3367,-4.2641,-4.182,-4.0769,-4.0454,-4.032,-4.032,-4.032,-4.032,-4.032,-4.032,-4.032,-4.032,-4.032,-4.0014,-3.9508,-3.9202,-3.926,-3.969,-3.9556,-3.9785,-4.0263,-4.032,-4.032,-4.032,-4.032,-4.032,-4.032,-4.032,-4.032,-4.0435,-4.1036,-4.1858,-4.2717,-4.3529,-4.4369,-4.5125,-4.5277,-4.5277,-4.5277,-4.5277,-4.5359,-4.54,-4.5419,-4.5482,-4.5591,-4.5665,-4.5717,-4.5821,-4.5919,-4.6012,-4.6099,-4.6189,-4.6208,-4.6215,-4.6199,-4.6199,-4.6199,-4.6199,-4.6199,-4.5884,-4.491,-4.415,-4.362,-4.2724,-4.1711,-4.1344,-4.111,-4.1117,-4.1103,-4.1117,-4.1108,-4.1109,-4.1103,-4.1108,-4.1109,-4.1109,-4.1109,-4.1109,-4.1109,-4.1109,-4.1109,-4.1109,-4.1109,-5.3833,-5.4212,-5.4638,-5.4315,-5.3518,-5.2736,-5.1883,-5.1035,-5.0291,-4.9893,-4.9925,-4.9965,-5.0031,-5.0108,-5.0151,-5.0212,-5.0118,-4.9232,-4.8411,-4.7471,-4.6113,-4.5254,-4.5297,-4.5277,-4.5277,-4.5277,-4.5277,-4.5277,-4.5269,-4.4666,-4.4045,-4.3777,-4.2507,-4.1552,-4.1285,-4.0692,-4.032,-4.032,-4.032,-4.032,-4.032,-4.032,-4.032,-4.032,-4.0301,-4.0205,-3.99,-3.9336,-3.9011,-3.9126,-3.9794,-4.0205,-4.0301,-4.032,-4.032,-4.032,-4.032,-4.032,-4.032,-4.032,-4.0377,-4.0559,-4.1113,-4.1915,-4.287,-4.3643,-4.438,-4.5182,-4.5277,-4.5277,-4.5277,-4.5277,-4.5307,-4.5307,-4.5319,-4.5371,-4.5482,-4.5583,-4.5646,-4.5701,-4.5796,-4.5894,-4.5956,-4.6081,-4.6126,-4.6174,-4.6158,-4.6158,-4.6212,-4.6212,-4.6196,-4.567,-4.4949,-4.4462,-4.3994,-4.2763,-4.1848,-4.1672,-4.1341,-4.113,-4.112,-4.1112,-4.1106,-4.1107,-4.1101,-4.1106,-4.1109,-4.1109,-4.1109,-4.1109,-4.1109,-4.1109,-4.1109,-4.1109,-4.1109,-5.3833,-5.4229,-5.4638,-5.3997,-5.2836,-5.2532,-5.1589,-5.031,-5.0085,-4.992,-4.9906,-4.9906,-4.9992,-5.0095,-5.012,-5.0194,-4.9954,-4.8888,-4.8086,-4.7559,-4.6007,-4.5311,-4.5286,-4.5277,-4.5277,-4.5277,-4.5277,-4.5277,-4.5277,-4.501,-4.4628,-4.3968,-4.2985,-4.2087,-4.1495,-4.0731,-4.0339,-4.032,-4.032,-4.032,-4.032,-4.032,-4.032,-4.032,-4.032,-3.9986,-3.9431,-3.9126,-3.9011,-3.9069,-3.9852,-4.0301,-4.032,-4.032,-4.032,-4.032,-4.032,-4.032,-4.032,-4.032,-4.0549,-4.1113,-4.1399,-4.2125,-4.3558,-4.3873,-4.4437,-4.5067,-4.5277,-4.5277,-4.5277,-4.5277,-4.5277,-4.5277,-4.5277,-4.5328,-4.5351,-4.5371,-4.5438,-4.5537,-4.5602,-4.5676,-4.5756,-4.5828,-4.5908,-4.5963,-4.6013,-4.6084,-4.613,-4.6025,-4.5944,-4.5861,-4.5358,-4.489,-4.4189,-4.2939,-4.214,-4.2003,-4.1633,-4.1149,-4.1139,-4.1114,-4.1113,-4.1111,-4.1103,-4.1108,-4.1109,-4.1109,-4.1109,-4.1109,-4.1109,-4.1109,-4.1109,-4.1109,-4.1109,-5.3701,-5.3997,-5.4161,-5.3509,-5.2423,-5.2101,-5.1171,-5.0077,-4.9952,-4.992,-4.9893,-4.9893,-4.9978,-5.0076,-5.0108,-5.017,-5.0137,-4.9308,-4.8483,-4.7476,-4.5962,-4.5268,-4.5254,-4.5267,-4.5277,-4.5277,-4.5277,-4.5277,-4.5277,-4.5277,-4.4991,-4.4418,-4.3367,-4.2545,-4.2049,-4.0874,-4.032,-4.032,-4.032,-4.032,-4.032,-4.032,-4.032,-4.032,-4.0301,-3.9995,-3.9603,-3.9546,-3.9546,-3.9661,-4.0043,-4.032,-4.032,-4.032,-4.032,-4.032,-4.032,-4.032,-4.032,-4.032,-4.0683,-4.138,-4.1762,-4.2679,-4.3739,-4.4274,-4.4857,-4.5211,-4.5277,-4.5277,-4.5277,-4.5277,-4.5277,-4.5277,-4.5277,-4.5277,-4.5277,-4.5288,-4.5348,-4.54,-4.5466,-4.5518,-4.5599,-4.565,-4.5729,-4.5803,-4.5859,-4.5936,-4.5993,-4.5817,-4.5667,-4.5578,-4.5013,-4.4253,-4.398,-4.3003,-4.2581,-4.2425,-4.2003,-4.1477,-4.1142,-4.1098,-4.1115,-4.1109,-4.1103,-4.1108,-4.1108,-4.1108,-4.1109,-4.1109,-4.1109,-4.1109,-4.1109,-4.1109,-4.1109,-5.3506,-5.3684,-5.3433,-5.2964,-5.2237,-5.1471,-5.0648,-4.9919,-4.9811,-4.9838,-4.9866,-4.9893,-4.9992,-5.0114,-5.0139,-5.0182,-5.0283,-4.9729,-4.8663,-4.7282,-4.5875,-4.5181,-4.5203,-4.5265,-4.5286,-4.5297,-4.5277,-4.5277,-4.5277,-4.5277,-4.5277,-4.4838,-4.3673,-4.2947,-4.2431,-4.1237,-4.0492,-4.032,-4.032,-4.032,-4.032,-4.032,-4.032,-4.032,-4.032,-4.0301,-4.0225,-4.0225,-4.0225,-4.0282,-4.032,-4.032,-4.032,-4.032,-4.032,-4.032,-4.032,-4.032,-4.0358,-4.0435,-4.0845,-4.1648,-4.2488,-4.3271,-4.4131,-4.4819,-4.5182,-4.5277,-4.5277,-4.5277,-4.5277,-4.5277,-4.5277,-4.5277,-4.5277,-4.5277,-4.5277,-4.5277,-4.5277,-4.5288,-4.5419,-4.5466,-4.5519,-4.5585,-4.5654,-4.5669,-4.5713,-4.5757,-4.5807,-4.57,-4.5497,-4.5318,-4.4455,-4.33,-4.3199,-4.3082,-4.2976,-4.2866,-4.239,-4.187,-4.1245,-4.1103,-4.1115,-4.1109,-4.1099,-4.1104,-4.1104,-4.1106,-4.1108,-4.1109,-4.1109,-4.1109,-4.1109,-4.1109,-4.1109,-5.332,-5.3587,-5.3191,-5.2555,-5.1797,-5.1052,-5.0206,-4.9374,-4.9472,-4.964,-4.9802,-4.9925,-5.0018,-5.0127,-5.0158,-5.0212,-5.0023,-4.8972,-4.7384,-4.5851,-4.5521,-4.5224,-4.5213,-4.5233,-4.5235,-4.5267,-4.5277,-4.5277,-4.5277,-4.5277,-4.5277,-4.5105,-4.4246,-4.3414,-4.2679,-4.1762,-4.0903,-4.0435,-4.032,-4.032,-4.032,-4.032,-4.032,-4.032,-4.032,-4.032,-4.032,-4.032,-4.032,-4.032,-4.032,-4.032,-4.032,-4.032,-4.032,-4.032,-4.032,-4.032,-4.0416,-4.0864,-4.159,-4.2354,-4.3157,-4.4083,-4.4895,-4.5125,-4.5277,-4.5277,-4.5277,-4.5277,-4.5277,-4.5277,-4.5277,-4.5277,-4.5277,-4.5277,-4.5277,-4.5277,-4.5277,-4.5307,-4.5338,-4.5339,-4.5341,-4.538,-4.5457,-4.5519,-4.5569,-4.5615,-4.5585,-4.5512,-4.5297,-4.5043,-4.4369,-4.3462,-4.3729,-4.3763,-4.3808,-4.3522,-4.2999,-4.2491,-4.1847,-4.1103,-4.1113,-4.1105,-4.1117,-4.1099,-4.1117,-4.1103,-4.1104,-4.1106,-4.1108,-4.1104,-4.1103,-4.1106,-4.1104,-5.2667,-5.2881,-5.2131,-5.157,-5.115,-5.0404,-4.9706,-4.9225,-4.9318,-4.9476,-4.9625,-4.9838,-5.0018,-5.0127,-5.0163,-5.0071,-4.9373,-4.7995,-4.6751,-4.5859,-4.5467,-4.517,-4.5192,-4.5181,-4.5192,-4.5286,-4.5277,-4.5277,-4.5277,-4.5277,-4.5277,-4.522,-4.4427,-4.3558,-4.2794,-4.1934,-4.1094,-4.0454,-4.032,-4.032,-4.032,-4.032,-4.032,-4.032,-4.032,-4.032,-4.032,-4.032,-4.032,-4.032,-4.032,-4.032,-4.032,-4.032,-4.032,-4.032,-4.032,-4.032,-4.0492,-4.1055,-4.1839,-4.2737,-4.3548,-4.438,-4.5029,-4.5277,-4.5277,-4.5277,-4.5277,-4.5277,-4.5277,-4.5277,-4.5277,-4.5277,-4.5277,-4.5277,-4.5277,-4.5277,-4.5277,-4.5277,-4.5307,-4.5288,-4.5277,-4.5277,-4.5298,-4.5419,-4.5429,-4.5465,-4.5312,-4.5214,-4.4952,-4.4639,-4.4208,-4.3962,-4.4337,-4.4554,-4.4739,-4.4374,-4.379,-4.3311,-4.277,-4.1911,-4.1108,-4.1098,-4.1107,-4.1107,-4.1107,-4.1113,-4.1115,-4.1111,-4.1111,-4.1113,-4.1113,-4.1111,-4.1109,-5.1903,-5.2099,-5.0871,-5.0389,-5.0361,-4.9658,-4.919,-4.9006,-4.9206,-4.9384,-4.9521,-4.9816,-4.9999,-5.012,-5.0194,-4.9739,-4.8655,-4.7422,-4.6377,-4.5974,-4.5373,-4.5174,-4.517,-4.517,-4.52,-4.5286,-4.5277,-4.5277,-4.5277,-4.5277,-4.5277,-4.5144,-4.4427,-4.3605,-4.2794,-4.1915,-4.1094,-4.0416,-4.032,-4.032,-4.032,-4.032,-4.032,-4.032,-4.032,-4.032,-4.032,-4.032,-4.032,-4.032,-4.032,-4.032,-4.032,-4.032,-4.032,-4.032,-4.0454,-4.0616,-4.0845,-4.1476,-4.2374,-4.2985,-4.3768,-4.4494,-4.5125,-4.5277,-4.5277,-4.5277,-4.5277,-4.5277,-4.5277,-4.5277,-4.5277,-4.5277,-4.5277,-4.5277,-4.5277,-4.5277,-4.5277,-4.5277,-4.5277,-4.5277,-4.5277,-4.5277,-4.5277,-4.5297,-4.5307,-4.5281,-4.518,-4.5099,-4.4936,-4.4661,-4.4322,-4.4032,-4.4341,-4.4551,-4.4834,-4.4783,-4.4283,-4.3878,-4.3366,-4.2404,-4.1523,-4.1156,-4.1108,-4.1111,-4.1115,-4.11,-4.1098,-4.1113,-4.1115,-4.1103,-4.11,-4.1113,-4.1135,-5.158,-5.1754,-5.0241,-4.9599,-4.9506,-4.8882,-4.8641,-4.8695,-4.889,-4.9273,-4.9702,-4.9912,-5.0025,-5.0163,-5.0236,-4.9431,-4.7995,-4.6778,-4.6042,-4.56,-4.5205,-4.5181,-4.5181,-4.5181,-4.5233,-4.5286,-4.5277,-4.5277,-4.5277,-4.5277,-4.5277,-4.5125,-4.4513,-4.3682,-4.2889,-4.1953,-4.1304,-4.0587,-4.0435,-4.0435,-4.032,-4.032,-4.032,-4.032,-4.032,-4.032,-4.032,-4.032,-4.032,-4.032,-4.032,-4.032,-4.0396,-4.0396,-4.0377,-4.0435,-4.0883,-4.1151,-4.1323,-4.2622,-4.3452,-4.3968,-4.4513,-4.4972,-4.5239,-4.5277,-4.5277,-4.5277,-4.5277,-4.5277,-4.5277,-4.5277,-4.5277,-4.5277,-4.5277,-4.5277,-4.5277,-4.5277,-4.5277,-4.5277,-4.5277,-4.5277,-4.5277,-4.5277,-4.5277,-4.5277,-4.5307,-4.5307,-4.5254,-4.5266,-4.5275,-4.4958,-4.4584,-4.4341,-4.4233,-4.4388,-4.4573,-4.4708,-4.4421,-4.4114,-4.3513,-4.2631,-4.1969,-4.1563,-4.122,-4.1103,-4.1106,-4.1106,-4.1106,-4.1103,-4.1108,-4.1111,-4.1108,-4.1122,-4.1223,-5.106,-5.0458,-4.9756,-4.9282,-4.8914,-4.8624,-4.8439,-4.8326,-4.8587,-4.8906,-4.9265,-4.9565,-4.9868,-4.9999,-4.977,-4.8659,-4.7117,-4.6004,-4.5399,-4.5033,-4.5125,-4.5192,-4.5192,-4.5192,-4.5235,-4.5267,-4.5277,-4.5277,-4.5277,-4.5277,-4.5277,-4.522,-4.4819,-4.4265,-4.3558,-4.308,-4.2049,-4.1246,-4.0922,-4.0711,-4.0339,-4.032,-4.032,-4.032,-4.032,-4.032,-4.032,-4.032,-4.032,-4.032,-4.032,-4.054,-4.0788,-4.0883,-4.075,-4.0587,-4.1113,-4.1543,-4.1791,-4.3004,-4.3911,-4.4083,-4.4819,-4.5239,-4.5277,-4.5277,-4.5277,-4.5277,-4.5277,-4.5277,-4.5277,-4.5277,-4.5277,-4.5277,-4.5277,-4.5277,-4.5277,-4.5277,-4.5277,-4.5277,-4.5277,-4.5277,-4.5277,-4.5277,-4.5277,-4.5277,-4.5277,-4.5277,-4.5277,-4.5329,-4.539,-4.5207,-4.4882,-4.4777,-4.4595,-4.4651,-4.4696,-4.4732,-4.4658,-4.4365,-4.3963,-4.3208,-4.2463,-4.1873,-4.1564,-4.124,-4.1109,-4.1106,-4.1109,-4.1112,-4.1112,-4.1112,-4.1112,-4.1151,-4.129,-5.0292,-4.922,-4.9218,-4.8893,-4.8436,-4.8439,-4.8326,-4.8151,-4.8381,-4.866,-4.89,-4.9237,-4.9552,-4.9512,-4.8767,-4.755,-4.6019,-4.5248,-4.4919,-4.501,-4.5114,-4.5203,-4.5213,-4.5203,-4.5243,-4.5277,-4.5277,-4.5277,-4.5277,-4.5277,-4.5277,-4.5182,-4.5192,-4.4743,-4.4025,-4.351,-4.2813,-4.2259,-4.1724,-4.1342,-4.0731,-4.0377,-4.032,-4.032,-4.032,-4.032,-4.032,-4.032,-4.0454,-4.0549,-4.0664,-4.0941,-4.1609,-4.1753,-4.1437,-4.1055,-4.1571,-4.1915,-4.2412,-4.3386,-4.4418,-4.4456,-4.4914,-4.5201,-4.5277,-4.5277,-4.5277,-4.5277,-4.5277,-4.5277,-4.5277,-4.5277,-4.5277,-4.5277,-4.5277,-4.5277,-4.5277,-4.5277,-4.5277,-4.5277,-4.5277,-4.5277,-4.5277,-4.5277,-4.5277,-4.5277,-4.5277,-4.5277,-4.5277,-4.5277,-4.5319,-4.5309,-4.5203,-4.5203,-4.5148,-4.5131,-4.5132,-4.5102,-4.5002,-4.4754,-4.4403,-4.397,-4.3279,-4.2612,-4.1752,-4.1444,-4.1276,-4.1127,-4.1117,-4.11,-4.111,-4.111,-4.1117,-4.1331,-4.1587,-4.9097,-4.8883,-4.8218,-4.7936,-4.8004,-4.807,-4.817,-4.8267,-4.8419,-4.8749,-4.9102,-4.9215,-4.9207,-4.8644,-4.7214,-4.6392,-4.5811,-4.5174,-4.4819,-4.5007,-4.5117,-4.5192,-4.5246,-4.5233,-4.5224,-4.5256,-4.5297,-4.5277,-4.5277,-4.5277,-4.5277,-4.5182,-4.4704,-4.414,-4.4178,-4.3768,-4.2851,-4.2679,-4.2622,-4.2183,-4.1418,-4.0788,-4.053,-4.0454,-4.0473,-4.0549,-4.0626,-4.0664,-4.0788,-4.1323,-4.1361,-4.1781,-4.2469,-4.266,-4.2641,-4.2756,-4.3166,-4.3701,-4.3701,-4.4418,-4.4991,-4.4953,-4.522,-4.5277,-4.5277,-4.5277,-4.5277,-4.5277,-4.5277,-4.5277,-4.5277,-4.5277,-4.5277,-4.5277,-4.5277,-4.5277,-4.5277,-4.5277,-4.5277,-4.5277,-4.5277,-4.5277,-4.5277,-4.5277,-4.5277,-4.5277,-4.5277,-4.5277,-4.5277,-4.5277,-4.5277,-4.5277,-4.5277,-4.5277,-4.5288,-4.5339,-4.536,-4.538,-4.5237,-4.5083,-4.486,-4.4534,-4.4291,-4.3545,-4.2602,-4.1812,-4.1636,-4.1478,-4.1227,-4.1166,-4.126,-4.1205,-4.111,-4.1419,-4.1711,-4.8285,-4.8242,-4.846,-4.8307,-4.7986,-4.7972,-4.811,-4.8247,-4.8419,-4.8697,-4.904,-4.9243,-4.8819,-4.7786,-4.6266,-4.5335,-4.4923,-4.4543,-4.4503,-4.4777,-4.4912,-4.5068,-4.5148,-4.5159,-4.5162,-4.5235,-4.5265,-4.5275,-4.5286,-4.5277,-4.5277,-4.522,-4.4953,-4.4819,-4.4647,-4.438,-4.3959,-4.3539,-4.3061,-4.2641,-4.224,-4.1896,-4.1676,-4.1676,-4.1667,-4.1648,-4.1648,-4.1724,-4.1839,-4.224,-4.2221,-4.2622,-4.3252,-4.3539,-4.3654,-4.4246,-4.4494,-4.4465,-4.4178,-4.4857,-4.5163,-4.5277,-4.5277,-4.5277,-4.5277,-4.5277,-4.5277,-4.5277,-4.5277,-4.5277,-4.5277,-4.5277,-4.5277,-4.5277,-4.5277,-4.5277,-4.5277,-4.5277,-4.5277,-4.5277,-4.5277,-4.5277,-4.5277,-4.5277,-4.5277,-4.5277,-4.5277,-4.5277,-4.5277,-4.5277,-4.5277,-4.5277,-4.5277,-4.5277,-4.5277,-4.5298,-4.5309,-4.5319,-4.5319,-4.5207,-4.5236,-4.5036,-4.4735,-4.4412,-4.3659,-4.2923,-4.228,-4.1898,-4.171,-4.1575,-4.1432,-4.15,-4.1548,-4.1205,-4.1711,-4.7842,-4.7793,-4.8561,-4.8537,-4.7992,-4.7992,-4.807,-4.8207,-4.8304,-4.8513,-4.8636,-4.8602,-4.798,-4.6996,-4.5672,-4.4619,-4.4073,-4.4064,-4.4196,-4.4407,-4.4694,-4.4967,-4.5061,-4.5084,-4.5181,-4.5233,-4.5254,-4.5275,-4.5286,-4.5277,-4.5277,-4.5277,-4.522,-4.522,-4.5258,-4.5125,-4.4819,-4.4341,-4.3577,-4.3185,-4.3042,-4.2832,-4.2717,-4.2717,-4.2775,-4.2794,-4.2794,-4.2717,-4.2737,-4.308,-4.31,-4.3472,-4.4188,-4.438,-4.4551,-4.4953,-4.5144,-4.4972,-4.4743,-4.4953,-4.522,-4.5277,-4.5277,-4.5277,-4.5277,-4.5277,-4.5277,-4.5277,-4.5277,-4.5277,-4.5277,-4.5277,-4.5277,-4.5277,-4.5277,-4.5277,-4.5277,-4.5277,-4.5277,-4.5277,-4.5277,-4.5277,-4.5277,-4.5277,-4.5277,-4.5277,-4.5277,-4.5277,-4.5277,-4.5277,-4.5277,-4.5277,-4.5277,-4.5277,-4.5277,-4.5277,-4.5277,-4.5277,-4.5277,-4.5288,-4.53,-4.5243,-4.5044,-4.47,-4.4382,-4.3874,-4.3122,-4.2666,-4.2257,-4.2272,-4.2252,-4.2157,-4.2023,-4.1645,-4.1825,-4.7868,-4.7717,-4.7933,-4.8018,-4.7992,-4.7992,-4.807,-4.8187,-4.811,-4.8173,-4.8163,-4.7335,-4.6916,-4.6323,-4.5056,-4.4106,-4.4005,-4.4265,-4.4318,-4.4538,-4.4898,-4.4965,-4.5019,-4.5117,-4.5246,-4.5275,-4.5265,-4.5275,-4.5277,-4.5277,-4.5277,-4.5277,-4.5277,-4.5277,-4.5297,-4.5277,-4.5248,-4.4847,-4.4263,-4.3939,-4.371,-4.3414,-4.3042,-4.2966,-4.2889,-4.2813,-4.2813,-4.3023,-4.3329,-4.3902,-4.393,-4.4188,-4.4819,-4.4991,-4.5144,-4.522,-4.5277,-4.5163,-4.5125,-4.5125,-4.5239,-4.5277,-4.5277,-4.5277,-4.5277,-4.5277,-4.5277,-4.5277,-4.5277,-4.5277,-4.5277,-4.5277,-4.5277,-4.5277,-4.5277,-4.5277,-4.5277,-4.5277,-4.5277,-4.5277,-4.5277,-4.5277,-4.5277,-4.5277,-4.5277,-4.5277,-4.5277,-4.5277,-4.5277,-4.5277,-4.5277,-4.5277,-4.5277,-4.5277,-4.5277,-4.5277,-4.5277,-4.5277,-4.5277,-4.5277,-4.5288,-4.5231,-4.5203,-4.5032,-4.471,-4.4355,-4.4066,-4.3678,-4.3366,-4.3195,-4.3073,-4.2967,-4.2879,-4.2667,-4.2864,-4.7927,-4.7888,-4.7884,-4.7922,-4.7945,-4.799,-4.807,-4.8207,-4.8285,-4.8108,-4.781,-4.6805,-4.6108,-4.5454,-4.4476,-4.3699,-4.3716,-4.3777,-4.4053,-4.4318,-4.4552,-4.4752,-4.4869,-4.5042,-4.5136,-4.52,-4.5233,-4.5275,-4.5277,-4.5277,-4.5277,-4.5277,-4.5277,-4.5277,-4.5297,-4.5275,-4.5235,-4.5178,-4.4938,-4.4707,-4.4628,-4.4539,-4.4312,-4.4289,-4.4322,-4.4341,-4.438,-4.4341,-4.4532,-4.4685,-4.4762,-4.4991,-4.5201,-4.5258,-4.5277,-4.5277,-4.5277,-4.5277,-4.5277,-4.5277,-4.5277,-4.5277,-4.5277,-4.5277,-4.5277,-4.5277,-4.5277,-4.5277,-4.5277,-4.5277,-4.5277,-4.5277,-4.5277,-4.5277,-4.5277,-4.5277,-4.5277,-4.5277,-4.5277,-4.5277,-4.5277,-4.5277,-4.5277,-4.5277,-4.5277,-4.5277,-4.5277,-4.5277,-4.5277,-4.5277,-4.5277,-4.5277,-4.5277,-4.5277,-4.5277,-4.5277,-4.5277,-4.5277,-4.5277,-4.5277,-4.5277,-4.5277,-4.5231,-4.5125,-4.5086,-4.4842,-4.4691,-4.4624,-4.4301,-4.3763,-4.3682,-4.3776,-4.3693,-4.3534,-4.368,-4.7925,-4.7949,-4.7904,-4.7922,-4.7945,-4.799,-4.809,-4.8207,-4.8285,-4.8034,-4.7431,-4.6298,-4.5539,-4.4887,-4.4018,-4.3513,-4.3565,-4.3664,-4.3918,-4.4188,-4.443,-4.4623,-4.4893,-4.5084,-4.517,-4.5159,-4.5211,-4.5275,-4.5277,-4.5277,-4.5277,-4.5277,-4.5277,-4.5277,-4.5286,-4.5254,-4.5192,-4.5192,-4.517,-4.517,-4.5109,-4.5126,-4.5171,-4.511,-4.5114,-4.5105,-4.5086,-4.5048,-4.5086,-4.5182,-4.522,-4.5239,-4.5277,-4.5277,-4.5277,-4.5277,-4.5277,-4.5277,-4.5277,-4.5277,-4.5277,-4.5277,-4.5277,-4.5277,-4.5277,-4.5277,-4.5277,-4.5277,-4.5277,-4.5277,-4.5277,-4.5277,-4.5277,-4.5277,-4.5277,-4.5277,-4.5277,-4.5277,-4.5277,-4.5277,-4.5277,-4.5277,-4.5277,-4.5277,-4.5277,-4.5277,-4.5277,-4.5277,-4.5277,-4.5277,-4.5277,-4.5277,-4.5277,-4.5277,-4.5277,-4.5277,-4.5277,-4.5277,-4.5277,-4.5277,-4.5277,-4.5277,-4.5277,-4.522,-4.522,-4.5277,-4.5185,-4.4968,-4.4556,-4.406,-4.4225,-4.4495,-4.4063,-4.3892,-4.3939,-4.792,-4.792,-4.7902,-4.7945,-4.7972,-4.7992,-4.809,-4.8149,-4.8,-4.7662,-4.6983,-4.5498,-4.4886,-4.4755,-4.3873,-4.3533,-4.3548,-4.3747,-4.3971,-4.4091,-4.4379,-4.4663,-4.4887,-4.5042,-4.5159,-4.5256,-4.5286,-4.5286,-4.5277,-4.5277,-4.5277,-4.5277,-4.5277,-4.5277,-4.5297,-4.5224,-4.5203,-4.5192,-4.5148,-4.5159,-4.517,-4.5203,-4.5235,-4.5254,-4.5256,-4.5267,-4.5286,-4.5286,-4.5286,-4.5277,-4.5277,-4.5277,-4.5277,-4.5277,-4.5277,-4.5277,-4.5277,-4.5277,-4.5277,-4.5277,-4.5277,-4.5277,-4.5277,-4.5277,-4.5277,-4.5277,-4.5277,-4.5277,-4.5277,-4.5277,-4.5277,-4.5354,-4.5411,-4.5507,-4.5564,-4.5621,-4.566,-4.5564,-4.5621,-4.5354,-4.5277,-4.5277,-4.5277,-4.5277,-4.5277,-4.5277,-4.5277,-4.5297,-4.5297,-4.5277,-4.5277,-4.5277,-4.5277,-4.5277,-4.5277,-4.5277,-4.5277,-4.5277,-4.5277,-4.5277,-4.5277,-4.5277,-4.5277,-4.5277,-4.5277,-4.5277,-4.5277,-4.525,-4.4882,-4.4624,-4.4968,-4.5079,-4.4611,-4.4345,-4.4464,-4.7925,-4.7968,-4.7822,-4.7866,-4.7992,-4.7992,-4.8032,-4.7961,-4.7543,-4.6906,-4.6103,-4.5022,-4.4378,-4.404,-4.3801,-4.3479,-4.3513,-4.3548,-4.3716,-4.4036,-4.421,-4.4481,-4.4707,-4.49,-4.5068,-4.5222,-4.5275,-4.5267,-4.5277,-4.5277,-4.5277,-4.5277,-4.5277,-4.5277,-4.5267,-4.5224,-4.5192,-4.5192,-4.517,-4.5159,-4.514,-4.5203,-4.5243,-4.5192,-4.5213,-4.5235,-4.5254,-4.5246,-4.5275,-4.5297,-4.5277,-4.5277,-4.5277,-4.5277,-4.5277,-4.5277,-4.5277,-4.5277,-4.5277,-4.5277,-4.5277,-4.5277,-4.5277,-4.5297,-4.5297,-4.5297,-4.5277,-4.5335,-4.5392,-4.5392,-4.5277,-4.5889,-4.6118,-4.6309,-4.6405,-4.6481,-4.6481,-4.6252,-4.608,-4.5545,-4.5277,-4.5449,-4.5507,-4.5755,-4.5774,-4.5526,-4.5507,-4.5354,-4.5297,-4.5297,-4.5277,-4.5277,-4.5277,-4.5277,-4.5277,-4.5277,-4.5277,-4.5277,-4.5277,-4.5277,-4.5277,-4.5277,-4.5277,-4.5277,-4.5277,-4.5277,-4.5277,-4.5277,-4.5277,-4.5281,-4.5361,-4.5419,-4.51,-4.5007,-4.5175,-4.7886,-4.799,-4.7765,-4.7824,-4.799,-4.7992,-4.7992,-4.7866,-4.723,-4.6426,-4.5604,-4.4967,-4.4287,-4.3717,-4.3479,-4.3479,-4.3479,-4.3496,-4.3682,-4.3958,-4.3908,-4.4206,-4.449,-4.4661,-4.4795,-4.5007,-4.5129,-4.5151,-4.5277,-4.5277,-4.5277,-4.5277,-4.5277,-4.5277,-4.5267,-4.5235,-4.5192,-4.5192,-4.517,-4.514,-4.517,-4.5211,-4.5224,-4.5203,-4.5213,-4.5235,-4.5224,-4.5235,-4.5265,-4.5286,-4.5277,-4.5277,-4.5277,-4.5297,-4.5297,-4.5277,-4.5277,-4.5277,-4.5277,-4.5277,-4.5277,-4.5277,-4.5297,-4.5449,-4.5526,-4.5488,-4.5583,-4.5621,-4.5679,-4.5507,-4.5526,-4.6214,-4.6806,-4.6997,-4.7111,-4.7169,-4.715,-4.6901,-4.6653,-4.608,-4.5984,-4.6023,-4.6023,-4.6156,-4.6385,-4.6061,-4.5755,-4.5564,-4.5354,-4.5316,-4.5297,-4.5277,-4.5277,-4.5277,-4.5277,-4.5277,-4.5277,-4.5277,-4.5277,-4.5277,-4.5277,-4.5277,-4.5277,-4.5277,-4.5277,-4.5277,-4.5277,-4.5277,-4.5277,-4.5277,-4.5298,-4.537,-4.5438,-4.5457,-4.5491,-4.7827,-4.7951,-4.7783,-4.7824,-4.7972,-4.7992,-4.7992,-4.7901,-4.7135,-4.6349,-4.5566,-4.4949,-4.4268,-4.3608,-4.3479,-4.3479,-4.3479,-4.3479,-4.3666,-4.3828,-4.3777,-4.4084,-4.4231,-4.4365,-4.4525,-4.4676,-4.4819,-4.491,-4.5194,-4.5106,-4.5117,-4.5235,-4.5173,-4.5235,-4.5235,-4.5265,-4.5213,-4.5203,-4.5192,-4.5181,-4.5222,-4.5222,-4.5243,-4.5235,-4.5246,-4.5256,-4.5256,-4.5275,-4.5286,-4.5297,-4.5277,-4.5277,-4.5297,-4.5297,-4.5267,-4.5267,-4.5246,-4.5277,-4.5277,-4.5277,-4.5277,-4.5297,-4.543,-4.5812,-4.6003,-4.5889,-4.6003,-4.6328,-4.6538,-4.6003,-4.5736,-4.6596,-4.7417,-4.7551,-4.7665,-4.7704,-4.7723,-4.754,-4.7311,-4.7131,-4.7264,-4.7283,-4.7196,-4.7253,-4.6863,-4.6577,-4.6233,-4.5831,-4.5621,-4.5335,-4.5316,-4.5277,-4.5277,-4.5277,-4.5277,-4.5277,-4.5277,-4.5277,-4.5277,-4.5277,-4.5277,-4.5277,-4.5277,-4.5277,-4.5277,-4.5277,-4.5277,-4.5277,-4.5277,-4.5277,-4.5277,-4.5298,-4.537,-4.535,-4.5361,-4.7951,-4.7972,-4.7783,-4.7824,-4.7992,-4.7992,-4.7992,-4.7882,-4.7153,-4.6349,-4.5548,-4.4967,-4.4251,-4.3551,-4.3479,-4.3479,-4.3479,-4.3496,-4.3531,-4.3597,-4.3647,-4.3841,-4.3983,-4.4106,-4.426,-4.4411,-4.4533,-4.4604,-4.463,-4.4662,-4.4801,-4.4898,-4.491,-4.5042,-4.5203,-4.5286,-4.5265,-4.5265,-4.5243,-4.5254,-4.5246,-4.5265,-4.5265,-4.5235,-4.5235,-4.5235,-4.5254,-4.5254,-4.5265,-4.5297,-4.5297,-4.5277,-4.5277,-4.5098,-4.4946,-4.4969,-4.5121,-4.5277,-4.5277,-4.5277,-4.5316,-4.5507,-4.5793,-4.6175,-4.6366,-4.6481,-4.6596,-4.7073,-4.7379,-4.6959,-4.6825,-4.7436,-4.7761,-4.7742,-4.8105,-4.8667,-4.8659,-4.8449,-4.82,-4.7998,-4.8162,-4.8105,-4.8056,-4.7654,-4.7283,-4.7054,-4.6729,-4.629,-4.5831,-4.5545,-4.5335,-4.5297,-4.5277,-4.5277,-4.5277,-4.5277,-4.5277,-4.5277,-4.5277,-4.5277,-4.5277,-4.5277,-4.5277,-4.5277,-4.5277,-4.5277,-4.5277,-4.5277,-4.5277,-4.5277,-4.5277,-4.5277,-4.5277,-4.5277,-4.5277,-4.797,-4.7972,-4.7783,-4.7622,-4.744,-4.7151,-4.7042,-4.6968,-4.682,-4.6183,-4.5165,-4.4785,-4.4251,-4.3571,-4.3479,-4.3479,-4.3479,-4.3479,-4.3513,-4.3496,-4.348,-4.3617,-4.3732,-4.3763,-4.3921,-4.4132,-4.4318,-4.443,-4.436,-4.4355,-4.4493,-4.463,-4.4604,-4.4795,-4.4969,-4.5087,-4.5184,-4.5246,-4.5277,-4.5277,-4.5277,-4.5277,-4.5256,-4.5235,-4.5243,-4.5243,-4.5243,-4.5243,-4.5265,-4.5297,-4.5277,-4.5205,-4.5143,-4.4891,-4.4934,-4.4992,-4.5173,-4.5277,-4.5277,-4.5277,-4.5449,-4.5774,-4.6233,-4.6863,-4.7207,-4.7417,-4.7723,-4.8086,-4.8124,-4.8143,-4.82,-4.8239,-4.8009,-4.7799,-4.8735,-4.971,-4.9614,-4.9423,-4.9156,-4.8869,-4.8774,-4.8697,-4.8468,-4.8067,-4.7857,-4.7895,-4.7494,-4.6787,-4.6194,-4.564,-4.5411,-4.5297,-4.5277,-4.5277,-4.5277,-4.5277,-4.5277,-4.5277,-4.5277,-4.5277,-4.5277,-4.5277,-4.5277,-4.5277,-4.5277,-4.5277,-4.5277,-4.5277,-4.5277,-4.5277,-4.5277,-4.5277,-4.5277,-4.5277,-4.5277,-4.7927,-4.7972,-4.7713,-4.7257,-4.665,-4.6038,-4.56,-4.5467,-4.6047,-4.5706,-4.4618,-4.4547,-4.4198,-4.3608,-4.3479,-4.3479,-4.3479,-4.3479,-4.3479,-4.3479,-4.3445,-4.3515,-4.3497,-4.3375,-4.3615,-4.3889,-4.4042,-4.4053,-4.4231,-4.4202,-4.4158,-4.4346,-4.4346,-4.4479,-4.4701,-4.4758,-4.4893,-4.5125,-4.5106,-4.5076,-4.5246,-4.5277,-4.5277,-4.5277,-4.5277,-4.5297,-4.5297,-4.5277,-4.5277,-4.5277,-4.5256,-4.5132,-4.4868,-4.4903,-4.5045,-4.5034,-4.5109,-4.5235,-4.5235,-4.5216,-4.5704,-4.6116,-4.6615,-4.7474,-4.7952,-4.8124,-4.8411,-4.8945,-4.9079,-4.8735,-4.8659,-4.9041,-4.9041,-4.8735,-4.9117,-4.9633,-4.9595,-4.9633,-4.9786,-4.9557,-4.9423,-4.9366,-4.9347,-4.8965,-4.8258,-4.8563,-4.7742,-4.6806,-4.6557,-4.5851,-4.5602,-4.5392,-4.5297,-4.5297,-4.5277,-4.5277,-4.5277,-4.5277,-4.5277,-4.5277,-4.5277,-4.5277,-4.5277,-4.5277,-4.5277,-4.5277,-4.5277,-4.5277,-4.5277,-4.5277,-4.5277,-4.5277,-4.5277,-4.5277,-4.5277,-4.7947,-4.7852,-4.7254,-4.689,-4.6613,-4.5911,-4.5125,-4.4462,-4.4605,-4.463,-4.4436,-4.4455,-4.4198,-4.3571,-4.3479,-4.3479,-4.3479,-4.3479,-4.3479,-4.3479,-4.3463,-4.3463,-4.3462,-4.3393,-4.3445,-4.3445,-4.3529,-4.3629,-4.3761,-4.3779,-4.3795,-4.3949,-4.3962,-4.411,-4.4397,-4.443,-4.4584,-4.4864,-4.4695,-4.4838,-4.514,-4.5246,-4.5277,-4.5297,-4.5297,-4.5297,-4.5297,-4.5297,-4.5297,-4.5277,-4.5277,-4.5,-4.4546,-4.4941,-4.4941,-4.4733,-4.4862,-4.5034,-4.5136,-4.5179,-4.5624,-4.6473,-4.7147,-4.8036,-4.8602,-4.8716,-4.906,-4.9652,-4.9805,-4.9366,-4.9213,-4.9691,-4.9996,-4.9671,-4.9404,-4.95,-4.9576,-4.9901,-5.0264,-5.0187,-5.0054,-5.0034,-5.0015,-4.9614,-4.8984,-4.7933,-4.6577,-4.5851,-4.6309,-4.6061,-4.5927,-4.5698,-4.5373,-4.5316,-4.5297,-4.5277,-4.5277,-4.5277,-4.5277,-4.5277,-4.5277,-4.5277,-4.5277,-4.5277,-4.5277,-4.5277,-4.5277,-4.5277,-4.5277,-4.5277,-4.5277,-4.5277,-4.5277,-4.5277,-4.5277,-4.7968,-4.7756,-4.6729,-4.6218,-4.5979,-4.5,-4.416,-4.3645,-4.357,-4.3685,-4.3852,-4.3908,-4.3796,-4.3497,-4.3479,-4.3479,-4.3479,-4.3479,-4.3479,-4.3479,-4.3479,-4.3479,-4.3463,-4.3429,-4.3446,-4.3411,-4.334,-4.341,-4.3497,-4.3464,-4.3531,-4.3614,-4.3629,-4.3777,-4.4057,-4.4102,-4.4188,-4.4438,-4.4194,-4.4392,-4.4819,-4.491,-4.5076,-4.5129,-4.5224,-4.5243,-4.5243,-4.5213,-4.517,-4.5042,-4.4929,-4.4898,-4.4682,-4.4887,-4.4795,-4.4643,-4.4669,-4.4831,-4.4926,-4.5174,-4.5622,-4.6649,-4.7646,-4.8523,-4.9469,-4.9614,-4.9633,-5.0149,-5.0168,-4.9786,-4.9767,-5.013,-5.013,-4.992,-4.9901,-4.9958,-4.9977,-5.0111,-5.0283,-5.0264,-5.0187,-5.0187,-5.0034,-4.9538,-4.9003,-4.8735,-4.7111,-4.6405,-4.6615,-4.6557,-4.6347,-4.6061,-4.5774,-4.5411,-4.5297,-4.5277,-4.5277,-4.5277,-4.5277,-4.5277,-4.5277,-4.5277,-4.5277,-4.5277,-4.5277,-4.5277,-4.5277,-4.5277,-4.5277,-4.5277,-4.5277,-4.5277,-4.5277,-4.5277,-4.5277,-4.7895,-4.7541,-4.6239,-4.5528,-4.516,-4.3852,-4.3141,-4.2955,-4.2937,-4.3049,-4.3269,-4.3287,-4.334,-4.3427,-4.3479,-4.3479,-4.3479,-4.3479,-4.3479,-4.3479,-4.3479,-4.3479,-4.3463,-4.3446,-4.3429,-4.3411,-4.3394,-4.3496,-4.3647,-4.3496,-4.3394,-4.3376,-4.3429,-4.3497,-4.3629,-4.3693,-4.3772,-4.394,-4.3906,-4.3949,-4.4157,-4.4373,-4.4688,-4.4941,-4.5095,-4.5125,-4.5136,-4.5114,-4.5045,-4.49,-4.4732,-4.4649,-4.4695,-4.4782,-4.4669,-4.4552,-4.4552,-4.4617,-4.471,-4.512,-4.6035,-4.7076,-4.8024,-4.8933,-4.9821,-5.0155,-5.0174,-5.0205,-5.0224,-5.029,-5.0283,-5.0264,-5.0225,-5.0206,-5.0264,-5.0302,-5.0283,-5.0264,-5.0283,-5.0302,-5.0302,-5.0302,-4.9996,-4.9511,-4.9148,-4.8938,-4.8563,-4.8124,-4.7674,-4.7379,-4.7131,-4.671,-4.6309,-4.5927,-4.5564,-4.5277,-4.5277,-4.5277,-4.5277,-4.5277,-4.5277,-4.5277,-4.5277,-4.5277,-4.5277,-4.5277,-4.5277,-4.5277,-4.5277,-4.5277,-4.5277,-4.5277,-4.5277,-4.5277,-4.5277,-4.7609,-4.6931,-4.6099,-4.5332,-4.4546,-4.3597,-4.3087,-4.2938,-4.2919,-4.3013,-4.3178,-4.3214,-4.3304,-4.3479,-4.3479,-4.3479,-4.3479,-4.3479,-4.3479,-4.3479,-4.3479,-4.3479,-4.348,-4.3428,-4.3358,-4.3358,-4.3376,-4.3446,-4.3531,-4.3464,-4.334,-4.3251,-4.3233,-4.3251,-4.3215,-4.3286,-4.3428,-4.3618,-4.3621,-4.3587,-4.4029,-4.4233,-4.4419,-4.4593,-4.4733,-4.4929,-4.5072,-4.5136,-4.5049,-4.4979,-4.4814,-4.4584,-4.4538,-4.4612,-4.4578,-4.4299,-4.4299,-4.4524,-4.4702,-4.5133,-4.6061,-4.7055,-4.7908,-4.8671,-4.9363,-4.9811,-4.9857,-4.9942,-5.0025,-5.0236,-5.0259,-5.0271,-5.0264,-5.0264,-5.0302,-5.0302,-5.0283,-5.0283,-5.0302,-5.0302,-5.0302,-5.0283,-5.0225,-4.9691,-4.9167,-4.8888,-4.8506,-4.8105,-4.8056,-4.7941,-4.7922,-4.7532,-4.7073,-4.6577,-4.6271,-4.5449,-4.5277,-4.5277,-4.5277,-4.5277,-4.5277,-4.5277,-4.5277,-4.5277,-4.5277,-4.5277,-4.5277,-4.5277,-4.5277,-4.5277,-4.5277,-4.5277,-4.5297,-4.5277,-4.5277]},{"header":{"parameterUnit":"m.s-1","parameterCategory":1,"la1":31.0,"la2":29.5877,"lo1":-88.7671,"lo2":-86.6584,"dy":0.0162,"dx":0.0185,"nx":115,"ny":88,"refTime":"2026-04-25T00:00:00:Z","depth":0,"parameterNumber":3,"parameterNumberName":"V-component_of_WINDS"},"data":[0.0,0.0,0.0,0.0,0.0,0.0,0.0,0.0,0.0,0.0,0.0,0.0,0.0,0.0,0.0,0.0,0.0,0.0,0.0,0.0,0.0,0.0,0.0,0.0,0.0,0.0,0.0,0.0,0.0,0.0,0.0,0.0,0.0,0.0,0.0,0.0,0.0,0.0,0.0,0.0,0.0,0.0,0.0,0.0,0.0,0.0,0.0,0.0,0.0,0.0,0.0,0.0,0.0,0.0,0.0,0.0,0.0,0.0,0.0,0.0,0.0,0.0,0.0,0.0,0.0,0.0,0.0,0.0,0.0,0.0,0.0,0.0,0.0,0.0,0.0,0.0,0.0,0.0,0.0,0.0,0.0,0.0,0.0,0.0,0.0,0.0,0.0,0.0,0.0,0.0,0.0,0.0,0.0,0.0,0.0,0.0,0.0,0.0,0.0,0.0,0.0,0.0,0.0,0.0,0.0,0.0,0.0,0.0,0.0,0.0,0.0,0.0,0.0,0.0,0.0,0.0,0.0,0.0,0.0,0.0,0.0,0.0,0.0,0.0,0.0,0.0,0.0,0.0,0.0,0.0,0.0,0.0,0.0,0.0,0.0,0.0,0.0,0.0,0.0,0.0,0.0,0.0,0.0,0.0,0.0,0.0,0.0,0.0,0.0,0.0,0.0,0.0,0.0,0.0,0.0,0.0,0.0,0.0,0.0,0.0,0.0,0.0,0.0,0.0,0.0,0.0,0.0,0.0,0.0,0.0,0.0,0.0,0.0,0.0,0.0,0.0,0.0,0.0,0.0,0.0,0.0,0.0,0.0,0.0,0.0,0.0,0.0,0.0,0.0,0.0,0.0,0.0,0.0,0.0,0.0,0.0,0.0,0.0,0.0,0.0,0.0,0.0,0.0,0.0,0.0,0.0,0.0,0.0,0.0,0.0,0.0,0.0,0.0,0.0,0.0,0.0,0.0,0.0,0.0,0.0,0.0,0.0,0.0,0.0,0.0,0.0,0.0,0.0,0.0,0.0,0.0,0.0,0.0,0.0,0.0,0.0,0.0,0.0,0.0,0.0,0.0,0.0,0.0,0.0,0.0,0.0,0.0,0.0,0.0,0.0,0.0,0.0,0.0,0.0,0.0,0.0,0.0,0.0,0.0,0.0,0.0,0.0,0.0,0.0,0.0,0.0,0.0,0.0,0.0,0.0,0.0,0.0,0.0,0.0,0.0,0.0,0.0,0.0,0.0,0.0,0.0,0.0,0.0,0.0,0.0,0.0,0.0,0.0,0.0,0.0,0.0,0.0,0.0,0.0,0.0,0.0,0.0,0.0,0.0,0.0,0.0,0.0,0.0,0.0,0.0,0.0,0.0,0.0,0.0,0.0,0.0,0.0,0.0,0.0,0.0,0.0,0.0,0.0,0.0,0.0,0.0,0.0,0.0,0.0,0.0,0.0,0.0,0.0,0.0,0.0,0.0,0.0,0.0,0.0,0.0,0.0,0.0,0.0,0.0,0.0,0.0,0.0,0.0,0.0,0.0,0.0,0.0,0.0,0.0,0.0,0.0,0.0,0.0,0.0,0.0,0.0,0.0,0.0,0.0,0.0,0.0,0.0,0.0,0.0,0.0,0.0,0.0,0.0,0.0,0.0,0.0,0.0,0.0,0.0,0.0,0.0,0.0,0.0,0.0,0.0,0.0,0.0,0.0,0.0,0.0,0.0,0.0,0.0,0.0,0.0,0.0,0.0,0.0,0.0,0.0,0.0,0.0,0.0,0.0,0.0,0.0,0.0,0.0,0.0,0.0,0.0,0.0,0.0,0.0,0.0,0.0,0.0,0.0,0.0,0.0,0.0,0.0,0.0,0.0,0.0,0.0,0.0,0.0,0.0,0.0,0.0,0.0,0.0,0.0,0.0,0.0,0.0,0.0,0.0,0.0,0.0,0.0,0.0,0.0,0.0,0.0,0.0,0.0,0.0,0.0,0.0,0.0,0.0,0.0,0.0,0.0,0.0,0.0,0.0,0.0,0.0,0.0,0.0,0.0,0.0,0.0,0.0,0.0,0.0,0.0,0.0,0.0,0.0,0.0,0.0,0.0,0.0,0.0,0.0,0.0,0.0,0.0,0.0,0.0,0.0,0.0,0.0,0.0,0.0,0.0,0.0,0.0,0.0,0.0,0.0,0.0,0.0,0.0,0.0,0.0,0.0,0.0,0.0,0.0,0.0,0.0,0.0,0.0,0.0,0.0,0.0,0.0,0.0,0.0,0.0,0.0,0.0,0.0,0.0,0.0,0.0,0.0,0.0,0.0,0.0,0.0,0.0,0.0,0.0,0.0,0.0,0.0,0.0,0.0,0.0,0.0,0.0,0.0,0.0,0.0,0.0,0.0,0.0,0.0,0.0,0.0,0.0,0.0,0.0,0.0,0.0,0.0,0.0,0.0,0.0,0.0,0.0,0.0,0.0,0.0,0.0,0.0,0.0,0.0,0.0,0.0,0.0,0.0,0.0,0.0,0.0,0.0,0.0,0.0,0.0,0.0,0.0,0.0,0.0,0.0,0.0,0.0,0.0,0.0,0.0,0.0,0.0,0.0,0.0,0.0,0.0,0.0,0.0,0.0,0.0,0.0,0.0,0.0,0.0,0.0,0.0,0.0,0.0,0.0,0.0,0.0,0.0,0.0,0.0,0.0,0.0,0.0,0.0,0.0,0.0,0.0,0.0,0.0,0.0,0.0,0.0,0.0,0.0,0.0,0.0,0.0,0.0,0.0,0.0,0.0,0.0,0.0,0.0,0.0,0.0,0.0,0.0,0.0,0.0,0.0,0.0,0.0,0.0,0.0,0.0,0.0,0.0,0.0,0.0,0.0,0.0,0.0,0.0,0.0,0.0,0.0,0.0,0.0,0.0,0.0,0.0,0.0,0.0,0.0,0.0,0.0,0.0,0.0,0.0,0.0,0.0,0.0,0.0,0.0,0.0,0.0,0.0,0.0,0.0,0.0,0.0,0.0,0.0,0.0,0.0,0.0,0.0,0.0,0.0,0.0,0.0,0.0,0.0,0.0,0.0,0.0,0.0,0.0,0.0,0.0,0.0,0.0,0.0,0.0,0.0,0.0,0.0,0.0,0.0,0.0,0.0,0.0,0.0,0.0,0.0,0.0,0.0,0.0,0.0,0.0,0.0,0.0,0.0,0.0,0.0,0.0,0.0,0.0,0.0,0.0,0.0,0.0,0.0,0.0,0.0,0.0,0.0,0.0,0.0,0.0,0.0,0.0,0.0,0.0,0.0,0.0,0.0,0.0,0.0,0.0,0.0,0.0,0.0,0.0,0.0,0.0,0.0,0.0,0.0,0.0,0.0,0.0,0.0,0.0,0.0,0.0,0.0,0.0,0.0,0.0,0.0,0.0,0.0,0.0,0.0,0.0,0.0,0.0,0.0,0.0,0.0,0.0,0.0,0.0,0.0,0.0,0.0,0.0,0.0,0.0,0.0,0.0,0.0,0.0,0.0,0.0,0.0,0.0,0.0,0.0,0.0,0.0,0.0,0.0,0.0,0.0,0.0,0.0,0.0,0.0,0.0,0.0,0.0,0.0,0.0,0.0,0.0,0.0,0.0,0.0,0.0,0.0,0.0,0.0,0.0,0.0,0.0,0.0,0.0,0.0,0.0,0.0,0.0,0.0,0.0,0.0,0.0,0.0,0.0,0.0,0.0,0.0,0.0,0.0,0.0,0.0,0.0,0.0,0.0,0.0,0.0,0.0,0.0,0.0,0.0,0.0,0.0,0.0,0.0,0.0,0.0,0.0,0.0,0.0,0.0,0.0,0.0,0.0,0.0,0.0,0.0,0.0,0.0,0.0,0.0,0.0,0.0,0.0,0.0,0.0,0.0,0.0,0.0,0.0,0.0,0.0,0.0,0.0,0.0,0.0,0.0,0.0,0.0,0.0,0.0,0.0,0.0,0.0,0.0,0.0,0.0,0.0,0.0,0.0,0.0,0.0,0.0,0.0,0.0,0.0,0.0,0.0,0.0,0.0,0.0,0.0,0.0,0.0,0.0,0.0,0.0,0.0,0.0,0.0,0.0,0.0,0.0,0.0,0.0,0.0,0.0,0.0,0.0,0.0,0.0,0.0,0.0,0.0,0.0,0.0,0.0,0.0,0.0,0.0,0.0,0.0,0.0,0.0,0.0,0.0,0.0,0.0,0.0,0.0,0.0,0.0,0.0,0.0,0.0,0.0,0.0,0.0,0.0,0.0,0.0,0.0,0.0,0.0,0.0,0.0,0.0,-0.8316,0.0,0.0,0.0,0.0,0.0,0.0,0.0,0.0,0.0,0.0,0.0,0.0,0.0,0.0,0.0,0.0,0.0,0.0,0.0,0.0,0.0,0.0,0.0,0.0,0.0,0.0,0.0,0.0,0.0,0.0,0.0,0.0,0.0,0.0,0.0,0.0,0.0,0.0,0.0,0.0,0.0,0.0,0.0,0.0,0.0,0.0,0.0,0.0,0.0,0.0,0.0,0.0,0.0,0.0,0.0,0.0,0.0,0.0,0.0,0.0,0.0,0.0,0.0,0.0,0.0,0.0,0.0,0.0,0.0,0.0,0.0,0.0,0.0,0.0,0.0,0.0,0.0,0.0,0.0,0.0,0.0,0.0,0.0,0.0,0.0,0.0,0.0,0.0,0.0,0.0,0.0,0.0,0.0,0.0,0.0,0.0,0.0,0.0,0.0,0.0,0.0,0.0,0.0,0.0,0.0,0.0,0.0,0.0,0.0,0.0,-0.6743,-0.8224,-0.8345,-0.8439,-0.8429,0.0,0.0,0.0,0.0,0.0,0.0,0.0,0.0,0.0,0.0,0.0,0.0,0.0,0.0,0.0,0.0,0.0,0.0,0.0,0.0,0.0,0.0,0.0,0.0,0.0,0.0,0.0,0.0,0.0,0.0,0.0,0.0,0.0,0.0,0.0,0.0,0.0,0.0,0.0,0.0,0.0,0.0,0.0,0.0,0.0,0.0,0.0,0.0,0.0,0.0,0.0,0.0,0.0,0.0,0.0,0.0,0.0,0.0,0.0,0.0,0.0,0.0,0.0,0.0,0.0,0.0,0.0,0.0,0.0,0.0,0.0,0.0,0.0,0.0,0.0,0.0,0.0,0.0,0.0,0.0,0.0,0.0,0.0,0.0,0.0,0.0,0.0,0.0,0.0,0.0,0.0,0.0,0.0,0.0,0.0,0.0,0.0,0.0,0.0,0.0,0.0,0.0,0.0,0.0,0.0,0.0,0.0,0.0,0.0,0.0,0.0,0.0,-0.8502,-0.8531,-0.8479,0.0,0.0,0.0,0.0,0.0,0.0,0.0,0.0,0.0,0.0,0.0,0.0,0.0,0.0,0.0,0.0,0.0,0.0,0.0,0.0,0.0,0.0,0.0,0.0,0.0,0.0,0.0,0.0,0.0,0.0,0.0,0.0,0.0,0.0,0.0,0.0,0.0,0.0,0.0,0.0,0.0,0.0,0.0,0.0,0.0,0.0,0.0,0.0,0.0,0.0,0.0,0.0,0.0,0.0,0.0,0.0,0.0,0.0,0.0,0.0,0.0,0.0,0.0,0.0,0.0,0.0,0.0,0.0,0.0,0.0,0.0,0.0,0.0,0.0,0.0,0.0,0.0,0.0,0.0,0.0,0.0,0.0,0.0,0.0,0.0,0.0,0.0,0.0,0.0,0.0,0.0,0.0,0.0,0.0,0.0,0.0,0.0,0.0,0.0,0.0,0.0,0.0,0.0,0.0,0.0,0.0,0.0,0.0,0.0,0.0,-0.7394,-0.8043,-0.8492,0.0,-0.8513,0.0,0.0,0.0,0.0,0.0,0.0,0.0,0.0,0.0,0.0,0.0,0.0,0.0,0.0,0.0,0.0,0.0,0.0,0.0,0.0,0.0,0.0,0.0,0.0,0.0,0.0,0.0,0.0,0.0,0.0,0.0,0.0,0.0,0.0,0.0,0.0,0.0,0.0,0.0,0.0,0.0,0.0,0.0,0.0,0.0,0.0,0.0,0.0,0.0,0.0,0.0,0.0,0.0,0.0,0.0,0.0,0.0,0.0,0.0,0.0,0.0,0.0,0.0,0.0,0.0,0.0,0.0,0.0,0.0,0.0,0.0,0.0,0.0,0.0,0.0,0.0,0.0,0.0,0.0,0.0,0.0,0.0,0.0,0.0,0.0,0.0,0.0,0.0,0.0,0.0,0.0,0.0,0.0,0.0,0.0,0.0,0.0,0.0,0.0,0.0,0.0,0.0,0.0,0.0,0.0,0.0,0.0,0.0,0.0,0.0,-0.7619,-0.7971,-0.8351,-0.852,0.0,0.0,0.0,0.0,0.0,0.0,0.0,0.0,0.0,0.0,0.0,0.0,0.0,0.0,0.0,0.0,0.0,0.0,0.0,0.0,0.0,0.0,0.0,0.0,0.0,0.0,0.0,0.0,0.0,0.0,0.0,0.0,0.0,0.0,0.0,0.0,0.0,0.0,0.0,0.0,0.0,0.0,0.0,0.0,0.0,0.0,0.0,0.0,0.0,0.0,0.0,0.0,0.0,0.0,0.0,0.0,0.0,0.0,0.0,0.0,0.0,0.0,0.0,0.0,0.0,0.0,0.0,0.0,0.0,0.0,0.0,0.0,0.0,0.0,0.0,0.0,0.0,0.0,0.0,0.0,0.0,0.0,0.0,0.0,0.0,0.0,0.0,0.0,0.0,0.0,0.0,0.0,0.0,0.0,0.0,0.0,0.0,0.0,0.0,0.0,0.0,0.0,0.0,0.0,0.0,0.0,0.0,0.0,0.0,0.0,-0.7158,-0.7686,-0.8122,-0.8371,-0.8511,-0.8438,0.0,0.0,0.0,0.0,0.0,0.0,0.0,0.0,0.0,0.0,0.0,0.0,0.0,0.0,0.0,0.0,0.0,0.0,0.0,0.0,0.0,0.0,0.0,0.0,0.0,0.0,0.0,0.0,0.0,0.0,0.0,0.0,0.0,0.0,0.0,0.0,0.0,0.0,0.0,0.0,0.0,0.0,0.0,0.0,0.0,0.0,0.0,0.0,0.0,0.0,0.0,0.0,0.0,0.0,0.0,0.0,0.0,0.0,0.0,0.0,0.0,0.0,0.0,0.0,0.0,0.0,0.0,0.0,0.0,0.0,0.0,0.0,0.0,0.0,0.0,0.0,0.0,0.0,0.0,0.0,0.0,0.0,0.0,0.0,0.0,0.0,0.0,0.0,0.0,0.0,0.0,0.0,0.0,0.0,0.0,0.0,0.0,0.0,0.0,0.0,0.0,0.0,0.0,0.0,0.0,0.0,0.0,0.0,0.0,-0.6807,-0.7667,-0.8509,-0.8685,-0.8653,0.0,0.0,0.0,0.0,0.0,0.0,0.0,0.0,0.0,0.0,0.0,0.0,0.0,0.0,0.0,0.0,0.0,0.0,0.0,0.0,0.0,0.0,0.0,0.0,0.0,0.0,0.0,0.0,0.0,0.0,0.0,0.0,0.0,0.0,0.0,0.0,0.0,0.0,0.0,0.0,0.0,0.0,0.0,0.0,0.0,0.0,0.0,0.0,0.0,0.0,0.0,0.0,0.0,0.0,0.0,0.0,0.0,0.0,0.0,0.0,0.0,0.0,0.0,0.0,0.0,0.0,0.0,0.0,0.0,0.0,0.0,0.0,0.0,0.0,0.0,0.0,0.0,0.0,0.0,0.0,0.0,0.0,0.0,0.0,0.0,0.0,0.0,0.0,0.0,0.0,0.0,0.0,0.0,0.0,0.0,0.0,0.0,0.0,0.0,0.0,0.0,0.0,0.0,0.0,0.0,0.0,0.0,0.0,0.0,-0.6278,-0.6911,-0.7786,-0.898,-0.8372,-0.8186,0.0,0.0,0.0,0.0,0.0,0.0,0.0,0.0,0.0,0.0,0.0,0.0,0.0,0.0,0.0,0.0,0.0,0.0,0.0,0.0,0.0,0.0,0.0,0.0,0.0,0.0,0.0,0.0,0.0,0.0,0.0,0.0,0.0,0.0,0.0,0.0,0.0,0.0,0.0,0.0,0.0,0.0,0.0,0.0,0.0,0.0,0.0,0.0,0.0,0.0,0.0,0.0,0.0,0.0,0.0,0.0,0.0,0.0,0.0,0.0,0.0,0.0,0.0,0.0,0.0,0.0,0.0,0.0,0.0,0.0,0.0,0.0,0.0,0.0,0.0,0.0,0.0,0.0,0.0,0.0,0.0,0.0,0.0,0.0,0.0,0.0,0.0,0.0,0.0,0.0,0.0,0.0,0.0,0.0,0.0,0.0,0.0,0.0,0.0,0.0,0.0,0.0,0.0,0.0,0.0,0.0,0.0,0.0,0.0,-0.6092,0.0,-0.6788,0.0,-0.7502,-0.7523,0.0,0.0,0.0,0.0,0.0,0.0,0.0,0.0,0.0,0.0,0.0,0.0,0.0,0.0,0.0,0.0,0.0,0.0,0.0,0.0,0.0,0.0,0.0,0.0,0.0,0.0,0.0,0.0,0.0,0.0,0.0,0.0,0.0,0.0,0.0,0.0,0.0,0.0,0.0,0.0,0.0,0.0,0.0,0.0,0.0,0.0,0.0,0.0,0.0,0.0,0.0,0.0,0.0,0.0,0.0,0.0,0.0,0.0,0.0,0.0,0.0,0.0,0.0,0.0,0.0,0.0,0.0,0.0,0.0,0.0,0.0,0.0,0.0,0.0,0.0,0.0,0.0,0.0,0.0,0.0,0.0,0.0,0.0,0.0,0.0,0.0,0.0,0.0,0.0,0.0,0.0,0.0,0.0,0.0,0.0,0.0,0.0,0.0,0.0,0.0,0.0,0.0,0.0,0.0,0.0,0.0,0.0,0.0,-0.3876,-0.5307,-0.4401,-0.4653,-0.6118,-0.6162,-0.6596,0.0,0.0,0.0,0.0,0.0,0.0,0.0,0.0,0.0,0.0,0.0,0.0,0.0,0.0,0.0,0.0,0.0,0.0,0.0,0.0,0.0,0.0,0.0,0.0,0.0,0.0,0.0,0.0,0.0,0.0,0.0,0.0,0.0,0.0,0.0,0.0,0.0,0.0,0.0,0.0,0.0,0.0,0.0,0.0,0.0,0.0,0.0,0.0,0.0,0.0,0.0,0.0,0.0,0.0,0.0,0.0,0.0,0.0,0.0,0.0,0.0,0.0,0.0,0.0,0.0,0.0,0.0,0.0,0.0,0.0,0.0,0.0,0.0,0.0,0.0,0.0,0.0,0.0,0.0,0.0,0.0,0.0,0.0,0.0,0.0,0.0,0.0,0.0,0.0,0.0,0.0,0.0,0.0,0.0,0.0,0.0,0.0,0.0,0.0,0.0,0.0,0.0,0.0,0.0,0.0,0.0,0.0,0.0,0.0,-0.4966,-0.4009,-0.3909,-0.4958,-0.5396,-0.5881,0.0,0.0,0.0,0.0,0.0,0.0,0.0,0.0,0.0,0.0,0.0,0.0,0.0,0.0,0.0,0.0,0.0,0.0,0.0,0.0,0.0,0.0,0.0,0.0,0.0,0.0,0.0,0.0,0.0,0.0,0.0,0.0,0.0,0.0,0.0,0.0,0.0,0.0,0.0,0.0,0.0,0.0,0.0,0.0,0.0,0.0,0.0,0.0,0.0,0.0,0.0,0.0,0.0,0.0,0.0,0.0,0.0,0.0,0.0,0.0,0.0,0.0,0.0,0.0,0.0,0.0,0.0,0.0,0.0,0.0,0.0,0.0,0.0,0.0,0.0,0.0,0.0,0.0,0.0,0.0,0.0,0.0,0.0,0.0,0.0,0.0,0.0,0.0,0.0,0.0,0.0,0.0,0.0,0.0,0.0,0.0,0.0,0.0,0.0,0.0,0.0,0.0,0.0,0.0,0.0,0.0,0.0,0.0,0.0,-0.3548,-0.26,-0.2501,-0.3581,-0.4351,-0.5163,-0.5853,0.0,0.0,0.0,0.0,0.0,0.0,0.0,0.0,0.0,0.0,0.0,0.0,0.0,0.0,0.0,0.0,0.0,0.0,0.0,0.0,0.0,0.0,0.0,0.0,0.0,0.0,0.0,0.0,0.0,0.0,0.0,0.0,0.0,0.0,0.0,0.0,0.0,0.0,0.0,0.0,0.0,0.0,0.0,0.0,0.0,0.0,0.0,0.0,0.0,0.0,0.0,0.0,0.0,0.0,0.0,0.0,0.0,0.0,0.0,0.0,0.0,0.0,0.0,0.0,0.0,0.0,0.0,0.0,0.0,0.0,0.0,0.0,0.0,0.0,0.0,0.0,0.0,0.0,0.0,0.0,0.0,0.0,0.0,0.0,0.0,0.0,0.0,0.0,0.0,0.0,0.0,0.0,0.0,0.0,0.0,0.0,0.0,0.0,0.0,0.0,0.0,0.0,0.0,0.0,0.0,0.0,0.0,0.0,-0.1482,-0.0524,-0.0595,-0.1902,-0.3073,-0.4265,0.0,0.0,0.0,0.0,0.0,0.0,0.0,0.0,0.0,0.0,0.0,0.0,0.0,0.0,0.0,0.0,0.0,0.0,0.0,0.0,0.0,0.0,0.0,0.0,0.0,0.0,0.0,0.0,0.0,0.0,0.0,0.0,0.0,0.0,0.0,0.0,0.0,0.0,0.0,0.0,0.0,0.0,0.0,0.0,0.0,0.0,0.0,0.0,0.0,0.0,0.0,0.0,0.0,0.0,0.0,0.0,0.0,0.0,0.0,0.0,0.0,0.0,0.0,0.0,0.0,0.0,0.0,0.0,0.0,0.0,0.0,0.0,0.0,0.0,0.0,0.0,0.0,0.0,0.0,0.0,0.0,0.0,0.0,0.0,0.0,0.0,0.0,0.0,0.0,0.0,0.0,0.0,0.0,0.0,0.0,0.0,0.0,0.0,0.0,0.0,0.0,0.0,0.0,0.0,0.0,0.0,0.0,0.0,0.0,-0.0383,-0.0135,-0.0206,-0.0537,-0.1974,-0.3211,0.0,0.0,0.0,0.0,0.0,0.0,0.0,0.0,0.0,0.0,0.0,0.0,0.0,0.0,0.0,0.0,0.0,0.0,0.0,0.0,0.0,0.0,0.0,0.0,0.0,0.0,0.0,0.0,0.0,0.0,0.0,0.0,0.0,0.0,0.0,0.0,0.0,0.0,0.0,0.0,0.0,0.0,0.0,0.0,0.0,0.0,0.0,0.0,0.0,0.0,0.0,0.0,0.0,0.0,0.0,0.0,0.0,0.0,0.0,0.0,0.0,0.0,0.0,0.0,0.0,0.0,0.0,0.0,0.0,0.0,0.0,0.0,0.0,0.0,0.0,0.0,0.0,0.0,0.0,0.0,0.0,0.0,0.0,0.0,0.0,0.0,0.0,0.0,0.0,0.0,0.0,0.0,0.0,0.0,0.0,0.0,0.0,0.0,0.0,0.0,0.0,0.0,0.0,0.0,0.0,0.0,0.0,0.0,0.0,0.0,0.0,0.0,0.0,-0.1425,-0.2702,0.0,0.0,0.0,0.0,0.0,0.0,0.0,0.0,0.0,0.0,0.0,0.0,0.0,0.0,0.0,0.0,0.0,0.0,0.0,0.0,0.0,0.0,0.0,0.0,0.0,0.0,0.0,0.0,0.0,0.0,0.0,0.0,0.0,0.0,0.0,0.0,0.0,0.0,0.0,0.0,0.0,0.0,0.0,0.0,0.0,0.0,0.0,0.0,0.0,0.0,0.0,0.0,0.0,0.0,0.0,0.0,0.0,0.0,0.0,0.0,0.0,0.0,0.0,0.0,0.0,0.0,0.0,0.0,0.0,0.0,0.0,0.0,0.0,0.0,0.0,0.0,0.0,0.0,0.0,0.0,0.0,0.0,0.0,0.0,0.0,0.0,0.0,0.0,0.0,0.0,0.0,0.0,0.0,0.0,0.0,0.0,0.0,0.0,0.0,0.0,0.0,0.0,0.0,0.0,0.0,0.0,0.0,0.0,0.0,0.0,0.0,0.0,0.0,-0.1161,-0.2397,0.0,0.0,0.0,0.0,0.0,0.0,0.0,0.0,0.0,0.0,0.0,0.0,0.0,0.0,0.0,0.0,0.0,0.0,0.0,0.0,0.0,0.0,0.0,0.0,0.0,0.0,0.0,0.0,0.0,0.0,0.0,0.0,0.0,0.0,0.0,0.0,0.0,0.0,0.0,0.0,0.0,0.0,0.0,0.0,0.0,0.0,0.0,0.0,0.0,0.0,0.0,0.0,0.0,0.0,0.0,0.0,0.0,0.0,0.0,0.0,0.0,0.0,0.0,0.0,0.0,0.0,0.0,0.0,0.0,0.0,0.0,0.0,0.0,0.0,0.0,0.0,0.0,0.0,0.0,0.0,0.0,0.0,0.0,0.0,0.0,0.0,0.0,0.0,0.0,0.0,0.0,0.0,0.0,0.0,0.0,0.0,0.0,0.0,0.0,0.0,0.0,0.0,0.0,0.0,0.0,0.0,0.0,0.0,0.0,0.0,0.0,0.0,0.0,-0.0476,-0.1194,0.0,0.0,0.0,0.0,0.0,0.0,0.0,0.0,0.0,0.0,0.0,0.0,0.0,0.0,0.0,0.0,0.0,0.0,0.0,0.0,0.0,0.0,0.0,0.0,0.0,0.0,0.0,0.0,0.0,0.0,0.0,0.0,0.0,0.0,0.0,0.0,0.0,0.0,0.0,0.0,0.0,0.0,0.0,0.0,0.0,0.0,0.0,0.0,-0.4818,0.0,0.0,0.0,0.0,0.0,0.0,0.0,0.0,0.0,0.0,0.0,0.0,0.0,0.0,0.0,0.0,0.0,0.0,0.0,0.0,0.0,0.0,0.0,0.0,0.0,0.0,0.0,0.0,0.0,0.0,0.0,0.0,0.0,0.0,0.0,0.0,0.0,0.0,0.0,0.0,0.0,0.0,0.0,0.0,0.0,0.0,0.0,0.0,0.0,0.0,0.0,0.0,0.0,0.0,0.0,0.0,0.0,0.0,0.0,0.0,0.0,0.0,0.0,0.0,-0.0138,-0.0709,0.0,0.0,0.0,0.0,0.0,0.0,0.0,0.0,0.0,0.0,0.0,0.0,0.0,0.0,0.0,0.0,0.0,0.0,0.0,0.0,0.0,0.0,0.0,0.0,0.0,0.0,0.0,0.0,0.0,0.0,0.0,0.0,0.0,0.0,0.0,0.0,0.0,0.0,0.0,0.0,0.0,0.0,0.0,0.0,0.0,0.0,0.0,0.0,0.0,0.0,0.0,0.0,0.0,0.0,0.0,0.0,0.0,0.0,0.0,0.0,0.0,0.0,0.0,0.0,0.0,0.0,0.0,0.0,0.0,0.0,0.0,0.0,0.0,0.0,0.0,0.0,0.0,0.0,0.0,0.0,0.0,0.0,0.0,0.0,0.0,0.0,0.0,0.0,0.0,0.0,0.0,0.0,0.0,0.0,0.0,0.0,0.0,0.0,0.0,0.0,0.0,0.0,0.0,0.0,0.0,0.0,0.0,0.0,0.0,0.0,0.0,0.0,0.0,0.0,-0.053,-0.1661,0.0,0.0,0.0,0.0,0.0,0.0,0.0,0.0,0.0,0.0,0.0,0.0,0.0,0.0,0.0,0.0,0.0,0.0,0.0,0.0,0.0,0.0,0.0,0.0,0.0,0.0,0.0,0.0,0.0,0.0,0.0,0.0,0.0,0.0,0.0,0.0,0.0,0.0,0.0,0.0,0.0,0.0,0.0,0.0,0.0,0.0,0.0,0.0,-0.5149,0.0,0.0,0.0,0.0,0.0,0.0,0.0,0.0,0.0,0.0,0.0,0.0,0.0,0.0,0.0,0.0,0.0,0.0,0.0,0.0,0.0,0.0,0.0,0.0,0.0,0.0,0.0,0.0,0.0,0.0,0.0,0.0,0.0,0.0,0.0,0.0,0.0,0.0,0.0,0.0,0.0,0.0,0.0,0.0,0.0,0.0,0.0,0.0,0.0,0.0,0.0,0.0,0.0,0.0,0.0,0.0,0.0,0.0,0.0,0.0,0.0,0.0,0.0,0.0,-0.0131,-0.0425,0.0,0.0,0.0,0.0,0.0,0.0,0.0,0.0,0.0,0.0,0.0,0.0,0.0,0.0,0.0,0.0,0.0,0.0,0.0,0.0,0.0,0.0,0.0,0.0,0.0,0.0,0.0,0.0,0.0,0.0,0.0,0.0,0.0,0.0,0.0,0.0,0.0,0.0,0.0,0.0,0.0,0.0,0.0,0.0,0.0,0.0,0.0,0.0,0.0,-0.3847,0.0,0.0,0.0,0.0,0.0,0.0,0.0,0.0,0.0,0.0,0.0,0.0,0.0,0.0,0.0,0.0,0.0,0.0,0.0,0.0,0.0,0.0,0.0,0.0,0.0,0.0,0.0,0.0,0.0,0.0,0.0,0.0,0.0,0.0,0.0,0.0,0.0,0.0,0.0,0.0,0.0,0.0,0.0,0.0,0.0,0.0,0.0,0.0,0.0,0.0,0.0,0.0,0.0,0.0,0.0,0.0,0.0,0.0,0.0,0.0,0.0,0.0,0.0,0.0,0.0,0.0,0.0,0.0,0.0,0.0,0.0,0.0,0.0,0.0,0.0,0.0,0.0,0.0,0.0,0.0,0.0,0.0,0.0,0.0,0.0,0.0,0.0,0.0,0.0,0.0,0.0,0.0,0.0,0.0,0.0,0.0,0.0,0.0,0.0,0.0,0.0,0.0,0.0,0.0,0.0,0.0,0.0,0.0,0.0,0.0,0.0,0.0,0.0,-0.2424,-0.312,0.0,0.0,0.0,0.0,0.0,0.0,0.0,0.0,0.0,0.0,0.0,0.0,0.0,0.0,0.0,0.0,0.0,0.0,0.0,0.0,0.0,0.0,0.0,0.0,0.0,0.0,0.0,0.0,0.0,0.0,0.0,0.0,0.0,0.0,0.0,0.0,0.0,0.0,0.0,0.0,0.0,0.0,0.0,0.0,0.0,0.0,0.0,0.0,0.0,0.0,0.0,0.0,0.0,0.0,0.0,0.0,0.0,0.0,0.0,0.0,0.0,0.0,0.0,0.0,0.0,0.0,0.0,0.0,0.0,0.0,0.0,0.0,0.0,0.0,0.0,0.0,0.0,0.0,0.0,0.0,0.0,0.0,0.0,0.0,0.0,0.0,0.0,0.0,0.0,0.0,0.0,0.0,0.0,0.0,0.0,0.0,0.0,0.0,0.0,0.0,0.0,0.0,0.0,0.0,0.0,0.0052,0.0,0.0052,0.0,0.0,0.0,0.0,-0.1393,-0.193,0.0,0.0,0.0,0.0,0.0,0.0,0.0,0.0,0.0,0.0,0.0,0.0,0.0,0.0,0.0,0.0,0.0,0.0,0.0,0.0,0.0,0.0,0.0,0.0,0.0,0.0,0.0,0.0,0.0,0.0,0.0,0.0,0.0,0.0,0.0,0.0,0.0,0.0,0.0,0.0,0.0,0.0,0.0,0.0,0.0,0.0,0.0,0.0,0.0,0.0,0.0,0.0,0.0,0.0,0.0,0.0,0.0,0.0,0.0,0.0,0.0,0.0,0.0,0.0,0.0,0.0,0.0,0.0,0.0,0.0,0.0,0.0,0.0,0.0,0.0,0.0,0.0,0.0,0.0,0.0,0.0,0.0,0.0,0.0,0.0,0.0,0.0,0.0,0.0,0.0,0.0,0.0,0.0,0.0,0.0,0.0,0.0,0.0,0.0,0.0,0.0,0.0,0.0,0.0,0.0,0.0,0.0335,0.0054,0.0269,0.0323,0.0,0.0,0.0,-0.0211,-0.027,0.0,0.0,0.0,0.0,0.0,0.0,0.0,0.0,0.0,0.0,0.0,0.0,0.0,0.0,0.0,0.0,0.0,0.0,0.0,0.0,0.0,0.0,0.0,0.0,0.0,0.0,0.0,0.0,0.0,0.0,0.0,0.0,0.0,0.0,0.0,0.0,0.0,0.0,0.0,0.0,0.0,0.0,0.0,0.0,0.0,0.0,0.0,0.0,0.0,0.0,0.0,0.0,0.0,0.0,0.0,0.0252,0.0276,0.024,0.0256,0.0268,0.0067,0.0,0.0,0.0,0.0,0.0,0.0,0.0,0.0,0.0,0.0,0.0,0.0,0.0,0.0,0.0,0.0,0.0,0.0,0.0,0.0,0.0,0.0,0.0,0.0,0.0,0.0,0.0,0.0,0.0,0.0,0.0,0.0,0.0,0.0,0.0,0.0,0.0,0.0,0.0,0.0,0.0,0.0,0.0,0.0,0.0,0.0,0.0333,0.0389,0.0,0.0,0.0,0.0,0.0,0.0,0.0,0.0,0.0,0.0,0.0,0.0,0.0,0.0,0.0,0.0,0.0,0.0,0.0,0.0,0.0,0.0,0.0,0.0,0.0,0.0,0.0,0.0,0.0,0.0,0.0,0.0,0.0,0.0,0.0,0.0,0.0,0.0,0.0,0.0,0.0,0.0,0.0,0.0,0.0,0.0,0.0,0.0,0.0,0.0,0.0,0.0,0.0,0.0,0.0,0.0,0.0,0.0,0.0,0.0,0.0,0.0,0.0598,0.0539,0.0573,0.0589,0.0328,0.0131,0.013,0.006,0.0,0.0,0.0,0.0,0.0,0.0,0.0,0.0,0.0,0.0,0.0,0.0,0.0,0.0,0.0,0.0,0.0,0.0,0.0,0.0,0.0,0.0,0.0,0.0,0.0,0.0,0.0,0.0,0.0,0.0,0.0,0.0,0.0,0.0,0.0,0.0,0.0,0.0,0.0,0.0,0.0,0.0,0.0857,0.0617,0.068,0.0736,0.0,0.0,0.0221,0.0163,0.011,0.0107,0.0,0.0,0.0,0.0,0.0,0.0,0.0,0.0,0.0,0.0,0.0,0.0,0.0,0.0,0.0,0.0,0.0,0.0,0.0,0.0,0.0,0.0,0.0,0.0,0.0,0.0,0.0,0.0,0.0,0.0,0.0,0.0,0.0,0.0,0.0,0.0,0.0,0.0,0.0,0.0,0.0,0.0,0.0,0.0,0.0,0.0,0.0,0.0,0.0,0.0,0.0,0.0,0.0,0.0,0.0,0.0749,0.0826,0.0878,0.0967,0.0646,0.0447,0.0434,0.0182,0.0,0.0,0.0,0.0,0.0,0.0,0.0,0.0,0.0,0.0,0.0,0.0,0.0,0.0,0.0,0.0,0.0,0.0,0.0,0.0,0.0,0.0,0.0,0.0,0.0,0.0,0.0,0.0,0.0,0.0,0.0,0.0,0.0,0.0,0.0,0.0,0.0,0.0,0.0,0.0,0.0,0.0,0.1139,0.0913,0.1188,0.1298,0.0,0.0,0.0745,0.0515,0.0469,0.0343,0.0049,0.0,0.0,0.0,0.0,0.0,0.0,0.0,0.0,0.0,0.0,0.0,0.0,0.0,0.0,0.0,0.0,0.0,0.0,0.0,0.0,0.0,0.0,0.0,0.0,0.0,0.0,0.0,0.0,0.0,0.0,0.0,0.0,0.0,0.0,0.0,0.0,0.0,0.0,0.0,0.0,0.0,0.0,0.0,0.0,0.0,0.0,0.0,0.0,0.0,0.0,0.0,0.0,0.0,0.1042,0.1102,0.116,0.1235,0.1271,0.0955,0.082,0.0741,0.065,0.0443,0.0,0.0,0.0,0.0,0.0,0.0,0.0,0.0,0.0,0.0,0.0,0.0,0.0,0.0,0.0,0.0,0.0,0.0,0.0,0.0,0.0,0.0,0.0,0.0,0.0,0.0,0.0,0.0,0.0419,0.0416,0.0367,0.0,0.0,0.0,0.0,0.0,0.0,0.0,0.0,0.0,0.0,0.1455,0.1241,0.1404,0.0,0.0,0.1135,0.0945,0.076,0.0633,0.044,0.0297,-0.0188,0.0,0.0,0.0,0.0,0.0,0.0,0.0,0.0,0.0,0.0,0.0,0.0,0.0,0.0,0.0,0.0,0.0,0.0,0.0,0.0,0.0,0.0,0.0,0.0,0.0,0.0,0.0,0.0,0.0,0.0,0.0,0.0,0.0,0.0,0.0,0.0,0.0,0.0,0.0,0.0,0.0,0.0,0.0,0.0,0.0,0.0,0.0,0.0,0.0,0.0,0.0,0.0,0.131,0.1379,0.1465,0.1559,0.1606,0.1299,0.1106,0.1088,0.098,0.0815,0.0,0.0,0.0,0.0,0.0,0.0,0.0,0.0,0.0,0.0,0.0,0.0,0.0,0.0,0.0,0.0,0.0,0.0,0.0,0.0,0.0,0.0,0.0,0.0,0.0,0.0,0.0,0.0,0.0676,0.0668,0.0687,0.0,0.0,0.0,0.0,0.0,0.0,0.0,0.0,0.0,0.0,0.1675,0.1555,0.1597,0.1615,0.1607,0.1363,0.1174,0.104,0.0896,0.0695,0.0547,0.0,0.0,0.0,0.0,0.0,0.0,0.0,0.0,0.0,0.0,0.0,0.0,0.0,0.0,0.0,0.0,0.0,0.0,0.0,0.0,0.0,0.0,0.0,0.0,0.0,0.0,0.0,0.0,0.0,0.0,0.6705,0.0,0.0,0.0,0.0,0.0,0.0,0.0,0.0,0.0,0.0,0.0,0.0,0.0,0.0,0.0,0.0,0.0,0.0,0.0,0.0,0.0,0.0,0.1513,0.1575,0.1725,0.1829,0.1888,0.1593,0.1408,0.1384,0.1075,0.0923,0.0909,0.0,0.0,0.0,0.0,0.0,0.0,0.0,0.0,0.0,0.0,0.0,0.0,0.0,0.0,0.0,0.0,0.0,0.0,0.0,0.0,0.0,0.0,0.0,0.0,0.0,0.0,0.0635,0.0591,0.0709,0.0,0.0,0.0,0.0,0.0,0.0,0.0,0.0,0.0,0.0,0.1654,0.1814,0.1793,0.1848,0.1817,0.179,0.1762,0.1677,0.1376,0.1258,0.1175,0.0,0.0,0.0,0.0,0.0,0.0,0.0,0.0,0.0,0.0,0.0,0.0,0.0,0.0,0.0,0.0,0.0,0.0,0.0,0.0,0.0,0.0,0.0,0.0,0.0,0.0,0.0,0.8028,0.7699,0.0,0.0,0.0,0.0,0.0,0.0,0.0,0.0,0.0,0.0,0.0,0.694,0.6435,0.0,0.0,0.0,0.0,0.0,0.0,0.0,0.0,0.0,0.0,0.0,0.0,0.1521,0.1603,0.1729,0.1825,0.1883,0.1768,0.1696,0.1668,0.1567,0.1365,0.1079,0.0,0.0,0.0,0.0,0.0,0.0,0.0,0.0,0.0,0.0,0.0,0.0,0.0,0.0,0.0,0.0,0.0,0.0,0.0,0.0,0.0,0.0,0.0,0.0,0.0,0.0957,0.0,0.0,0.0,0.0,0.0,0.0,0.0,0.0,0.0,0.0,0.0,0.1454,0.1545,0.1635,0.1763,0.1813,0.1856,0.1829,0.0,0.0,0.0,0.0,0.0,0.0,0.0,0.0,0.0,0.0,0.0,0.0,0.0,0.0,-0.098,-0.1416,-0.1737,-0.2079,-0.2554,0.0,0.0,0.0,0.0,0.0,0.0,0.0,0.0,0.0,0.0,0.0,0.0,0.0,0.0,0.8702,0.0,0.8394,0.0,0.0,0.0,0.0,0.0,0.0,0.0,0.0,0.8219,0.8367,0.8457,0.7814,0.748,0.0,0.657,0.5887,0.0,0.0,0.0,0.0,0.0,0.0,0.0,0.0,0.151,0.1601,0.1708,0.1788,0.1836,0.1838,0.1824,0.1793,0.1745,0.164,0.1334,0.1087,0.0914,0.0,0.0,0.0,0.0,0.0,0.0,0.0,0.0,0.0,0.0,0.0,0.0,0.0,0.0,0.0,0.0,0.0,0.0,0.0,0.0,0.0,0.0,0.0,0.1159,0.0,0.0,0.0,0.0,0.0,0.0,0.0,0.0,0.0,0.1331,0.1439,0.1516,0.1606,0.167,0.1718,0.18,0.0,0.0,0.0,0.0,0.0,0.0,0.0,0.1452,0.146,0.1233,0.1115,0.1053,0.0797,0.0564,0.0557,0.0,0.0,-0.062,-0.0956,-0.1338,-0.1853,-0.1972,-0.2095,-0.2483,-0.2867,-0.3292,0.0,0.0,0.0,0.0,0.0,0.0,0.0,0.0,0.9489,0.9387,0.0,0.9261,0.0,0.0,0.0,0.0,0.0,0.8157,0.0,0.0,0.9385,0.9574,0.9393,0.9106,0.8866,0.8726,0.8699,0.8326,0.754,0.5568,0.0,0.0,0.0,0.0,0.0,0.0,0.1574,0.1718,0.1815,0.1879,0.1911,0.1913,0.1897,0.1811,0.1835,0.1772,0.1628,0.143,0.1242,0.1186,0.0929,0.0,0.0,0.0,0.0,0.0,0.0,0.0,0.0,0.0,0.0,0.0,0.0,0.0,0.0,0.0,0.0,0.0,0.0,0.0,0.0,0.1325,0.0,0.0,0.0,0.0,0.0,0.0,0.0,0.0,0.0,0.0,0.1437,0.1515,0.1603,0.1688,0.0,0.0,0.0,0.0,0.177,0.1714,0.1705,0.1697,0.1724,0.1688,0.1694,0.1719,0.0,0.0,0.1376,0.1096,0.0898,0.0918,0.0888,0.0694,0.016,-0.0609,-0.1176,-0.1175,-0.119,-0.1534,-0.2275,-0.1932,-0.1763,1.1468,0.0,0.0,0.0,0.0,1.0243,1.0501,1.0961,1.0887,1.0669,1.0385,1.0147,0.0,0.0,0.0,0.0,0.0,0.0,0.9204,0.959,0.9724,0.9872,1.0045,0.9818,0.9738,0.9683,0.9457,0.9231,0.8995,0.788,0.6447,0.4785,0.0,0.0,0.0,0.0,0.3652,0.3767,0.388,0.3995,0.4014,0.4014,0.3981,0.3962,0.3995,0.3955,0.3838,0.3059,0.2595,0.2474,0.2195,0.0,0.0,0.0,0.0,0.0,0.0,0.0,0.0,0.0,0.0,0.0,0.0,0.0,0.0,0.0,0.0,0.0,0.0,0.0,0.1292,0.1324,0.1294,0.0,0.0,0.0,0.0,0.0,0.0,0.0,0.0,0.0,0.1528,0.1555,0.1639,0.0,0.0,0.1665,0.1656,0.1681,0.1701,0.1704,0.1704,0.0,0.0,0.1713,0.1701,0.1693,0.1771,0.1731,0.1661,0.1416,0.1208,0.1181,0.1024,0.0811,0.0641,0.0417,0.0256,0.0255,0.0251,0.0148,-0.0148,-0.0544,-0.1041,1.2495,1.1693,1.1173,1.1039,1.1129,1.103,1.131,1.1773,1.167,1.1503,1.1292,1.1079,1.0548,0.9767,0.926,0.0,0.0,0.0,0.9927,1.0403,1.0364,1.0349,1.0463,1.0254,1.0118,1.0047,0.979,0.9684,0.9559,0.9102,0.8143,0.6754,0.0,0.0,0.4278,0.4472,0.4616,0.4695,0.4837,0.4936,0.4936,0.4902,0.4858,0.4857,0.4855,0.4855,0.4796,0.4153,0.3771,0.3631,0.3086,0.2635,0.0,0.0,0.0,0.0,0.0,0.0,0.0,0.0,0.0,0.0,0.0,0.1088,0.1053,0.0,0.0,0.0,0.1196,0.126,0.1311,0.1324,0.0,0.0,0.0,0.0,0.0,0.0,0.0,0.1421,0.1495,0.1551,0.1569,0.1582,0.1609,0.1662,0.167,0.1669,0.1669,0.0,0.1757,0.172,0.1722,0.1729,0.1801,0.1744,0.1736,0.1724,0.1726,0.1785,0.1732,0.1583,0.1478,0.1466,0.1352,0.1187,0.1174,0.1209,0.1143,0.0935,0.0819,0.0809,0.0808,0.0303,-0.0151,1.3262,1.3023,1.2203,1.1861,1.1878,1.2028,1.2097,1.2031,1.2097,1.2073,1.1978,1.1874,1.1496,1.0964,1.0258,0.0,1.0646,1.0496,1.0707,1.1195,1.1067,1.0938,1.0782,1.0524,1.0265,1.0119,0.995,0.9789,0.9689,0.9463,0.9152,0.8751,0.7135,0.5877,0.503,0.4993,0.5039,0.5109,0.5156,0.5205,0.5205,0.5113,0.5064,0.5116,0.5057,0.5101,0.5101,0.5003,0.4871,0.4746,0.3749,0.3439,0.395,0.0,0.0,0.0,0.0,0.0,0.0,0.0,0.0,0.0,0.0,0.0,0.0,0.0,0.0,0.0,0.1211,0.0,0.1303,0.1337,0.0,0.0,0.0,0.1383,0.1321,0.1366,0.1454,0.1484,0.0,0.0,0.1575,0.1601,0.165,0.1786,0.1795,0.1793,0.1793,0.179,0.1797,0.1791,0.1798,0.18,0.1797,0.1763,0.1768,0.1744,0.1722,0.1707,0.1706,0.1706,0.1705,0.1701,0.1701,0.1699,0.1697,0.1672,0.1503,0.0984,0.0869,0.0859,0.0909,0.0859,0.0808,1.3262,1.3063,1.2726,1.2584,1.2588,1.2564,1.2645,1.258,1.2645,1.2491,1.2227,1.2048,1.1667,1.1155,1.0972,1.0928,1.1052,1.1149,1.1296,1.1435,1.1358,1.1358,1.1306,1.0983,1.0783,1.0731,1.056,1.0453,1.0397,0.9944,0.9632,0.9501,0.8616,0.7889,0.738,0.7577,0.7598,0.7424,0.7707,0.7775,0.7572,0.7448,0.7378,0.7375,0.7459,0.7444,0.7447,0.6494,0.5947,0.5899,0.5255,0.4683,0.417,0.4296,0.0,0.0,0.0,0.0,0.0,0.0,0.0,0.0,0.0,0.1149,0.1114,0.0,0.119,0.0,0.1234,0.1329,0.1295,0.1314,0.0,0.0,0.1395,0.1415,0.1476,0.1449,0.1516,0.1547,0.1583,0.1606,0.1605,0.1633,0.1659,0.1733,0.1663,0.1648,0.1649,0.1669,0.1736,0.174,0.1703,0.1715,0.1716,0.172,0.1725,0.1716,0.1709,0.1704,0.1704,0.1704,0.1697,0.173,0.1724,0.1663,0.1643,0.1632,0.1578,0.1424,0.1418,0.1415,0.1414,0.1414,0.1414,1.3189,1.308,1.2909,1.277,1.277,1.277,1.277,1.2762,1.2751,1.256,1.2288,1.2032,1.1752,1.1476,1.1472,1.1472,1.1476,1.1577,1.1581,1.15,1.15,1.1419,1.1256,1.1118,1.0928,1.0842,1.0741,1.0692,1.0672,1.0229,0.9955,0.9943,0.9446,0.9032,0.882,0.875,0.8597,0.8454,0.8682,0.8693,0.8479,0.8445,0.8316,0.8244,0.8295,0.8257,0.8144,0.7442,0.7021,0.6818,0.6157,0.5698,0.5498,0.5313,0.4787,0.0,0.0,0.0,0.0,0.0,0.0,0.0,0.0,0.0,0.0,0.0,0.1238,0.1251,0.127,0.1316,0.1341,0.1368,0.1395,0.1426,0.1472,0.1491,0.1541,0.1547,0.1558,0.1588,0.1607,0.1566,0.1567,0.1631,0.1642,0.1642,0.1628,0.1626,0.1651,0.1671,0.1734,0.1735,0.1694,0.1704,0.1704,0.1693,0.1686,0.1684,0.1674,0.1666,0.1666,0.1665,0.166,0.1645,0.1642,0.1637,0.162,0.1566,0.1566,0.1566,0.1566,0.1566,0.1566,0.1566,0.1566,1.308,1.3047,1.2897,1.277,1.277,1.277,1.277,1.2758,1.2641,1.2454,1.2251,1.1918,1.1837,1.1837,1.1837,1.1837,1.1837,1.1752,1.1654,1.15,1.1451,1.1269,1.0972,1.0948,1.085,1.0696,1.0668,1.066,1.0647,1.0298,1.018,1.0163,0.9791,0.9624,0.9579,0.9126,0.8924,0.8874,0.8825,0.875,0.8642,0.8616,0.8526,0.8318,0.8312,0.8226,0.8046,0.8016,0.783,0.7502,0.6711,0.6515,0.7038,0.6175,0.5591,0.0,0.5406,0.0,0.0,0.0,0.0,0.0,0.0,0.0,0.0,0.1291,0.1325,0.1311,0.13,0.1339,0.1391,0.1442,0.1476,0.1484,0.1555,0.1573,0.1576,0.1577,0.1587,0.1564,0.1566,0.1566,0.1566,0.1566,0.1566,0.1618,0.1618,0.1633,0.1678,0.1687,0.1686,0.1693,0.1693,0.1686,0.1686,0.1671,0.1708,0.1705,0.1638,0.1566,0.157,0.1569,0.1568,0.1567,0.1615,0.1612,0.1565,0.161,0.1605,0.1607,0.1604,0.1552,0.1608,0.1564,0.1565,1.3015,1.2885,1.2786,1.277,1.277,1.277,1.277,1.2758,1.2641,1.2381,1.2073,1.1866,1.1837,1.1837,1.1837,1.1837,1.1768,1.1618,1.1533,1.1488,1.1204,1.1037,1.1016,1.0814,1.0724,1.0684,1.0554,1.0481,1.0423,1.0111,0.9937,0.998,0.9726,0.9624,0.9575,0.0,0.0,0.0,0.9027,0.8849,0.8931,0.8737,0.8586,0.8375,0.8324,0.0,0.8217,0.7912,0.7724,0.7662,0.7284,0.0,0.0,0.0,0.0,0.0,0.0,0.0,0.0,0.0,0.0,0.0,0.355,0.2617,0.164,0.1443,0.1367,0.1373,0.1357,0.1433,0.1469,0.1482,0.1509,0.1557,0.1568,0.1581,0.1605,0.1608,0.1611,0.1565,0.1566,0.1617,0.1617,0.1566,0.1566,0.1566,0.1566,0.1621,0.1633,0.1637,0.1635,0.1634,0.1638,0.1635,0.1633,0.163,0.1628,0.1624,0.1622,0.1566,0.1566,0.1566,0.1566,0.1566,0.1597,0.159,0.161,0.1578,0.1553,0.1575,0.1561,0.1551,0.1575,0.16,0.1609,1.324,0.0,1.3038,1.2968,0.0,1.2739,1.2702,1.269,1.2511,1.2235,1.1902,1.1813,1.1837,1.1837,1.1837,1.1727,1.1634,1.1541,1.1407,1.1232,1.111,1.0975,1.083,1.0737,1.0651,1.0562,1.0423,1.0387,1.029,1.0018,0.9888,0.988,0.9713,0.9624,0.9624,0.9624,0.9624,0.9624,0.9241,0.9067,0.9041,0.8862,0.8691,0.852,0.0,0.0,0.0,0.0,0.0,0.0,0.0,0.0,0.0,0.0,0.0,0.6665,0.6516,0.6309,0.6039,0.555,0.5366,0.5639,0.49,0.3704,0.2149,0.1896,0.181,0.1811,0.18,0.1838,0.1875,0.1894,0.1928,0.1982,0.1991,0.1999,0.2016,0.2019,0.2019,0.1969,0.1869,0.1768,0.1819,0.1667,0.1617,0.1566,0.1566,0.1617,0.1566,0.1566,0.1566,0.1566,0.1566,0.1566,0.1566,0.1566,0.1566,0.1566,0.1566,0.1566,0.1566,0.1566,0.1566,0.1564,0.1592,0.1578,0.1586,0.1557,0.1483,0.1544,0.1537,0.1523,0.153,0.1551,0.1568,1.349,1.2972,1.3239,1.3214,1.2841,1.269,1.2527,1.2458,0.0,0.0,0.0,1.1837,1.1837,1.1837,1.1744,1.1642,1.15,1.1431,1.1248,1.0968,1.0992,1.0838,1.0696,1.066,1.0574,1.0383,1.0371,1.0262,1.0159,0.9929,0.9839,0.9827,0.9697,0.9624,0.9624,0.9624,0.9562,0.9575,0.9477,0.9271,0.9104,0.8917,0.8739,0.8616,0.8433,0.8219,0.8069,0.7894,0.7763,0.7584,0.7533,0.7555,0.7522,0.7518,0.75,0.7567,0.7533,0.7614,0.7789,0.7027,0.661,0.6843,0.6099,0.4829,0.297,0.2575,0.2381,0.2255,0.2246,0.2244,0.2296,0.238,0.2421,0.2416,0.2422,0.2422,0.2422,0.2422,0.2371,0.2371,0.2222,0.2071,0.2071,0.1919,0.1768,0.1768,0.1768,0.1718,0.1667,0.1667,0.1566,0.1566,0.1566,0.1566,0.1566,0.1566,0.1566,0.1566,0.1566,0.1566,0.1566,0.1612,0.1609,0.1606,0.1581,0.156,0.156,0.1532,0.1467,0.1517,0.1513,0.1503,0.1483,0.1492,0.1463,1.3687,1.3305,1.3371,1.3274,1.3057,1.2705,1.2389,1.2105,1.2081,1.1959,1.1837,1.1837,1.1837,1.1768,1.161,1.1524,1.148,1.1183,1.1013,0.0,1.0806,1.0716,1.0684,1.0542,1.0403,1.0358,1.0115,0.9949,0.9904,0.9746,0.9661,0.9661,0.9591,0.9624,0.9624,0.9624,0.9551,0.9445,0.9416,0.9275,0.91,0.8917,0.8743,0.8612,0.8429,0.828,0.8251,0.8073,0.7898,0.7771,0.7759,0.769,0.7531,0.7526,0.7592,0.7743,0.7759,0.7837,0.7963,0.7812,0.7556,0.7176,0.698,0.6042,0.4229,0.3662,0.3157,0.2617,0.2358,0.2256,0.238,0.24,0.2423,0.2414,0.2422,0.2422,0.2422,0.2422,0.2422,0.2422,0.2371,0.2321,0.2322,0.2271,0.222,0.227,0.222,0.217,0.1969,0.1768,0.1617,0.1566,0.1566,0.1566,0.1566,0.1566,0.1566,0.1566,0.1566,0.1565,0.1562,0.1596,0.1582,0.1578,0.1536,0.1512,0.1525,0.1486,0.147,0.148,0.147,0.1407,0.1446,0.1405,0.1414,1.4146,1.3674,1.3778,1.3488,1.3067,1.2674,1.237,1.213,1.2121,1.1963,1.1841,1.1837,1.1719,1.1622,1.1537,1.1395,1.1204,1.1098,1.0915,1.0814,1.0733,1.0692,1.0676,1.0517,1.0383,1.0274,1.0014,0.9839,0.9742,0.9665,0.9624,0.9624,0.9624,0.9579,0.9486,0.9478,0.9393,0.9269,0.9214,0.9129,0.895,0.8775,0.869,0.8608,0.839,0.8292,0.8288,0.8113,0.7975,0.7898,0.7849,0.7804,0.7768,0.7683,0.7751,0.7922,0.7898,0.7979,0.8154,0.826,0.822,0.7997,0.7939,0.7443,0.6304,0.4999,0.4065,0.3598,0.3156,0.2887,0.2793,0.2822,0.285,0.2822,0.2826,0.2826,0.2826,0.2826,0.2826,0.2826,0.2725,0.2623,0.2624,0.2472,0.2422,0.2422,0.2422,0.2321,0.2222,0.2121,0.1919,0.1667,0.1566,0.1566,0.1566,0.1566,0.1566,0.1566,0.1566,0.1609,0.1597,0.1578,0.1566,0.1548,0.151,0.149,0.15,0.1466,0.1403,0.1403,0.1447,0.1391,0.1391,0.1391,0.1396,1.4474,1.3996,1.3997,1.3638,1.2923,1.2726,1.2495,1.2242,1.2298,1.2186,1.1885,1.1796,1.1634,1.15,1.1415,1.1228,1.0988,1.0984,1.0826,1.07,1.0692,1.0672,1.0619,1.0456,1.0278,1.0147,0.9912,0.9758,0.9636,0.9624,0.9624,0.9624,0.9624,0.9535,0.9408,0.9404,0.9298,0.9047,0.9035,0.8966,0.8779,0.8658,0.8616,0.8604,0.8426,0.8353,0.8345,0.8215,0.8117,0.8073,0.7951,0.7963,0.8,0.789,0.7894,0.8048,0.8077,0.8158,0.8341,0.8487,0.8616,0.8616,0.8616,0.8415,0.7936,0.6474,0.5257,0.4684,0.4089,0.3633,0.3262,0.315,0.318,0.318,0.318,0.318,0.318,0.318,0.318,0.318,0.3029,0.2876,0.2826,0.2725,0.2623,0.2623,0.2573,0.2573,0.2522,0.2472,0.2271,0.1918,0.1717,0.1667,0.1617,0.1566,0.1566,0.1566,0.161,0.1596,0.1577,0.1564,0.1543,0.1517,0.1491,0.1472,0.1468,0.1407,0.1393,0.1393,0.1391,0.1391,0.1391,0.1391,0.1391,1.4405,1.4112,1.392,1.3354,1.2625,1.2968,1.2802,1.2298,1.2535,1.2479,1.2157,1.1712,1.1512,1.1455,1.1171,1.1005,1.0948,1.0794,1.0708,1.0696,1.0692,1.0611,1.0461,1.0274,1.0087,0.9916,0.9742,0.9657,0.9628,0.9624,0.9624,0.9624,0.9624,0.9531,0.942,0.9396,0.9181,0.8857,0.8848,0.8836,0.8816,0.8653,0.8616,0.8616,0.8596,0.8584,0.8575,0.8567,0.8482,0.8284,0.8243,0.817,0.804,0.8,0.8073,0.8247,0.8264,0.8349,0.8559,0.8556,0.8616,0.8616,0.8616,0.8641,0.8635,0.8047,0.6963,0.5762,0.4931,0.4347,0.3667,0.3379,0.3281,0.323,0.318,0.318,0.318,0.318,0.318,0.318,0.318,0.318,0.313,0.3079,0.3079,0.3029,0.3029,0.2978,0.2826,0.2775,0.2675,0.2372,0.2121,0.1869,0.1718,0.1617,0.1615,0.1614,0.1594,0.1575,0.1608,0.1524,0.1487,0.1487,0.1463,0.1446,0.1443,0.1391,0.1391,0.1391,0.1391,0.1391,0.1391,0.1391,0.1391,1.443,1.4168,1.4031,1.3391,1.2721,1.3056,1.296,1.253,1.272,1.2735,1.2513,1.1773,1.1413,1.1313,1.1078,1.0911,1.0802,1.0724,1.0692,1.068,1.0586,1.0447,1.0412,1.0132,0.9953,0.9876,0.9709,0.9624,0.9624,0.9624,0.9624,0.9612,0.9527,0.9376,0.9206,0.9096,0.8917,0.8682,0.867,0.867,0.8662,0.8649,0.8616,0.8616,0.8616,0.8616,0.8616,0.8616,0.8575,0.8455,0.8353,0.8308,0.8337,0.8235,0.826,0.8477,0.8498,0.8531,0.8608,0.8616,0.8616,0.8616,0.8616,0.8678,0.8954,0.873,0.8208,0.7306,0.6457,0.5589,0.4678,0.4282,0.3984,0.3534,0.3282,0.323,0.318,0.318,0.318,0.318,0.318,0.318,0.318,0.318,0.318,0.318,0.318,0.313,0.3029,0.3029,0.2927,0.2675,0.2523,0.2272,0.1969,0.1819,0.176,0.1643,0.1581,0.1566,0.157,0.1503,0.1476,0.1459,0.1399,0.1391,0.1392,0.1391,0.1391,0.1391,0.1391,0.1391,0.1391,0.1391,0.1391,1.4378,1.4208,1.401,1.3462,1.2719,1.3144,1.3053,1.2691,1.2795,1.2885,1.2736,1.1785,1.1373,1.1228,1.1028,1.0818,1.0704,1.0692,1.0664,1.0615,1.0435,1.0334,1.0266,1.0018,0.986,0.9803,0.9689,0.9624,0.9624,0.9624,0.9604,0.9539,0.9465,0.9294,0.9031,0.8835,0.8735,0.8633,0.8616,0.8616,0.8616,0.8616,0.8616,0.8616,0.8616,0.8616,0.8616,0.8616,0.8616,0.8612,0.8434,0.8469,0.8596,0.8438,0.8426,0.8596,0.8616,0.8616,0.8616,0.8616,0.8616,0.8616,0.8616,0.8759,0.9011,0.9096,0.8969,0.8723,0.8028,0.7074,0.5829,0.5381,0.4885,0.4185,0.3783,0.3581,0.3383,0.3282,0.318,0.318,0.318,0.318,0.318,0.318,0.318,0.318,0.318,0.318,0.318,0.318,0.313,0.2976,0.2916,0.2653,0.2205,0.2051,0.1938,0.1763,0.1698,0.1622,0.1533,0.1478,0.1466,0.14,0.1393,0.1391,0.1391,0.1391,0.1391,0.1391,0.1391,0.1391,0.1391,0.1391,0.1391,1.4033,1.3996,1.3797,1.3343,1.2775,1.338,1.3159,1.2473,1.2786,1.2794,1.2545,1.1777,1.1418,1.1362,1.0908,1.0704,1.0692,1.0684,1.0599,1.0469,1.037,1.0241,0.992,0.9884,0.9799,0.9669,0.9644,0.9624,0.9624,0.9624,0.9535,0.9424,0.94,0.9173,0.8889,0.8775,0.8735,0.8629,0.8616,0.8616,0.8616,0.8616,0.8616,0.8616,0.8616,0.8616,0.8616,0.8616,0.8616,0.8616,0.8552,0.86,0.8612,0.86,0.8596,0.8612,0.8616,0.8616,0.8616,0.8616,0.8616,0.8616,0.8629,0.8763,0.9051,0.9112,0.9223,0.9497,0.9327,0.8577,0.7129,0.6526,0.5977,0.5131,0.4832,0.4334,0.3635,0.3332,0.323,0.318,0.318,0.318,0.318,0.318,0.318,0.318,0.318,0.318,0.318,0.318,0.318,0.3171,0.309,0.29,0.2455,0.2308,0.2192,0.1968,0.1843,0.172,0.1566,0.146,0.1446,0.1391,0.1391,0.1391,0.1391,0.1391,0.1391,0.1391,0.1391,0.1391,0.1391,0.1391,0.1391,1.3929,1.3802,1.3721,1.3444,1.3071,1.3373,1.3221,1.2714,1.2811,1.2777,1.2566,1.1873,1.1508,1.1508,1.0945,1.0692,1.068,1.0578,1.0439,1.0354,1.0197,1.001,0.9892,0.9774,0.9693,0.9636,0.9624,0.9624,0.9624,0.9624,0.9535,0.9408,0.929,0.9064,0.8844,0.8714,0.8621,0.862,0.8616,0.8616,0.8616,0.8616,0.8616,0.8616,0.8616,0.8616,0.8616,0.8616,0.8616,0.8616,0.8616,0.8616,0.8616,0.8616,0.8616,0.8616,0.8616,0.8616,0.8616,0.8616,0.8616,0.8624,0.8674,0.882,0.906,0.9198,0.9364,0.9563,0.9624,0.9175,0.8676,0.7922,0.6877,0.5682,0.5083,0.4535,0.3784,0.3383,0.318,0.318,0.318,0.318,0.318,0.318,0.318,0.318,0.318,0.318,0.318,0.318,0.318,0.3229,0.316,0.307,0.2891,0.26,0.244,0.2215,0.2043,0.193,0.1775,0.1675,0.1661,0.1481,0.1436,0.1391,0.1391,0.1391,0.1391,0.1391,0.1391,0.1391,0.1391,0.1391,0.1391,1.4244,1.3882,1.3748,1.3509,1.3237,1.3353,1.3168,1.2843,1.2805,1.2729,1.2534,1.19,1.1568,1.1518,1.0962,1.0692,1.0672,1.0513,1.0404,1.0318,1.0026,0.9855,0.9791,0.9685,0.9624,0.9624,0.9624,0.9624,0.9616,0.9567,0.9445,0.9267,0.9096,0.8917,0.8747,0.8621,0.8616,0.8616,0.8616,0.8616,0.8616,0.8616,0.8616,0.8616,0.8616,0.8616,0.8616,0.8616,0.8616,0.8616,0.8616,0.8616,0.8616,0.8616,0.8616,0.8616,0.8616,0.8616,0.8616,0.8616,0.8616,0.8616,0.867,0.8832,0.9064,0.9206,0.938,0.9555,0.9624,0.9624,0.9476,0.8924,0.7975,0.6731,0.6084,0.5384,0.4386,0.3984,0.3581,0.3281,0.318,0.318,0.318,0.318,0.318,0.318,0.318,0.318,0.318,0.318,0.318,0.3226,0.3185,0.3132,0.3011,0.2835,0.2617,0.2394,0.2295,0.2181,0.1989,0.1889,0.175,0.157,0.148,0.1436,0.1391,0.1391,0.1391,0.1391,0.1391,0.1391,0.1391,0.1391,0.1391,1.5056,1.4172,1.3813,1.3495,1.3274,1.3266,1.308,1.2703,1.2726,1.2579,1.2379,1.1841,1.1623,1.1459,1.1021,1.0747,1.066,1.0493,1.0327,1.0224,0.9961,0.9782,0.9657,0.9636,0.9624,0.9624,0.9624,0.9624,0.962,0.9482,0.9363,0.9112,0.8958,0.8792,0.862,0.862,0.8616,0.8616,0.8616,0.8616,0.8616,0.8616,0.8616,0.8616,0.8616,0.8608,0.86,0.8596,0.8596,0.8608,0.86,0.8604,0.8608,0.8616,0.8616,0.8616,0.8616,0.8616,0.8616,0.8616,0.8616,0.862,0.8629,0.8759,0.9039,0.9137,0.9283,0.9555,0.9624,0.9624,0.9624,0.9525,0.908,0.8482,0.7779,0.7027,0.5882,0.5133,0.4433,0.3632,0.3381,0.323,0.323,0.318,0.318,0.318,0.318,0.318,0.318,0.318,0.318,0.3161,0.3164,0.31,0.3076,0.2961,0.2779,0.2609,0.2525,0.243,0.2251,0.2109,0.193,0.175,0.148,0.1436,0.1391,0.1391,0.1391,0.1391,0.1391,0.1391,0.1391,0.1391,0.1391,1.5051,1.4172,1.3868,1.3549,1.3285,1.3022,1.2822,1.2679,1.2413,1.2343,1.2337,1.2055,1.1787,1.1509,1.1181,1.0852,1.0664,1.0391,1.0213,1.0123,0.9851,0.9689,0.9636,0.9624,0.9624,0.9624,0.9624,0.9624,0.9616,0.9563,0.9401,0.9137,0.9039,0.8852,0.8589,0.8616,0.8616,0.8616,0.8616,0.8616,0.8616,0.8616,0.8616,0.8616,0.8612,0.8555,0.8385,0.8377,0.8442,0.8596,0.8446,0.8477,0.8584,0.8616,0.8616,0.8616,0.8616,0.8616,0.8616,0.8616,0.8616,0.8633,0.867,0.8844,0.9072,0.9253,0.9368,0.9592,0.9624,0.9624,0.9624,0.9624,0.9278,0.8478,0.8177,0.7673,0.6631,0.6079,0.5529,0.4782,0.4433,0.4085,0.3584,0.3383,0.323,0.318,0.318,0.318,0.318,0.318,0.318,0.3171,0.315,0.3085,0.308,0.3018,0.2867,0.2745,0.2694,0.2649,0.247,0.2289,0.2109,0.184,0.157,0.1436,0.1391,0.1391,0.1391,0.1391,0.1391,0.1391,0.1391,0.1391,0.1391,1.5817,1.4818,1.4167,1.3694,1.3372,1.2929,1.2781,1.2753,1.2316,1.2278,1.2327,1.2114,1.1837,1.1568,1.124,1.0962,1.066,1.0387,1.0225,1.0167,0.9891,0.9731,0.9628,0.9624,0.9624,0.9624,0.9624,0.9624,0.962,0.9551,0.9409,0.9218,0.9064,0.8889,0.8666,0.8645,0.8616,0.8616,0.8616,0.8616,0.8616,0.8616,0.8616,0.8616,0.8616,0.8551,0.8398,0.8333,0.8345,0.8482,0.8453,0.8502,0.8604,0.8616,0.8616,0.8616,0.8616,0.8616,0.8616,0.8616,0.8616,0.8641,0.8723,0.8897,0.908,0.9302,0.9482,0.9592,0.9624,0.9624,0.9624,0.9624,0.9331,0.8928,0.8726,0.8173,0.7425,0.6825,0.6323,0.5677,0.5181,0.4684,0.4185,0.3584,0.3332,0.3232,0.318,0.318,0.318,0.318,0.318,0.3209,0.314,0.3087,0.3098,0.3034,0.2962,0.2891,0.2875,0.2785,0.2694,0.247,0.2289,0.1885,0.157,0.1436,0.1391,0.1391,0.1391,0.1391,0.1391,0.1391,0.1391,0.1391,0.1391,1.7167,1.593,1.4704,1.3857,1.3343,1.3088,1.2876,1.2724,1.2481,1.2382,1.2332,1.2169,1.1896,1.1568,1.1291,1.1017,1.071,1.0465,1.029,1.0199,1.0012,0.9826,0.9628,0.9624,0.9624,0.9624,0.9624,0.9624,0.9571,0.9494,0.9412,0.9355,0.9035,0.8832,0.8775,0.8649,0.8616,0.8616,0.8616,0.8616,0.8616,0.8616,0.8616,0.8616,0.8612,0.8592,0.8526,0.8361,0.8292,0.8316,0.8459,0.8592,0.8612,0.8616,0.8616,0.8616,0.8616,0.8616,0.8616,0.8616,0.8629,0.8621,0.8739,0.8909,0.9112,0.9326,0.9433,0.9604,0.9624,0.9624,0.9624,0.9624,0.9579,0.9579,0.9426,0.8973,0.8173,0.7475,0.7077,0.6575,0.5877,0.5229,0.5033,0.4386,0.3883,0.3533,0.3481,0.3481,0.3282,0.3282,0.323,0.3194,0.3143,0.3109,0.3076,0.3037,0.2972,0.296,0.2936,0.2876,0.274,0.256,0.2334,0.193,0.1615,0.148,0.1391,0.1391,0.1391,0.1391,0.1391,0.1391,0.1391,0.1391,0.1391,1.7167,1.5871,1.4704,1.3839,1.3173,1.2855,1.2683,1.2485,1.2256,1.2273,1.2327,1.2327,1.206,1.1623,1.1514,1.1185,1.0732,1.0391,1.0221,1.0163,1.0042,0.9838,0.9677,0.9624,0.9624,0.9624,0.9624,0.9624,0.9624,0.9567,0.9486,0.9396,0.9137,0.8946,0.882,0.8658,0.862,0.8616,0.8616,0.8616,0.8616,0.8616,0.8616,0.8616,0.8616,0.8499,0.8381,0.8316,0.8292,0.8304,0.8471,0.8612,0.8616,0.8616,0.8616,0.8616,0.8616,0.8616,0.8616,0.8616,0.8665,0.8739,0.88,0.8954,0.9259,0.9375,0.9445,0.9579,0.9624,0.9624,0.9624,0.9624,0.9624,0.9624,0.9624,0.948,0.9175,0.8973,0.8627,0.7978,0.7478,0.6877,0.6329,0.5779,0.5281,0.478,0.4481,0.4133,0.3833,0.342,0.3465,0.3257,0.3172,0.3139,0.309,0.305,0.2993,0.2983,0.2957,0.2877,0.2741,0.2515,0.22,0.184,0.157,0.1436,0.1391,0.1391,0.1391,0.1391,0.1391,0.1391,0.1391,0.1391,0.1391,1.7513,1.6444,1.4893,1.3776,1.3131,1.2809,1.2581,1.237,1.2223,1.2273,1.2382,1.2382,1.2114,1.1618,1.1568,1.1295,1.0714,1.0481,1.0416,1.0362,1.0242,1.0036,0.9826,0.9673,0.9624,0.9624,0.9624,0.9624,0.9624,0.9624,0.9563,0.9441,0.9218,0.9043,0.8938,0.8735,0.8616,0.8616,0.8616,0.8616,0.8616,0.8616,0.8616,0.8616,0.8612,0.8547,0.8418,0.8406,0.8406,0.843,0.8511,0.8616,0.8616,0.8616,0.8616,0.8616,0.8616,0.8616,0.8616,0.8616,0.8694,0.8796,0.8877,0.9072,0.9347,0.9461,0.9535,0.9558,0.9624,0.9624,0.9624,0.9624,0.9624,0.9624,0.9624,0.9624,0.9624,0.9575,0.9381,0.8928,0.8478,0.7975,0.7375,0.6924,0.6376,0.5827,0.5529,0.5031,0.4479,0.4059,0.3744,0.3637,0.3345,0.3289,0.3268,0.3243,0.3118,0.3106,0.2983,0.2946,0.2697,0.2469,0.2155,0.1885,0.157,0.1436,0.1436,0.1436,0.1391,0.1391,0.1391,0.1391,0.1391,0.1391,0.1391,1.8098,1.7249,1.5322,1.4006,1.3388,1.3072,1.2981,1.2678,1.2708,1.2599,1.2491,1.2382,1.206,1.1627,1.1518,1.124,1.0688,1.057,1.051,1.0428,1.0275,1.0068,0.9969,0.9776,0.9677,0.9628,0.9624,0.9624,0.9624,0.9624,0.9624,0.9531,0.9283,0.9129,0.9019,0.8812,0.8653,0.8616,0.8616,0.8616,0.8616,0.8616,0.8616,0.8616,0.8616,0.8612,0.8596,0.8596,0.8596,0.8608,0.8616,0.8616,0.8616,0.8616,0.8616,0.8616,0.8616,0.8616,0.8624,0.8641,0.8682,0.8852,0.9031,0.9198,0.938,0.9527,0.9604,0.9624,0.9624,0.9624,0.9624,0.9624,0.9624,0.9624,0.9624,0.9624,0.9624,0.9624,0.9624,0.9575,0.8931,0.8478,0.8077,0.7577,0.7027,0.6927,0.6628,0.6176,0.5472,0.4854,0.4531,0.4364,0.3938,0.3455,0.3495,0.3485,0.3335,0.3233,0.3057,0.2928,0.2613,0.2379,0.2155,0.1885,0.166,0.1525,0.1525,0.148,0.1436,0.1391,0.1391,0.1391,0.1391,0.1391,0.1391,1.8816,1.767,1.6072,1.5194,1.4791,1.4338,1.41,1.4099,1.3894,1.3359,1.2822,1.2332,1.1951,1.1573,1.135,1.1017,1.069,1.0465,1.0234,1.0112,0.9884,0.9871,0.992,0.9924,0.9821,0.9673,0.9624,0.9624,0.9624,0.9624,0.9624,0.9587,0.9405,0.9277,0.9072,0.8877,0.8694,0.8641,0.8616,0.8616,0.8616,0.8616,0.8616,0.8616,0.8616,0.8616,0.8616,0.8616,0.8616,0.8616,0.8616,0.8616,0.8616,0.8616,0.8616,0.8616,0.8616,0.8616,0.8637,0.8686,0.884,0.9003,0.9173,0.942,0.9543,0.9592,0.9624,0.9624,0.9624,0.9624,0.9624,0.9624,0.9624,0.9624,0.9624,0.9624,0.9624,0.9624,0.9624,0.9579,0.943,0.9327,0.9225,0.9027,0.8528,0.8077,0.7677,0.7276,0.6559,0.579,0.5461,0.5281,0.481,0.4472,0.4548,0.4407,0.3929,0.3616,0.329,0.3018,0.2697,0.2379,0.22,0.1974,0.1705,0.166,0.1705,0.157,0.1525,0.148,0.1436,0.1525,0.157,0.148,0.1525,1.8845,1.763,1.6,1.5153,1.4848,1.4334,1.4429,1.4815,1.4433,1.3954,1.3413,1.2599,1.1951,1.1573,1.1236,1.0929,1.0551,1.0366,1.0204,1.0167,1.0132,1.0117,1.0019,1.0068,1.0019,0.9677,0.9624,0.9624,0.9624,0.9624,0.9624,0.9612,0.9494,0.9259,0.9096,0.8913,0.8735,0.8645,0.8616,0.8616,0.8616,0.8616,0.8616,0.8616,0.8616,0.8616,0.8616,0.8616,0.8616,0.8616,0.8616,0.8616,0.8616,0.8616,0.8616,0.8616,0.8616,0.8616,0.8653,0.8727,0.8893,0.9084,0.9306,0.9433,0.9571,0.9624,0.9624,0.9624,0.9624,0.9624,0.9624,0.9624,0.9624,0.9624,0.9624,0.9624,0.9624,0.9624,0.9624,0.9624,0.9579,0.9575,0.9624,0.9624,0.9525,0.8829,0.8779,0.8375,0.7786,0.706,0.6568,0.6274,0.582,0.5593,0.5739,0.5421,0.4653,0.4175,0.3687,0.3314,0.2944,0.2609,0.2289,0.2109,0.193,0.193,0.193,0.1795,0.175,0.184,0.184,0.1795,0.1795,0.184,0.1885,1.8891,1.7749,1.604,1.5285,1.5037,1.4592,1.4863,1.5393,1.4809,1.4277,1.3792,1.2767,1.1946,1.1514,1.1185,1.0799,1.0453,1.0242,1.0175,1.0192,1.0371,1.0274,1.0117,1.0117,1.0072,0.9677,0.9624,0.9624,0.9624,0.9624,0.9624,0.9596,0.9494,0.9318,0.9096,0.8909,0.8735,0.8637,0.8616,0.8616,0.8616,0.8616,0.8616,0.8616,0.8616,0.8616,0.8616,0.8616,0.8616,0.8616,0.8616,0.8616,0.8616,0.8616,0.8616,0.8616,0.8645,0.8633,0.8682,0.8816,0.9007,0.9137,0.9303,0.9458,0.9592,0.9624,0.9624,0.9624,0.9624,0.9624,0.9624,0.9624,0.9624,0.9624,0.9624,0.9624,0.9624,0.9624,0.9624,0.9624,0.9624,0.9624,0.9624,0.9624,0.9624,0.9628,0.9579,0.9418,0.8731,0.8206,0.7671,0.7424,0.707,0.6777,0.6825,0.6609,0.5853,0.5152,0.4508,0.4032,0.3603,0.3384,0.3131,0.2472,0.2289,0.2244,0.2155,0.2064,0.2109,0.22,0.2155,0.2019,0.2064,0.22,0.2156,1.9864,1.8901,1.7915,1.7564,1.7592,1.6832,1.6452,1.6411,1.5885,1.4654,1.3202,1.2387,1.1837,1.1236,1.0907,1.0563,1.0366,1.0263,1.0155,1.0162,1.0229,1.0068,1.0068,1.0068,0.9924,0.9677,0.9624,0.9624,0.9624,0.9624,0.9624,0.9592,0.9462,0.9335,0.9116,0.8917,0.8779,0.8673,0.8641,0.8641,0.8616,0.8616,0.8616,0.8616,0.8616,0.8616,0.8616,0.8616,0.8616,0.8616,0.8616,0.8616,0.8633,0.8633,0.8629,0.8641,0.869,0.8747,0.8783,0.906,0.9286,0.9396,0.9462,0.9559,0.9616,0.9624,0.9624,0.9624,0.9624,0.9624,0.9624,0.9624,0.9624,0.9624,0.9624,0.9624,0.9624,0.9624,0.9624,0.9624,0.9624,0.9624,0.9624,0.9624,0.9624,0.9624,0.9579,0.9579,0.9258,0.8901,0.8545,0.8434,0.8414,0.8118,0.7949,0.7627,0.711,0.6482,0.5848,0.5319,0.491,0.4528,0.4087,0.3362,0.2702,0.2379,0.2334,0.2334,0.2334,0.2379,0.2289,0.2244,0.2289,0.238,0.2341,1.9856,1.8803,1.811,1.7755,1.7682,1.7159,1.7153,1.747,1.6849,1.5773,1.4476,1.3339,1.2318,1.1428,1.0749,1.0621,1.0716,1.0674,1.069,1.0708,1.0314,1.0019,1.0019,1.0019,0.9821,0.9673,0.9624,0.9624,0.9624,0.9624,0.9624,0.9612,0.9527,0.9409,0.9259,0.9157,0.8938,0.8767,0.8698,0.8653,0.862,0.8616,0.8616,0.8616,0.8616,0.8616,0.8616,0.8616,0.8616,0.8616,0.8616,0.8617,0.867,0.869,0.8662,0.8673,0.8739,0.8783,0.8835,0.9141,0.9384,0.942,0.9527,0.9616,0.9624,0.9624,0.9624,0.9624,0.9624,0.9624,0.9624,0.9624,0.9624,0.9624,0.9624,0.9624,0.9624,0.9624,0.9624,0.9624,0.9624,0.9624,0.9624,0.9624,0.9624,0.9624,0.9624,0.9624,0.9624,0.9377,0.908,0.9095,0.9029,0.8957,0.8668,0.8376,0.8133,0.7586,0.7073,0.6532,0.6032,0.564,0.4979,0.4263,0.3591,0.2974,0.2604,0.2649,0.2604,0.256,0.256,0.256,0.256,0.2562,0.2525,1.9621,1.8709,1.8158,1.7796,1.751,1.7213,1.747,1.8003,1.749,1.6518,1.5535,1.4293,1.293,1.1715,1.1035,1.0923,1.1367,1.1229,1.1096,1.0806,1.0364,0.9969,0.992,0.9969,0.9875,0.9624,0.9624,0.9624,0.9624,0.9624,0.9624,0.9604,0.9554,0.951,0.9408,0.9298,0.91,0.8982,0.8869,0.8787,0.8658,0.8629,0.8616,0.8616,0.8616,0.8616,0.8616,0.8616,0.8645,0.8665,0.869,0.8702,0.8844,0.8827,0.8808,0.8727,0.8836,0.8909,0.9015,0.9222,0.9441,0.9449,0.9547,0.9608,0.9624,0.9624,0.9624,0.9624,0.9624,0.9624,0.9624,0.9624,0.9624,0.9624,0.9624,0.9624,0.9624,0.9624,0.9624,0.9624,0.9624,0.9624,0.9624,0.9624,0.9624,0.9624,0.9624,0.9624,0.9624,0.9624,0.9426,0.9476,0.9505,0.9505,0.9288,0.8977,0.8773,0.8512,0.8087,0.769,0.7182,0.6669,0.5986,0.5374,0.4665,0.4036,0.352,0.2921,0.2785,0.2739,0.2875,0.2875,0.2785,0.28,0.2771,1.9774,1.9626,1.9237,1.8943,1.8608,1.8272,1.795,1.7687,1.7384,1.6252,1.4953,1.4228,1.3012,1.1734,1.1499,1.1406,1.1475,1.1525,1.1175,1.065,1.0261,1.0019,0.9772,0.9924,0.9871,0.9723,0.9628,0.9624,0.9624,0.9624,0.9624,0.9604,0.9502,0.9433,0.9441,0.9303,0.9108,0.9072,0.906,0.8966,0.8804,0.867,0.8661,0.8645,0.8649,0.8665,0.8682,0.869,0.867,0.8783,0.8792,0.8881,0.9027,0.9068,0.9064,0.9088,0.9224,0.9339,0.9339,0.9441,0.9563,0.9555,0.9612,0.9624,0.9624,0.9624,0.9624,0.9624,0.9624,0.9624,0.9624,0.9624,0.9624,0.9624,0.9624,0.9624,0.9624,0.9624,0.9624,0.9624,0.9624,0.9624,0.9624,0.9624,0.9624,0.9624,0.9624,0.9624,0.9624,0.9624,0.9624,0.9624,0.9624,0.9624,0.9575,0.9327,0.9229,0.913,0.8947,0.861,0.8213,0.7702,0.7263,0.6605,0.5893,0.4995,0.4284,0.3674,0.3154,0.2924,0.2976,0.2926,0.2875,0.2942,0.2962,1.9386,1.9491,1.9211,1.8907,1.86,1.8475,1.8167,1.7799,1.7384,1.653,1.5286,1.4411,1.3252,1.2191,1.2668,1.316,1.3041,1.2878,1.2446,1.1424,1.1042,1.056,1.0216,1.0167,1.0064,0.9821,0.9776,0.9727,0.9677,0.9624,0.9624,0.9612,0.9555,0.9527,0.949,0.9433,0.9344,0.9254,0.9153,0.9064,0.8978,0.8905,0.8906,0.8906,0.8857,0.8852,0.8852,0.8869,0.8893,0.8978,0.8974,0.906,0.9194,0.9254,0.9279,0.9405,0.9458,0.9502,0.9441,0.9535,0.96,0.9624,0.9624,0.9624,0.9624,0.9624,0.9624,0.9624,0.9624,0.9624,0.9624,0.9624,0.9624,0.9624,0.9624,0.9624,0.9624,0.9624,0.9624,0.9624,0.9624,0.9624,0.9624,0.9624,0.9624,0.9624,0.9624,0.9624,0.9624,0.9624,0.9624,0.9624,0.9624,0.9624,0.9624,0.9525,0.9476,0.9426,0.9426,0.9197,0.9152,0.8754,0.8241,0.7831,0.7257,0.6271,0.5191,0.4404,0.3924,0.3455,0.3033,0.3175,0.3315,0.2926,0.2962,1.8966,1.9249,1.9007,1.8692,1.8422,1.8422,1.8272,1.7964,1.7701,1.706,1.6097,1.4917,1.3645,1.3033,1.3746,1.4175,1.4214,1.4052,1.3565,1.2786,1.1819,1.09,1.0507,1.0408,1.0068,0.9924,0.9826,0.9727,0.9677,0.9624,0.9624,0.9624,0.9612,0.9612,0.962,0.9592,0.9527,0.9425,0.9263,0.9229,0.9149,0.9104,0.908,0.908,0.9092,0.9096,0.9096,0.908,0.9084,0.9157,0.9161,0.929,0.9393,0.9433,0.947,0.9555,0.9596,0.9559,0.951,0.9555,0.9612,0.9624,0.9624,0.9624,0.9624,0.9624,0.9624,0.9624,0.9624,0.9624,0.9624,0.9624,0.9624,0.9624,0.9624,0.9624,0.9624,0.9624,0.9624,0.9624,0.9624,0.9624,0.9624,0.9624,0.9624,0.9624,0.9624,0.9624,0.9624,0.9624,0.9624,0.9624,0.9624,0.9624,0.9624,0.9624,0.9624,0.9624,0.9624,0.9575,0.9422,0.941,0.9113,0.8739,0.8326,0.7736,0.6782,0.5712,0.4721,0.4583,0.4394,0.3966,0.3723,0.3323,0.3016,1.8795,1.9279,1.9002,1.8733,1.8422,1.8422,1.8272,1.8016,1.8167,1.7832,1.6878,1.5551,1.4288,1.3886,1.4152,1.4491,1.4298,1.327,1.3022,1.2247,1.0935,1.0743,1.06,1.0261,0.9772,0.9727,0.9776,0.9727,0.9624,0.9624,0.9624,0.9624,0.9624,0.9624,0.9628,0.9624,0.9669,0.9584,0.9509,0.944,0.939,0.9277,0.9149,0.9133,0.9116,0.91,0.91,0.9145,0.921,0.9332,0.9388,0.9393,0.9527,0.9563,0.9596,0.9612,0.9624,0.96,0.9592,0.9592,0.9616,0.9624,0.9624,0.9624,0.9624,0.9624,0.9624,0.9624,0.9624,0.9624,0.9624,0.9624,0.9624,0.9624,0.9624,0.9624,0.9624,0.9624,0.9624,0.9624,0.9624,0.9624,0.9624,0.9624,0.9624,0.9624,0.9624,0.9624,0.9624,0.9624,0.9624,0.9624,0.9624,0.9624,0.9624,0.9624,0.9624,0.9624,0.9624,0.9624,0.9575,0.9562,0.9505,0.9367,0.8995,0.8672,0.8316,0.726,0.6481,0.6167,0.5766,0.5038,0.4412,0.3968,0.3515,1.8698,1.8743,1.8862,1.8817,1.8705,1.8482,1.8272,1.7964,1.7753,1.7095,1.6287,1.5661,1.5093,1.4769,1.4989,1.5207,1.5159,1.486,1.389,1.3022,1.2198,1.1521,1.1135,1.0502,1.0265,1.0072,0.9924,0.9727,0.9624,0.9624,0.9624,0.9624,0.9624,0.9624,0.9628,0.9727,0.9821,0.9809,0.9808,0.986,0.9945,0.962,0.9469,0.9667,0.9421,0.9425,0.9433,0.9425,0.9466,0.9498,0.9514,0.9563,0.9608,0.962,0.9624,0.9624,0.9624,0.9624,0.9624,0.9624,0.9624,0.9624,0.9624,0.9624,0.9624,0.9624,0.9624,0.9624,0.9624,0.9624,0.9624,0.9624,0.9624,0.9624,0.9624,0.9624,0.9624,0.9624,0.9624,0.9624,0.9624,0.9624,0.9624,0.9624,0.9624,0.9624,0.9624,0.9624,0.9624,0.9624,0.9624,0.9624,0.9624,0.9624,0.9624,0.9624,0.9624,0.9624,0.9624,0.9624,0.9624,0.9624,0.9562,0.9592,0.9583,0.9225,0.889,0.8623,0.8011,0.7225,0.648,0.5812,0.522,0.472,0.4254,1.8757,1.8586,1.881,1.8817,1.8705,1.8482,1.822,1.7964,1.7753,1.6833,1.5698,1.5998,1.5625,1.5237,1.5479,1.573,1.5588,1.5248,1.4376,1.3457,1.2635,1.2009,1.1037,1.0408,1.0117,1.0167,1.0023,0.9727,0.9624,0.9624,0.9624,0.9624,0.9624,0.9624,0.9677,0.9826,1.0019,1.0019,1.0117,1.0117,1.0207,0.9953,0.9653,0.9846,0.9641,0.9587,0.9583,0.9575,0.9583,0.9604,0.9612,0.9616,0.9624,0.9624,0.9624,0.9624,0.9624,0.9624,0.9624,0.9624,0.9624,0.9624,0.9624,0.9624,0.9624,0.9624,0.9624,0.9624,0.9624,0.9624,0.9624,0.9624,0.9624,0.9624,0.9624,0.9624,0.9624,0.9624,0.9624,0.9624,0.9624,0.9624,0.9624,0.9624,0.9624,0.9624,0.9624,0.9624,0.9624,0.9624,0.9624,0.9624,0.9624,0.9624,0.9624,0.9624,0.9624,0.9624,0.9624,0.9624,0.9624,0.9624,0.9624,0.9612,0.9612,0.9624,0.9399,0.9098,0.856,0.7918,0.7302,0.6849,0.6438,0.5973,0.5298,1.8876,1.8876,1.8869,1.8705,1.8475,1.8422,1.822,1.8062,1.8126,1.7524,1.6407,1.6504,1.5895,1.5138,1.5536,1.5791,1.5635,1.501,1.434,1.3902,1.2883,1.1707,1.0984,1.0502,1.0167,0.9723,0.9677,0.9677,0.9624,0.9624,0.9624,0.9624,0.9624,0.9624,0.9628,0.9871,0.9969,1.0019,1.0216,1.0167,1.0117,0.9969,0.9821,0.9826,0.9723,0.9673,0.9677,0.9677,0.9677,0.9624,0.9624,0.9624,0.9624,0.9624,0.9624,0.9624,0.9624,0.9624,0.9624,0.9624,0.9624,0.9624,0.9624,0.9624,0.9624,0.9624,0.9624,0.9624,0.9624,0.9624,0.9624,0.964,0.9652,0.9673,0.9685,0.9697,0.9705,0.9685,0.9697,0.964,0.9624,0.9624,0.9624,0.9624,0.9624,0.9624,0.9624,0.9628,0.9628,0.9624,0.9624,0.9624,0.9624,0.9624,0.9624,0.9624,0.9624,0.9624,0.9624,0.9624,0.9624,0.9624,0.9624,0.9624,0.9624,0.9624,0.9624,0.9567,0.9029,0.8623,0.8487,0.8101,0.7716,0.7172,0.6397,1.8757,1.8593,1.9018,1.8855,1.8422,1.8422,1.8318,1.823,1.7953,1.7596,1.7123,1.6721,1.6097,1.565,1.5565,1.5825,1.573,1.5635,1.5159,1.4202,1.3516,1.2597,1.177,1.1091,1.056,0.9974,0.9727,0.9673,0.9624,0.9624,0.9624,0.9624,0.9624,0.9624,0.9673,0.9871,1.0019,1.0019,1.0117,1.0167,1.0162,0.9969,0.9875,1.0019,0.992,0.9821,0.9826,0.9772,0.9727,0.9628,0.9624,0.9624,0.9624,0.9624,0.9624,0.9624,0.9624,0.9624,0.9624,0.9624,0.9624,0.9624,0.9624,0.9628,0.9628,0.9628,0.9624,0.9636,0.9648,0.9648,0.9624,0.9754,0.9803,0.9843,0.9864,0.988,0.988,0.9831,0.9795,0.9681,0.9624,0.9661,0.9673,0.9726,0.973,0.9677,0.9673,0.964,0.9628,0.9628,0.9624,0.9624,0.9624,0.9624,0.9624,0.9624,0.9624,0.9624,0.9624,0.9624,0.9624,0.9624,0.9624,0.9624,0.9624,0.9624,0.9624,0.9624,0.9624,0.9418,0.9126,0.8829,0.8308,0.7835,0.7307,1.8803,1.8482,1.9056,1.8959,1.8482,1.8422,1.8422,1.8314,1.7953,1.7705,1.7449,1.6701,1.6119,1.5858,1.5825,1.5825,1.5825,1.5778,1.5255,1.4442,1.4532,1.3463,1.2495,1.2019,1.1429,1.065,1.0212,1.0113,0.9624,0.9624,0.9624,0.9624,0.9624,0.9624,0.9673,0.9821,1.0019,1.0019,1.0117,1.0162,1.0117,1.0023,0.9871,0.9969,0.992,0.9821,0.9871,0.9821,0.9776,0.9677,0.9624,0.9624,0.9624,0.9628,0.9628,0.9624,0.9624,0.9624,0.9624,0.9624,0.9624,0.9624,0.9628,0.9661,0.9677,0.9669,0.9689,0.9697,0.9709,0.9673,0.9677,0.9823,0.9949,0.9989,1.0014,1.0026,1.0022,0.9969,0.9916,0.9795,0.9774,0.9782,0.9782,0.9811,0.986,0.9791,0.9726,0.9685,0.964,0.9632,0.9628,0.9624,0.9624,0.9624,0.9624,0.9624,0.9624,0.9624,0.9624,0.9624,0.9624,0.9624,0.9624,0.9624,0.9624,0.9624,0.9624,0.9624,0.9624,0.9624,0.9525,0.9179,0.8832,0.8528,0.8124,1.89,1.8527,1.9063,1.8959,1.8475,1.8422,1.8422,1.8387,1.8093,1.785,1.7548,1.6694,1.6112,1.5872,1.5825,1.5825,1.5825,1.5825,1.5302,1.4771,1.486,1.3794,1.3312,1.2931,1.2296,1.1658,1.1175,1.0886,0.9916,1.031,1.0261,0.9821,1.0015,0.9821,0.9821,0.9776,0.992,0.9969,1.0019,1.0068,0.9974,0.9974,0.9875,0.9821,0.9772,0.9723,0.9723,0.9727,0.9677,0.9628,0.9624,0.9624,0.9628,0.9628,0.9673,0.9673,0.9772,0.9624,0.9624,0.9624,0.9624,0.9628,0.9657,0.9738,0.9778,0.9754,0.9778,0.9847,0.9892,0.9778,0.9721,0.9904,1.0079,1.0107,1.0132,1.014,1.0144,1.0159,1.011,1.0018,1.0046,1.005,1.0086,1.0098,0.9961,0.99,0.9827,0.9742,0.9697,0.9636,0.9632,0.9624,0.9624,0.9624,0.9624,0.9624,0.9624,0.9624,0.9624,0.9624,0.9624,0.9624,0.9624,0.9624,0.9624,0.9624,0.9624,0.9624,0.9624,0.9624,0.9624,0.9525,0.9179,0.9278,0.9126,1.8527,1.8475,1.9063,1.8959,1.8422,1.8422,1.8422,1.838,1.81,1.785,1.7541,1.6701,1.6161,1.5798,1.5825,1.5825,1.5825,1.5778,1.5683,1.5439,1.5296,1.4669,1.4238,1.3854,1.3216,1.263,1.2193,1.2004,1.1907,1.1863,1.1326,1.0935,1.0886,1.0502,0.9969,0.9677,0.9776,0.9776,0.9875,0.9826,0.9772,0.9776,0.9776,0.9821,0.9821,0.9821,0.9826,0.9826,0.9776,0.9628,0.9628,0.9624,0.9624,1.0256,1.0739,1.0641,1.0158,0.9624,0.9624,0.9624,0.9632,0.9673,0.9734,0.9815,0.9855,0.988,0.9904,1.0006,1.0071,0.9981,0.9953,1.0083,1.0152,1.0148,1.0225,1.04,1.0343,1.0298,1.0245,1.0257,1.0237,1.0225,1.0269,1.0184,1.005,1.0002,0.9933,0.9839,0.9742,0.9681,0.9636,0.9628,0.9624,0.9624,0.9624,0.9624,0.9624,0.9624,0.9624,0.9624,0.9624,0.9624,0.9624,0.9624,0.9624,0.9624,0.9624,0.9624,0.9624,0.9624,0.9624,0.9624,0.9624,0.9624,0.9624,1.8534,1.8475,1.9063,1.8939,1.8389,1.8159,1.8117,1.8147,1.8149,1.7902,1.7337,1.6744,1.6216,1.5858,1.5825,1.5825,1.5825,1.5825,1.573,1.5778,1.5879,1.5499,1.5112,1.4962,1.443,1.3703,1.3022,1.2635,1.2877,1.2823,1.2339,1.1907,1.2004,1.1272,1.0641,1.0306,0.9965,0.9772,0.9624,0.9624,0.9624,0.9624,0.9723,0.9821,0.9875,0.9875,0.9875,0.9875,0.9776,0.9628,0.9624,0.9867,1.006,1.0881,1.0788,1.0542,1.0015,0.9624,0.9624,0.9624,0.9661,0.973,0.9827,0.9961,1.0034,1.0079,1.0144,1.0221,1.0229,1.0233,1.0245,1.0253,1.0205,1.016,1.0359,1.0566,1.0546,1.0505,1.0448,1.0387,1.0367,1.0351,1.0302,1.0217,1.0172,1.018,1.0095,0.9945,0.9819,0.9701,0.9652,0.9628,0.9624,0.9624,0.9624,0.9624,0.9624,0.9624,0.9624,0.9624,0.9624,0.9624,0.9624,0.9624,0.9624,0.9624,0.9624,0.9624,0.9624,0.9624,0.9624,0.9624,0.9624,0.9624,0.9624,1.8698,1.8475,1.8975,1.8854,1.8317,1.7788,1.7676,1.791,1.8196,1.7889,1.7127,1.6822,1.636,1.5872,1.5825,1.5825,1.5825,1.5825,1.5825,1.5825,1.5974,1.5784,1.5832,1.6163,1.5445,1.4526,1.3992,1.389,1.3312,1.3409,1.3553,1.2926,1.2926,1.2387,1.156,1.1419,1.1037,1.0314,1.031,1.0355,0.9772,0.9624,0.9624,0.9624,0.9624,0.9628,0.9628,0.9624,0.9624,0.9624,0.9723,1.0109,1.0979,1.0832,1.04,1.0449,1.0207,0.9821,0.9821,0.9817,0.9871,0.9907,0.9908,1.0091,1.0193,1.0229,1.029,1.0404,1.0432,1.0359,1.0343,1.0424,1.0424,1.0359,1.044,1.055,1.0542,1.055,1.0582,1.0534,1.0505,1.0493,1.0489,1.0408,1.0257,1.0322,1.0148,0.9949,0.9896,0.9746,0.9693,0.9648,0.9628,0.9628,0.9624,0.9624,0.9624,0.9624,0.9624,0.9624,0.9624,0.9624,0.9624,0.9624,0.9624,0.9624,0.9624,0.9624,0.9624,0.9624,0.9624,0.9624,0.9624,0.9624,0.9624,1.8646,1.8729,1.8435,1.8293,1.8303,1.7739,1.7605,1.7795,1.7909,1.7636,1.7113,1.6787,1.636,1.5858,1.5825,1.5825,1.5825,1.5825,1.5825,1.5825,1.5927,1.5927,1.5872,1.6116,1.5974,1.5974,1.5629,1.5289,1.4908,1.4914,1.4867,1.428,1.4178,1.3644,1.2678,1.2635,1.2155,1.1238,1.1663,1.1179,1.0162,0.9772,0.9624,0.9628,0.9628,0.9628,0.9628,0.9628,0.9628,0.9624,0.9624,1.0596,1.2145,1.0841,1.0841,1.1517,1.1082,1.0449,1.0265,1.043,1.0586,1.0196,1.0129,1.0265,1.0331,1.0355,1.0428,1.0554,1.0586,1.0493,1.0461,1.0562,1.0627,1.0558,1.0501,1.0521,1.0538,1.0607,1.0684,1.0668,1.0639,1.0635,1.0631,1.0546,1.0412,1.0188,0.99,0.9746,0.9843,0.9791,0.9762,0.9713,0.9644,0.9632,0.9628,0.9624,0.9624,0.9624,0.9624,0.9624,0.9624,0.9624,0.9624,0.9624,0.9624,0.9624,0.9624,0.9624,0.9624,0.9624,0.9624,0.9624,0.9624,0.9624,0.9624,1.8593,1.8812,1.8113,1.7973,1.7996,1.7387,1.7284,1.7523,1.7604,1.7318,1.6888,1.669,1.632,1.5832,1.5825,1.5825,1.5825,1.5825,1.5825,1.5825,1.5825,1.5825,1.5927,1.6076,1.6028,1.6123,1.6258,1.6069,1.5832,1.5981,1.5683,1.5391,1.5289,1.486,1.3944,1.38,1.3457,1.2533,1.3301,1.2624,1.1175,1.0886,1.0355,1.0212,0.9871,0.9875,0.9875,0.992,1.0117,1.0502,1.089,1.0935,1.1712,1.0984,1.1272,1.1858,1.176,1.1126,1.1149,1.1368,1.1586,1.1092,1.0945,1.1314,1.0571,1.0546,1.055,1.066,1.0664,1.0582,1.0578,1.0655,1.0655,1.0611,1.0607,1.0619,1.0623,1.0651,1.0688,1.0684,1.0668,1.0668,1.0635,1.053,1.0416,1.0359,1.0014,0.9864,0.9908,0.9896,0.9851,0.9791,0.973,0.9652,0.9628,0.9624,0.9624,0.9624,0.9624,0.9624,0.9624,0.9624,0.9624,0.9624,0.9624,0.9624,0.9624,0.9624,0.9624,0.9624,0.9624,0.9624,0.9624,0.9624,0.9624,1.8565,1.8667,1.7865,1.7591,1.7675,1.6943,1.6885,1.7301,1.7293,1.7066,1.6664,1.6616,1.6258,1.5967,1.5825,1.5825,1.5825,1.5825,1.5825,1.5825,1.5825,1.5825,1.5927,1.6028,1.6076,1.6123,1.617,1.5778,1.5296,1.5778,1.617,1.6218,1.6076,1.5832,1.5289,1.5045,1.4752,1.4118,1.416,1.3962,1.329,1.2619,1.1609,1.0841,1.0359,1.0314,1.0265,1.0364,1.0659,1.1091,1.1673,1.1912,1.1663,1.1321,1.176,1.2198,1.2198,1.1955,1.2137,1.2778,1.255,1.2284,1.2364,1.203,1.1331,1.1004,1.1008,1.0958,1.0962,1.0747,1.0688,1.0684,1.0676,1.0672,1.0684,1.0692,1.0688,1.0684,1.0688,1.0692,1.0692,1.0692,1.0627,1.0467,1.0391,1.0346,1.0322,1.0229,1.0188,1.0071,1.0018,0.9929,0.9843,0.9762,0.9685,0.9624,0.9624,0.9624,0.9624,0.9624,0.9624,0.9624,0.9624,0.9624,0.9624,0.9624,0.9624,0.9624,0.9624,0.9624,0.9624,0.9624,0.9624,0.9624,0.9624,1.8275,1.8133,1.7465,1.7175,1.7099,1.6735,1.6864,1.7239,1.7286,1.7052,1.6683,1.6534,1.6298,1.5825,1.5825,1.5825,1.5825,1.5825,1.5825,1.5825,1.5825,1.5825,1.5879,1.6021,1.6265,1.6265,1.6218,1.6028,1.5683,1.5981,1.6312,1.6494,1.6541,1.6494,1.6643,1.64,1.6021,1.5553,1.5662,1.5757,1.4412,1.3576,1.2528,1.1896,1.1517,1.089,1.0458,1.0265,1.0556,1.085,1.1433,1.2155,1.2247,1.1901,1.2101,1.3017,1.3017,1.2662,1.303,1.3906,1.3808,1.3326,1.3399,1.3498,1.2881,1.2304,1.22,1.1932,1.1664,1.0907,1.0798,1.0743,1.0684,1.0684,1.0692,1.0692,1.0688,1.0688,1.0692,1.0692,1.0692,1.0688,1.0676,1.0562,1.0395,1.0391,1.031,1.0225,1.0269,1.0245,1.0241,1.0103,1.0006,0.99,0.9835,0.9661,0.9624,0.9624,0.9624,0.9624,0.9624,0.9624,0.9624,0.9624,0.9624,0.9624,0.9624,0.9624,0.9624,0.9624,0.9624,0.9624,0.9628,0.9624,0.9624]}]]